<?xml version="1.0" encoding="UTF-8"?>
<gpx
  version="1.1"
  creator="Runmeter - http://www.runmeter.com"
  xmlns:xsi="http://www.w3.org/2001/XMLSchema-instance"
  xmlns:abvio="http://www.abvio.com/xmlschemas/1"
  xmlns="http://www.topografix.com/GPX/1/1"
  xsi:schemaLocation="http://www.topografix.com/GPX/1/1 http://www.topografix.com/gpx/1/1/gpx.xsd">
<metadata>
<name>Runmeter-Cycle-20160615-1800.gpx</name>
<desc>Runmeter Fahrrad (Straße) 15.06.2016, 18:00:25</desc>
<author><name>Abvio Runmeter</name><email id="support" domain="abvio.com"/></author>
<copyright author="Abvio Inc."><year>2016</year></copyright>
<link href="http://www.runmeter.com">
<text>Abvio Runmeter</text>
<type>text/html</type>
</link>
<time>2016-06-15T20:18:03Z</time>
<keywords>Abvio, Runmeter, Fahrrad</keywords>
<bounds minlat="46.9567645" minlon="7.4327956" maxlat="47.0471327" maxlon="7.5413746"/>
</metadata>
<trk>
<name><![CDATA[Neue Route]]></name>
<type><![CDATA[Tandem]]></type>
<trkseg>
<trkpt lat="46.9578716" lon="7.4343811"><ele>563.9</ele><time>2016-06-15T16:01:33Z</time></trkpt>
<trkpt lat="46.9579259" lon="7.4344110"><ele>563.8</ele><time>2016-06-15T16:01:37Z</time></trkpt>
<trkpt lat="46.9579910" lon="7.4346180"><ele>563.6</ele><time>2016-06-15T16:01:41Z</time></trkpt>
<trkpt lat="46.9582917" lon="7.4351387"><ele>563.0</ele><time>2016-06-15T16:01:53Z</time></trkpt>
<trkpt lat="46.9584285" lon="7.4352849"><ele>562.9</ele><time>2016-06-15T16:01:55Z</time></trkpt>
<trkpt lat="46.9584266" lon="7.4353162"><ele>562.8</ele><time>2016-06-15T16:01:56Z</time></trkpt>
<trkpt lat="46.9584967" lon="7.4354257"><ele>562.7</ele><time>2016-06-15T16:01:58Z</time></trkpt>
<trkpt lat="46.9585422" lon="7.4356602"><ele>561.9</ele><time>2016-06-15T16:02:05Z</time></trkpt>
<trkpt lat="46.9588743" lon="7.4360512"><ele>561.0</ele><time>2016-06-15T16:02:13Z</time></trkpt>
<trkpt lat="46.9590318" lon="7.4366849"><ele>559.4</ele><time>2016-06-15T16:02:29Z</time></trkpt>
<trkpt lat="46.9591407" lon="7.4369550"><ele>559.0</ele><time>2016-06-15T16:02:33Z</time></trkpt>
<trkpt lat="46.9591573" lon="7.4374260"><ele>558.5</ele><time>2016-06-15T16:02:38Z</time></trkpt>
<trkpt lat="46.9591310" lon="7.4375029"><ele>558.4</ele><time>2016-06-15T16:02:39Z</time></trkpt>
<trkpt lat="46.9592668" lon="7.4381536"><ele>557.9</ele><time>2016-06-15T16:02:48Z</time></trkpt>
<trkpt lat="46.9592513" lon="7.4381638"><ele>557.8</ele><time>2016-06-15T16:02:49Z</time></trkpt>
<trkpt lat="46.9592497" lon="7.4382962"><ele>557.6</ele><time>2016-06-15T16:02:51Z</time></trkpt>
<trkpt lat="46.9591821" lon="7.4383542"><ele>557.4</ele><time>2016-06-15T16:02:52Z</time></trkpt>
<trkpt lat="46.9591561" lon="7.4388498"><ele>556.3</ele><time>2016-06-15T16:03:02Z</time></trkpt>
<trkpt lat="46.9593656" lon="7.4391550"><ele>554.8</ele><time>2016-06-15T16:03:08Z</time></trkpt>
<trkpt lat="46.9598032" lon="7.4392376"><ele>556.3</ele><time>2016-06-15T16:03:28Z</time></trkpt>
<trkpt lat="46.9599568" lon="7.4392925"><ele>557.1</ele><time>2016-06-15T16:03:39Z</time></trkpt>
<trkpt lat="46.9604010" lon="7.4391837"><ele>561.4</ele><time>2016-06-15T16:04:02Z</time></trkpt>
<trkpt lat="46.9607366" lon="7.4391432"><ele>563.4</ele><time>2016-06-15T16:04:14Z</time></trkpt>
<trkpt lat="46.9608134" lon="7.4391939"><ele>563.7</ele><time>2016-06-15T16:04:18Z</time></trkpt>
<trkpt lat="46.9609911" lon="7.4391553"><ele>563.6</ele><time>2016-06-15T16:04:26Z</time></trkpt>
<trkpt lat="46.9614262" lon="7.4393455"><ele>563.1</ele><time>2016-06-15T16:04:41Z</time></trkpt>
<trkpt lat="46.9616332" lon="7.4395819"><ele>562.8</ele><time>2016-06-15T16:04:51Z</time></trkpt>
<trkpt lat="46.9619245" lon="7.4396388"><ele>558.7</ele><time>2016-06-15T16:04:58Z</time></trkpt>
<trkpt lat="46.9622407" lon="7.4398861"><ele>551.6</ele><time>2016-06-15T16:05:05Z</time></trkpt>
<trkpt lat="46.9623350" lon="7.4400164"><ele>552.5</ele><time>2016-06-15T16:05:07Z</time></trkpt>
<trkpt lat="46.9625918" lon="7.4401000"><ele>555.4</ele><time>2016-06-15T16:05:14Z</time></trkpt>
<trkpt lat="46.9629623" lon="7.4405037"><ele>558.2</ele><time>2016-06-15T16:05:35Z</time></trkpt>
<trkpt lat="46.9633515" lon="7.4408649"><ele>559.5</ele><time>2016-06-15T16:05:54Z</time></trkpt>
<trkpt lat="46.9637114" lon="7.4412716"><ele>561.4</ele><time>2016-06-15T16:06:08Z</time></trkpt>
<trkpt lat="46.9641253" lon="7.4415956"><ele>563.6</ele><time>2016-06-15T16:06:28Z</time></trkpt>
<trkpt lat="46.9643360" lon="7.4416700"><ele>563.9</ele><time>2016-06-15T16:06:30Z</time></trkpt>
<trkpt lat="46.9644026" lon="7.4416655"><ele>564.2</ele><time>2016-06-15T16:06:32Z</time></trkpt>
<trkpt lat="46.9645010" lon="7.4415989"><ele>564.3</ele><time>2016-06-15T16:06:33Z</time></trkpt>
<trkpt lat="46.9646086" lon="7.4416712"><ele>564.6</ele><time>2016-06-15T16:06:35Z</time></trkpt>
<trkpt lat="46.9647597" lon="7.4416736"><ele>564.7</ele><time>2016-06-15T16:06:36Z</time></trkpt>
<trkpt lat="46.9650991" lon="7.4418881"><ele>565.0</ele><time>2016-06-15T16:06:42Z</time></trkpt>
<trkpt lat="46.9652078" lon="7.4417176"><ele>565.0</ele><time>2016-06-15T16:06:43Z</time></trkpt>
<trkpt lat="46.9656025" lon="7.4418687"><ele>562.2</ele><time>2016-06-15T16:07:03Z</time></trkpt>
<trkpt lat="46.9656177" lon="7.4420127"><ele>562.4</ele><time>2016-06-15T16:07:04Z</time></trkpt>
<trkpt lat="46.9658903" lon="7.4421333"><ele>563.4</ele><time>2016-06-15T16:07:14Z</time></trkpt>
<trkpt lat="46.9659775" lon="7.4420470"><ele>563.4</ele><time>2016-06-15T16:07:15Z</time></trkpt>
<trkpt lat="46.9663961" lon="7.4422941"><ele>562.7</ele><time>2016-06-15T16:07:21Z</time></trkpt>
<trkpt lat="46.9668713" lon="7.4425931"><ele>559.5</ele><time>2016-06-15T16:07:28Z</time></trkpt>
<trkpt lat="46.9672878" lon="7.4428626"><ele>556.3</ele><time>2016-06-15T16:07:32Z</time></trkpt>
<trkpt lat="46.9677740" lon="7.4431812"><ele>549.8</ele><time>2016-06-15T16:07:37Z</time></trkpt>
<trkpt lat="46.9681855" lon="7.4434865"><ele>543.2</ele><time>2016-06-15T16:07:41Z</time></trkpt>
<trkpt lat="46.9686592" lon="7.4437152"><ele>540.4</ele><time>2016-06-15T16:07:48Z</time></trkpt>
<trkpt lat="46.9688145" lon="7.4439641"><ele>542.9</ele><time>2016-06-15T16:07:50Z</time></trkpt>
<trkpt lat="46.9690508" lon="7.4440394"><ele>544.9</ele><time>2016-06-15T16:07:53Z</time></trkpt>
<trkpt lat="46.9694505" lon="7.4443612"><ele>545.8</ele><time>2016-06-15T16:08:05Z</time></trkpt>
<trkpt lat="46.9698528" lon="7.4447017"><ele>543.2</ele><time>2016-06-15T16:08:23Z</time></trkpt>
<trkpt lat="46.9702870" lon="7.4450814"><ele>543.0</ele><time>2016-06-15T16:08:39Z</time></trkpt>
<trkpt lat="46.9707136" lon="7.4454471"><ele>545.5</ele><time>2016-06-15T16:08:52Z</time></trkpt>
<trkpt lat="46.9711075" lon="7.4457758"><ele>545.7</ele><time>2016-06-15T16:09:06Z</time></trkpt>
<trkpt lat="46.9715102" lon="7.4461433"><ele>545.1</ele><time>2016-06-15T16:09:18Z</time></trkpt>
<trkpt lat="46.9718803" lon="7.4465847"><ele>544.7</ele><time>2016-06-15T16:09:28Z</time></trkpt>
<trkpt lat="46.9722787" lon="7.4471508"><ele>544.3</ele><time>2016-06-15T16:09:37Z</time></trkpt>
<trkpt lat="46.9726503" lon="7.4476456"><ele>543.8</ele><time>2016-06-15T16:09:48Z</time></trkpt>
<trkpt lat="46.9730041" lon="7.4481096"><ele>543.4</ele><time>2016-06-15T16:09:57Z</time></trkpt>
<trkpt lat="46.9732138" lon="7.4485524"><ele>543.1</ele><time>2016-06-15T16:10:03Z</time></trkpt>
<trkpt lat="46.9732360" lon="7.4489405"><ele>542.9</ele><time>2016-06-15T16:10:07Z</time></trkpt>
<trkpt lat="46.9732093" lon="7.4490317"><ele>542.9</ele><time>2016-06-15T16:10:08Z</time></trkpt>
<trkpt lat="46.9732096" lon="7.4491307"><ele>542.9</ele><time>2016-06-15T16:10:09Z</time></trkpt>
<trkpt lat="46.9734779" lon="7.4496564"><ele>541.0</ele><time>2016-06-15T16:10:13Z</time></trkpt>
<trkpt lat="46.9734919" lon="7.4497442"><ele>540.4</ele><time>2016-06-15T16:10:14Z</time></trkpt>
<trkpt lat="46.9736003" lon="7.4498299"><ele>539.8</ele><time>2016-06-15T16:10:15Z</time></trkpt>
<trkpt lat="46.9737720" lon="7.4501654"><ele>538.0</ele><time>2016-06-15T16:10:18Z</time></trkpt>
<trkpt lat="46.9737849" lon="7.4503837"><ele>536.8</ele><time>2016-06-15T16:10:20Z</time></trkpt>
<trkpt lat="46.9736869" lon="7.4507028"><ele>534.5</ele><time>2016-06-15T16:10:24Z</time></trkpt>
<trkpt lat="46.9735784" lon="7.4508412"><ele>533.9</ele><time>2016-06-15T16:10:25Z</time></trkpt>
<trkpt lat="46.9735591" lon="7.4508818"><ele>533.3</ele><time>2016-06-15T16:10:28Z</time></trkpt>
<trkpt lat="46.9735029" lon="7.4509108"><ele>533.3</ele><time>2016-06-15T16:10:31Z</time></trkpt>
<trkpt lat="46.9735090" lon="7.4509844"><ele>533.2</ele><time>2016-06-15T16:10:33Z</time></trkpt>
<trkpt lat="46.9733306" lon="7.4511079"><ele>533.2</ele><time>2016-06-15T16:10:34Z</time></trkpt>
<trkpt lat="46.9734035" lon="7.4511582"><ele>533.2</ele><time>2016-06-15T16:10:35Z</time></trkpt>
<trkpt lat="46.9734354" lon="7.4511021"><ele>532.6</ele><time>2016-06-15T16:10:40Z</time></trkpt>
<trkpt lat="46.9732100" lon="7.4513265"><ele>532.4</ele><time>2016-06-15T16:10:41Z</time></trkpt>
<trkpt lat="46.9735204" lon="7.4511364"><ele>531.9</ele><time>2016-06-15T16:10:44Z</time></trkpt>
<trkpt lat="46.9732501" lon="7.4513174"><ele>530.5</ele><time>2016-06-15T16:10:55Z</time></trkpt>
<trkpt lat="46.9732333" lon="7.4513178"><ele>530.4</ele><time>2016-06-15T16:10:56Z</time></trkpt>
<trkpt lat="46.9733466" lon="7.4513872"><ele>530.1</ele><time>2016-06-15T16:11:01Z</time></trkpt>
<trkpt lat="46.9735960" lon="7.4520159"><ele>529.6</ele><time>2016-06-15T16:11:08Z</time></trkpt>
<trkpt lat="46.9739258" lon="7.4527555"><ele>529.0</ele><time>2016-06-15T16:11:18Z</time></trkpt>
<trkpt lat="46.9741972" lon="7.4534333"><ele>528.5</ele><time>2016-06-15T16:11:26Z</time></trkpt>
<trkpt lat="46.9744344" lon="7.4540257"><ele>528.2</ele><time>2016-06-15T16:11:31Z</time></trkpt>
<trkpt lat="46.9746770" lon="7.4546311"><ele>527.8</ele><time>2016-06-15T16:11:37Z</time></trkpt>
<trkpt lat="46.9749060" lon="7.4552024"><ele>527.4</ele><time>2016-06-15T16:11:43Z</time></trkpt>
<trkpt lat="46.9751862" lon="7.4557769"><ele>526.5</ele><time>2016-06-15T16:11:48Z</time></trkpt>
<trkpt lat="46.9755503" lon="7.4562821"><ele>523.8</ele><time>2016-06-15T16:11:56Z</time></trkpt>
<trkpt lat="46.9757383" lon="7.4564829"><ele>522.9</ele><time>2016-06-15T16:11:59Z</time></trkpt>
<trkpt lat="46.9759101" lon="7.4565847"><ele>522.5</ele><time>2016-06-15T16:12:01Z</time></trkpt>
<trkpt lat="46.9759609" lon="7.4567094"><ele>522.2</ele><time>2016-06-15T16:12:02Z</time></trkpt>
<trkpt lat="46.9764308" lon="7.4568882"><ele>520.3</ele><time>2016-06-15T16:12:08Z</time></trkpt>
<trkpt lat="46.9767474" lon="7.4568947"><ele>521.6</ele><time>2016-06-15T16:12:12Z</time></trkpt>
<trkpt lat="46.9770204" lon="7.4569176"><ele>522.3</ele><time>2016-06-15T16:12:16Z</time></trkpt>
<trkpt lat="46.9775135" lon="7.4570727"><ele>526.1</ele><time>2016-06-15T16:12:24Z</time></trkpt>
<trkpt lat="46.9779491" lon="7.4571843"><ele>522.0</ele><time>2016-06-15T16:12:31Z</time></trkpt>
<trkpt lat="46.9783073" lon="7.4571521"><ele>522.0</ele><time>2016-06-15T16:12:37Z</time></trkpt>
<trkpt lat="46.9783705" lon="7.4571816"><ele>522.0</ele><time>2016-06-15T16:12:38Z</time></trkpt>
<trkpt lat="46.9784354" lon="7.4571562"><ele>522.0</ele><time>2016-06-15T16:12:39Z</time></trkpt>
<trkpt lat="46.9784715" lon="7.4571990"><ele>522.0</ele><time>2016-06-15T16:12:40Z</time></trkpt>
<trkpt lat="46.9786578" lon="7.4572477"><ele>521.9</ele><time>2016-06-15T16:12:44Z</time></trkpt>
<trkpt lat="46.9789350" lon="7.4571874"><ele>521.9</ele><time>2016-06-15T16:12:49Z</time></trkpt>
<trkpt lat="46.9791393" lon="7.4571398"><ele>521.9</ele><time>2016-06-15T16:12:53Z</time></trkpt>
<trkpt lat="46.9791936" lon="7.4570695"><ele>521.9</ele><time>2016-06-15T16:12:54Z</time></trkpt>
<trkpt lat="46.9792449" lon="7.4571992"><ele>521.9</ele><time>2016-06-15T16:12:55Z</time></trkpt>
<trkpt lat="46.9794715" lon="7.4571444"><ele>521.8</ele><time>2016-06-15T16:13:01Z</time></trkpt>
<trkpt lat="46.9795849" lon="7.4572007"><ele>521.8</ele><time>2016-06-15T16:13:04Z</time></trkpt>
<trkpt lat="46.9796994" lon="7.4575786"><ele>521.8</ele><time>2016-06-15T16:13:07Z</time></trkpt>
<trkpt lat="46.9797520" lon="7.4576754"><ele>521.8</ele><time>2016-06-15T16:13:08Z</time></trkpt>
<trkpt lat="46.9797114" lon="7.4576149"><ele>521.8</ele><time>2016-06-15T16:13:12Z</time></trkpt>
<trkpt lat="46.9800531" lon="7.4576885"><ele>521.7</ele><time>2016-06-15T16:13:26Z</time></trkpt>
<trkpt lat="46.9805145" lon="7.4576433"><ele>521.8</ele><time>2016-06-15T16:13:44Z</time></trkpt>
<trkpt lat="46.9809697" lon="7.4576108"><ele>521.9</ele><time>2016-06-15T16:13:58Z</time></trkpt>
<trkpt lat="46.9814464" lon="7.4575769"><ele>522.0</ele><time>2016-06-15T16:14:09Z</time></trkpt>
<trkpt lat="46.9819028" lon="7.4575443"><ele>522.0</ele><time>2016-06-15T16:14:21Z</time></trkpt>
<trkpt lat="46.9823602" lon="7.4575155"><ele>521.1</ele><time>2016-06-15T16:14:32Z</time></trkpt>
<trkpt lat="46.9828643" lon="7.4575092"><ele>522.2</ele><time>2016-06-15T16:14:48Z</time></trkpt>
<trkpt lat="46.9829103" lon="7.4575129"><ele>522.8</ele><time>2016-06-15T16:14:54Z</time></trkpt>
<trkpt lat="46.9828888" lon="7.4578257"><ele>522.9</ele><time>2016-06-15T16:14:58Z</time></trkpt>
<trkpt lat="46.9828154" lon="7.4577977"><ele>523.0</ele><time>2016-06-15T16:14:59Z</time></trkpt>
<trkpt lat="46.9827085" lon="7.4580128"><ele>520.1</ele><time>2016-06-15T16:15:07Z</time></trkpt>
<trkpt lat="46.9826293" lon="7.4580068"><ele>520.3</ele><time>2016-06-15T16:15:09Z</time></trkpt>
<trkpt lat="46.9825097" lon="7.4586768"><ele>524.2</ele><time>2016-06-15T16:15:25Z</time></trkpt>
<trkpt lat="46.9825020" lon="7.4593667"><ele>527.5</ele><time>2016-06-15T16:15:35Z</time></trkpt>
<trkpt lat="46.9825107" lon="7.4595692"><ele>526.8</ele><time>2016-06-15T16:15:37Z</time></trkpt>
<trkpt lat="46.9824954" lon="7.4596295"><ele>526.4</ele><time>2016-06-15T16:15:38Z</time></trkpt>
<trkpt lat="46.9824023" lon="7.4595999"><ele>525.7</ele><time>2016-06-15T16:15:40Z</time></trkpt>
<trkpt lat="46.9823446" lon="7.4596520"><ele>524.9</ele><time>2016-06-15T16:15:42Z</time></trkpt>
<trkpt lat="46.9822892" lon="7.4596039"><ele>524.6</ele><time>2016-06-15T16:15:43Z</time></trkpt>
<trkpt lat="46.9821870" lon="7.4598678"><ele>524.0</ele><time>2016-06-15T16:15:45Z</time></trkpt>
<trkpt lat="46.9821189" lon="7.4600469"><ele>523.7</ele><time>2016-06-15T16:15:54Z</time></trkpt>
<trkpt lat="46.9821529" lon="7.4602493"><ele>525.4</ele><time>2016-06-15T16:15:57Z</time></trkpt>
<trkpt lat="46.9823235" lon="7.4604296"><ele>526.2</ele><time>2016-06-15T16:15:58Z</time></trkpt>
<trkpt lat="46.9828998" lon="7.4612213"><ele>534.1</ele><time>2016-06-15T16:16:25Z</time></trkpt>
</trkseg>
<trkseg>
<trkpt lat="46.9828998" lon="7.4612213"><ele>534.1</ele><time>2016-06-15T16:17:07Z</time></trkpt>
<trkpt lat="46.9832485" lon="7.4614636"><ele>537.8</ele><time>2016-06-15T16:17:20Z</time></trkpt>
<trkpt lat="46.9838091" lon="7.4612764"><ele>539.8</ele><time>2016-06-15T16:17:39Z</time></trkpt>
<trkpt lat="46.9842764" lon="7.4614607"><ele>540.8</ele><time>2016-06-15T16:17:52Z</time></trkpt>
<trkpt lat="46.9846607" lon="7.4618334"><ele>542.0</ele><time>2016-06-15T16:18:04Z</time></trkpt>
<trkpt lat="46.9850799" lon="7.4621049"><ele>543.7</ele><time>2016-06-15T16:18:21Z</time></trkpt>
<trkpt lat="46.9855259" lon="7.4622498"><ele>544.2</ele><time>2016-06-15T16:18:40Z</time></trkpt>
<trkpt lat="46.9859470" lon="7.4625067"><ele>541.5</ele><time>2016-06-15T16:19:03Z</time></trkpt>
<trkpt lat="46.9864065" lon="7.4624456"><ele>542.6</ele><time>2016-06-15T16:19:16Z</time></trkpt>
<trkpt lat="46.9866279" lon="7.4623464"><ele>544.0</ele><time>2016-06-15T16:19:21Z</time></trkpt>
<trkpt lat="46.9868998" lon="7.4621082"><ele>544.0</ele><time>2016-06-15T16:19:26Z</time></trkpt>
<trkpt lat="46.9872800" lon="7.4618961"><ele>544.1</ele><time>2016-06-15T16:19:33Z</time></trkpt>
<trkpt lat="46.9873076" lon="7.4619321"><ele>544.1</ele><time>2016-06-15T16:19:34Z</time></trkpt>
<trkpt lat="46.9876162" lon="7.4618516"><ele>546.9</ele><time>2016-06-15T16:19:41Z</time></trkpt>
<trkpt lat="46.9876722" lon="7.4618204"><ele>547.2</ele><time>2016-06-15T16:19:43Z</time></trkpt>
<trkpt lat="46.9882833" lon="7.4618326"><ele>548.0</ele><time>2016-06-15T16:20:02Z</time></trkpt>
</trkseg>
<trkseg>
<trkpt lat="46.9882833" lon="7.4618326"><ele>548.0</ele><time>2016-06-15T16:20:23Z</time></trkpt>
<trkpt lat="46.9884334" lon="7.4620305"><ele>548.3</ele><time>2016-06-15T16:20:27Z</time></trkpt>
<trkpt lat="46.9886755" lon="7.4624464"><ele>549.3</ele><time>2016-06-15T16:20:41Z</time></trkpt>
<trkpt lat="46.9891903" lon="7.4632527"><ele>553.4</ele><time>2016-06-15T16:20:53Z</time></trkpt>
</trkseg>
<trkseg>
<trkpt lat="46.9891903" lon="7.4632527"><ele>553.4</ele><time>2016-06-15T16:29:38Z</time></trkpt>
<trkpt lat="46.9893581" lon="7.4635935"><ele>554.7</ele><time>2016-06-15T16:29:43Z</time></trkpt>
<trkpt lat="46.9894114" lon="7.4637853"><ele>554.7</ele><time>2016-06-15T16:29:46Z</time></trkpt>
<trkpt lat="46.9895415" lon="7.4641054"><ele>554.7</ele><time>2016-06-15T16:29:50Z</time></trkpt>
<trkpt lat="46.9896002" lon="7.4641660"><ele>554.7</ele><time>2016-06-15T16:29:51Z</time></trkpt>
<trkpt lat="46.9897070" lon="7.4643856"><ele>554.7</ele><time>2016-06-15T16:29:54Z</time></trkpt>
<trkpt lat="46.9898180" lon="7.4645376"><ele>554.7</ele><time>2016-06-15T16:29:56Z</time></trkpt>
<trkpt lat="46.9900436" lon="7.4651613"><ele>553.6</ele><time>2016-06-15T16:30:05Z</time></trkpt>
<trkpt lat="46.9900262" lon="7.4652758"><ele>553.3</ele><time>2016-06-15T16:30:07Z</time></trkpt>
<trkpt lat="46.9900688" lon="7.4655328"><ele>552.6</ele><time>2016-06-15T16:30:11Z</time></trkpt>
<trkpt lat="46.9902027" lon="7.4661714"><ele>549.2</ele><time>2016-06-15T16:30:28Z</time></trkpt>
<trkpt lat="46.9902485" lon="7.4666550"><ele>551.0</ele><time>2016-06-15T16:30:37Z</time></trkpt>
<trkpt lat="46.9902991" lon="7.4669035"><ele>551.9</ele><time>2016-06-15T16:30:40Z</time></trkpt>
<trkpt lat="46.9903787" lon="7.4670339"><ele>552.2</ele><time>2016-06-15T16:30:41Z</time></trkpt>
<trkpt lat="46.9903840" lon="7.4671221"><ele>552.5</ele><time>2016-06-15T16:30:42Z</time></trkpt>
<trkpt lat="46.9905408" lon="7.4674059"><ele>553.3</ele><time>2016-06-15T16:30:45Z</time></trkpt>
<trkpt lat="46.9905943" lon="7.4675618"><ele>553.7</ele><time>2016-06-15T16:30:47Z</time></trkpt>
<trkpt lat="46.9906896" lon="7.4676439"><ele>554.0</ele><time>2016-06-15T16:30:51Z</time></trkpt>
<trkpt lat="46.9906707" lon="7.4677182"><ele>554.1</ele><time>2016-06-15T16:30:54Z</time></trkpt>
<trkpt lat="46.9907168" lon="7.4678234"><ele>553.1</ele><time>2016-06-15T16:30:58Z</time></trkpt>
<trkpt lat="46.9911407" lon="7.4675193"><ele>553.5</ele><time>2016-06-15T16:31:14Z</time></trkpt>
<trkpt lat="46.9915140" lon="7.4671021"><ele>553.4</ele><time>2016-06-15T16:31:32Z</time></trkpt>
<trkpt lat="46.9918513" lon="7.4666356"><ele>553.3</ele><time>2016-06-15T16:31:46Z</time></trkpt>
<trkpt lat="46.9921086" lon="7.4663735"><ele>553.2</ele><time>2016-06-15T16:31:54Z</time></trkpt>
<trkpt lat="46.9922399" lon="7.4661418"><ele>553.3</ele><time>2016-06-15T16:31:57Z</time></trkpt>
<trkpt lat="46.9923268" lon="7.4660879"><ele>553.6</ele><time>2016-06-15T16:31:59Z</time></trkpt>
<trkpt lat="46.9924258" lon="7.4659622"><ele>553.9</ele><time>2016-06-15T16:32:01Z</time></trkpt>
<trkpt lat="46.9924574" lon="7.4659698"><ele>554.0</ele><time>2016-06-15T16:32:02Z</time></trkpt>
<trkpt lat="46.9925221" lon="7.4659168"><ele>554.0</ele><time>2016-06-15T16:32:03Z</time></trkpt>
<trkpt lat="46.9926761" lon="7.4657420"><ele>554.0</ele><time>2016-06-15T16:32:07Z</time></trkpt>
<trkpt lat="46.9929492" lon="7.4654875"><ele>553.3</ele><time>2016-06-15T16:32:15Z</time></trkpt>
<trkpt lat="46.9930986" lon="7.4652297"><ele>553.1</ele><time>2016-06-15T16:32:19Z</time></trkpt>
<trkpt lat="46.9931933" lon="7.4652472"><ele>553.1</ele><time>2016-06-15T16:32:20Z</time></trkpt>
<trkpt lat="46.9932663" lon="7.4651760"><ele>553.0</ele><time>2016-06-15T16:32:22Z</time></trkpt>
<trkpt lat="46.9932530" lon="7.4650163"><ele>552.9</ele><time>2016-06-15T16:32:23Z</time></trkpt>
<trkpt lat="46.9933859" lon="7.4649377"><ele>552.8</ele><time>2016-06-15T16:32:26Z</time></trkpt>
<trkpt lat="46.9934179" lon="7.4648866"><ele>552.8</ele><time>2016-06-15T16:32:27Z</time></trkpt>
<trkpt lat="46.9934672" lon="7.4649175"><ele>552.7</ele><time>2016-06-15T16:32:29Z</time></trkpt>
<trkpt lat="46.9938283" lon="7.4645067"><ele>552.3</ele><time>2016-06-15T16:32:38Z</time></trkpt>
<trkpt lat="46.9938880" lon="7.4644311"><ele>552.3</ele><time>2016-06-15T16:32:39Z</time></trkpt>
<trkpt lat="46.9939649" lon="7.4645239"><ele>552.2</ele><time>2016-06-15T16:32:40Z</time></trkpt>
<trkpt lat="46.9940796" lon="7.4644395"><ele>552.1</ele><time>2016-06-15T16:32:43Z</time></trkpt>
<trkpt lat="46.9940825" lon="7.4643084"><ele>552.1</ele><time>2016-06-15T16:32:44Z</time></trkpt>
<trkpt lat="46.9942300" lon="7.4642259"><ele>552.0</ele><time>2016-06-15T16:32:47Z</time></trkpt>
<trkpt lat="46.9946131" lon="7.4638743"><ele>552.0</ele><time>2016-06-15T16:32:54Z</time></trkpt>
<trkpt lat="46.9948710" lon="7.4635146"><ele>552.2</ele><time>2016-06-15T16:32:59Z</time></trkpt>
<trkpt lat="46.9948927" lon="7.4635313"><ele>552.3</ele><time>2016-06-15T16:33:00Z</time></trkpt>
<trkpt lat="46.9952929" lon="7.4632253"><ele>552.7</ele><time>2016-06-15T16:33:09Z</time></trkpt>
<trkpt lat="46.9953969" lon="7.4631503"><ele>552.8</ele><time>2016-06-15T16:33:11Z</time></trkpt>
<trkpt lat="46.9954871" lon="7.4631819"><ele>552.9</ele><time>2016-06-15T16:33:13Z</time></trkpt>
<trkpt lat="46.9957812" lon="7.4630535"><ele>553.1</ele><time>2016-06-15T16:33:19Z</time></trkpt>
<trkpt lat="46.9961310" lon="7.4630107"><ele>553.5</ele><time>2016-06-15T16:33:26Z</time></trkpt>
<trkpt lat="46.9964909" lon="7.4627832"><ele>553.8</ele><time>2016-06-15T16:33:34Z</time></trkpt>
<trkpt lat="46.9965532" lon="7.4628174"><ele>553.9</ele><time>2016-06-15T16:33:36Z</time></trkpt>
<trkpt lat="46.9965973" lon="7.4629942"><ele>554.1</ele><time>2016-06-15T16:33:39Z</time></trkpt>
<trkpt lat="46.9966062" lon="7.4631716"><ele>554.1</ele><time>2016-06-15T16:33:41Z</time></trkpt>
<trkpt lat="46.9967831" lon="7.4636011"><ele>554.5</ele><time>2016-06-15T16:33:48Z</time></trkpt>
<trkpt lat="46.9968230" lon="7.4636073"><ele>554.5</ele><time>2016-06-15T16:33:49Z</time></trkpt>
<trkpt lat="46.9968146" lon="7.4635798"><ele>554.6</ele><time>2016-06-15T16:33:50Z</time></trkpt>
<trkpt lat="46.9970119" lon="7.4636679"><ele>554.7</ele><time>2016-06-15T16:33:53Z</time></trkpt>
<trkpt lat="46.9970605" lon="7.4637725"><ele>554.7</ele><time>2016-06-15T16:33:54Z</time></trkpt>
<trkpt lat="46.9970716" lon="7.4639520"><ele>554.9</ele><time>2016-06-15T16:33:57Z</time></trkpt>
<trkpt lat="46.9970997" lon="7.4639928"><ele>555.0</ele><time>2016-06-15T16:34:00Z</time></trkpt>
<trkpt lat="46.9971743" lon="7.4640164"><ele>555.0</ele><time>2016-06-15T16:34:01Z</time></trkpt>
<trkpt lat="46.9972829" lon="7.4639705"><ele>555.2</ele><time>2016-06-15T16:34:04Z</time></trkpt>
<trkpt lat="46.9977107" lon="7.4642422"><ele>556.8</ele><time>2016-06-15T16:34:23Z</time></trkpt>
<trkpt lat="46.9981584" lon="7.4643418"><ele>558.2</ele><time>2016-06-15T16:34:46Z</time></trkpt>
<trkpt lat="46.9986115" lon="7.4643563"><ele>560.2</ele><time>2016-06-15T16:35:05Z</time></trkpt>
<trkpt lat="46.9990699" lon="7.4642829"><ele>562.0</ele><time>2016-06-15T16:35:21Z</time></trkpt>
<trkpt lat="46.9995306" lon="7.4643791"><ele>560.2</ele><time>2016-06-15T16:35:34Z</time></trkpt>
<trkpt lat="46.9999859" lon="7.4645427"><ele>561.9</ele><time>2016-06-15T16:35:51Z</time></trkpt>
<trkpt lat="47.0004047" lon="7.4648335"><ele>563.9</ele><time>2016-06-15T16:36:08Z</time></trkpt>
<trkpt lat="47.0007270" lon="7.4649238"><ele>561.5</ele><time>2016-06-15T16:36:24Z</time></trkpt>
<trkpt lat="47.0011627" lon="7.4647512"><ele>563.6</ele><time>2016-06-15T16:36:36Z</time></trkpt>
<trkpt lat="47.0014864" lon="7.4645338"><ele>559.4</ele><time>2016-06-15T16:36:43Z</time></trkpt>
<trkpt lat="47.0019007" lon="7.4641697"><ele>551.9</ele><time>2016-06-15T16:36:50Z</time></trkpt>
<trkpt lat="47.0024058" lon="7.4640699"><ele>548.2</ele><time>2016-06-15T16:36:58Z</time></trkpt>
<trkpt lat="47.0026554" lon="7.4640461"><ele>548.8</ele><time>2016-06-15T16:37:02Z</time></trkpt>
<trkpt lat="47.0027198" lon="7.4641531"><ele>548.9</ele><time>2016-06-15T16:37:03Z</time></trkpt>
<trkpt lat="47.0029334" lon="7.4642306"><ele>549.2</ele><time>2016-06-15T16:37:05Z</time></trkpt>
<trkpt lat="47.0030647" lon="7.4645726"><ele>549.8</ele><time>2016-06-15T16:37:12Z</time></trkpt>
<trkpt lat="47.0035077" lon="7.4648838"><ele>543.6</ele><time>2016-06-15T16:37:21Z</time></trkpt>
<trkpt lat="47.0039301" lon="7.4651254"><ele>535.1</ele><time>2016-06-15T16:37:30Z</time></trkpt>
<trkpt lat="47.0043995" lon="7.4653927"><ele>536.1</ele><time>2016-06-15T16:37:41Z</time></trkpt>
<trkpt lat="47.0048401" lon="7.4656233"><ele>536.8</ele><time>2016-06-15T16:37:54Z</time></trkpt>
<trkpt lat="47.0048832" lon="7.4656430"><ele>536.9</ele><time>2016-06-15T16:37:56Z</time></trkpt>
<trkpt lat="47.0053376" lon="7.4658240"><ele>538.0</ele><time>2016-06-15T16:38:11Z</time></trkpt>
<trkpt lat="47.0057906" lon="7.4659139"><ele>537.8</ele><time>2016-06-15T16:38:26Z</time></trkpt>
<trkpt lat="47.0063693" lon="7.4662684"><ele>540.4</ele><time>2016-06-15T16:38:40Z</time></trkpt>
<trkpt lat="47.0067075" lon="7.4667024"><ele>543.3</ele><time>2016-06-15T16:39:00Z</time></trkpt>
<trkpt lat="47.0071001" lon="7.4670914"><ele>541.0</ele><time>2016-06-15T16:39:15Z</time></trkpt>
<trkpt lat="47.0074479" lon="7.4674903"><ele>556.6</ele><time>2016-06-15T16:39:27Z</time></trkpt>
<trkpt lat="47.0075409" lon="7.4677336"><ele>563.4</ele><time>2016-06-15T16:39:35Z</time></trkpt>
<trkpt lat="47.0077647" lon="7.4679302"><ele>563.5</ele><time>2016-06-15T16:39:37Z</time></trkpt>
<trkpt lat="47.0078199" lon="7.4680782"><ele>563.8</ele><time>2016-06-15T16:39:41Z</time></trkpt>
<trkpt lat="47.0081644" lon="7.4685309"><ele>564.3</ele><time>2016-06-15T16:39:50Z</time></trkpt>
<trkpt lat="47.0083541" lon="7.4690308"><ele>564.0</ele><time>2016-06-15T16:39:57Z</time></trkpt>
<trkpt lat="47.0084832" lon="7.4691203"><ele>563.7</ele><time>2016-06-15T16:39:59Z</time></trkpt>
<trkpt lat="47.0084949" lon="7.4691764"><ele>563.6</ele><time>2016-06-15T16:40:00Z</time></trkpt>
<trkpt lat="47.0086324" lon="7.4693240"><ele>563.3</ele><time>2016-06-15T16:40:02Z</time></trkpt>
<trkpt lat="47.0086189" lon="7.4692493"><ele>562.8</ele><time>2016-06-15T16:40:06Z</time></trkpt>
<trkpt lat="47.0092691" lon="7.4701658"><ele>562.0</ele><time>2016-06-15T16:40:14Z</time></trkpt>
<trkpt lat="47.0093588" lon="7.4703594"><ele>561.8</ele><time>2016-06-15T16:40:16Z</time></trkpt>
<trkpt lat="47.0093987" lon="7.4703351"><ele>561.6</ele><time>2016-06-15T16:40:17Z</time></trkpt>
<trkpt lat="47.0095956" lon="7.4704812"><ele>561.3</ele><time>2016-06-15T16:40:19Z</time></trkpt>
<trkpt lat="47.0096092" lon="7.4706129"><ele>560.9</ele><time>2016-06-15T16:40:22Z</time></trkpt>
<trkpt lat="47.0096434" lon="7.4706600"><ele>560.8</ele><time>2016-06-15T16:40:24Z</time></trkpt>
<trkpt lat="47.0097256" lon="7.4706740"><ele>560.7</ele><time>2016-06-15T16:40:25Z</time></trkpt>
<trkpt lat="47.0097780" lon="7.4705524"><ele>560.6</ele><time>2016-06-15T16:40:26Z</time></trkpt>
<trkpt lat="47.0098390" lon="7.4705952"><ele>560.4</ele><time>2016-06-15T16:40:28Z</time></trkpt>
<trkpt lat="47.0098850" lon="7.4705651"><ele>560.3</ele><time>2016-06-15T16:40:29Z</time></trkpt>
<trkpt lat="47.0098840" lon="7.4706647"><ele>560.2</ele><time>2016-06-15T16:40:30Z</time></trkpt>
<trkpt lat="47.0101108" lon="7.4710528"><ele>560.0</ele><time>2016-06-15T16:40:32Z</time></trkpt>
<trkpt lat="47.0102036" lon="7.4711096"><ele>559.7</ele><time>2016-06-15T16:40:35Z</time></trkpt>
<trkpt lat="47.0102253" lon="7.4711984"><ele>559.6</ele><time>2016-06-15T16:40:36Z</time></trkpt>
<trkpt lat="47.0103049" lon="7.4712839"><ele>559.5</ele><time>2016-06-15T16:40:37Z</time></trkpt>
<trkpt lat="47.0103283" lon="7.4713635"><ele>559.4</ele><time>2016-06-15T16:40:38Z</time></trkpt>
<trkpt lat="47.0103571" lon="7.4713784"><ele>559.3</ele><time>2016-06-15T16:40:39Z</time></trkpt>
<trkpt lat="47.0103901" lon="7.4715339"><ele>559.1</ele><time>2016-06-15T16:40:41Z</time></trkpt>
<trkpt lat="47.0105896" lon="7.4718490"><ele>558.8</ele><time>2016-06-15T16:40:45Z</time></trkpt>
<trkpt lat="47.0105829" lon="7.4719641"><ele>558.7</ele><time>2016-06-15T16:40:46Z</time></trkpt>
<trkpt lat="47.0107306" lon="7.4722244"><ele>557.9</ele><time>2016-06-15T16:40:50Z</time></trkpt>
<trkpt lat="47.0107534" lon="7.4723952"><ele>557.4</ele><time>2016-06-15T16:40:52Z</time></trkpt>
<trkpt lat="47.0108241" lon="7.4725565"><ele>556.7</ele><time>2016-06-15T16:40:55Z</time></trkpt>
<trkpt lat="47.0109067" lon="7.4726471"><ele>556.5</ele><time>2016-06-15T16:40:56Z</time></trkpt>
<trkpt lat="47.0109260" lon="7.4727342"><ele>556.2</ele><time>2016-06-15T16:40:57Z</time></trkpt>
<trkpt lat="47.0109982" lon="7.4728482"><ele>556.0</ele><time>2016-06-15T16:40:58Z</time></trkpt>
<trkpt lat="47.0110042" lon="7.4729140"><ele>555.7</ele><time>2016-06-15T16:40:59Z</time></trkpt>
<trkpt lat="47.0111560" lon="7.4729305"><ele>555.5</ele><time>2016-06-15T16:41:00Z</time></trkpt>
<trkpt lat="47.0114501" lon="7.4734669"><ele>553.5</ele><time>2016-06-15T16:41:05Z</time></trkpt>
<trkpt lat="47.0117802" lon="7.4740287"><ele>549.4</ele><time>2016-06-15T16:41:09Z</time></trkpt>
<trkpt lat="47.0120885" lon="7.4745157"><ele>546.2</ele><time>2016-06-15T16:41:13Z</time></trkpt>
<trkpt lat="47.0122105" lon="7.4746410"><ele>544.7</ele><time>2016-06-15T16:41:15Z</time></trkpt>
<trkpt lat="47.0122587" lon="7.4749908"><ele>544.1</ele><time>2016-06-15T16:41:18Z</time></trkpt>
<trkpt lat="47.0125470" lon="7.4751211"><ele>543.9</ele><time>2016-06-15T16:41:19Z</time></trkpt>
<trkpt lat="47.0126107" lon="7.4751231"><ele>543.4</ele><time>2016-06-15T16:41:21Z</time></trkpt>
<trkpt lat="47.0126340" lon="7.4751804"><ele>543.2</ele><time>2016-06-15T16:41:22Z</time></trkpt>
<trkpt lat="47.0127488" lon="7.4752451"><ele>543.0</ele><time>2016-06-15T16:41:23Z</time></trkpt>
<trkpt lat="47.0129095" lon="7.4758631"><ele>541.9</ele><time>2016-06-15T16:41:29Z</time></trkpt>
<trkpt lat="47.0131668" lon="7.4764032"><ele>540.8</ele><time>2016-06-15T16:41:36Z</time></trkpt>
<trkpt lat="47.0134486" lon="7.4769187"><ele>539.9</ele><time>2016-06-15T16:41:42Z</time></trkpt>
<trkpt lat="47.0137711" lon="7.4775127"><ele>539.0</ele><time>2016-06-15T16:41:49Z</time></trkpt>
<trkpt lat="47.0138473" lon="7.4776570"><ele>538.9</ele><time>2016-06-15T16:41:51Z</time></trkpt>
<trkpt lat="47.0138672" lon="7.4776528"><ele>538.9</ele><time>2016-06-15T16:41:52Z</time></trkpt>
<trkpt lat="47.0138449" lon="7.4776493"><ele>538.9</ele><time>2016-06-15T16:41:53Z</time></trkpt>
<trkpt lat="47.0140941" lon="7.4781917"><ele>538.8</ele><time>2016-06-15T16:41:57Z</time></trkpt>
<trkpt lat="47.0144408" lon="7.4786536"><ele>538.6</ele><time>2016-06-15T16:42:01Z</time></trkpt>
<trkpt lat="47.0144995" lon="7.4787404"><ele>538.5</ele><time>2016-06-15T16:42:02Z</time></trkpt>
<trkpt lat="47.0144646" lon="7.4786101"><ele>538.4</ele><time>2016-06-15T16:42:03Z</time></trkpt>
<trkpt lat="47.0147422" lon="7.4792337"><ele>538.1</ele><time>2016-06-15T16:42:06Z</time></trkpt>
<trkpt lat="47.0147078" lon="7.4790942"><ele>538.0</ele><time>2016-06-15T16:42:07Z</time></trkpt>
<trkpt lat="47.0143979" lon="7.4792626"><ele>537.9</ele><time>2016-06-15T16:42:08Z</time></trkpt>
<trkpt lat="47.0145910" lon="7.4796749"><ele>537.3</ele><time>2016-06-15T16:42:13Z</time></trkpt>
<trkpt lat="47.0149466" lon="7.4802305"><ele>536.1</ele><time>2016-06-15T16:42:20Z</time></trkpt>
<trkpt lat="47.0151150" lon="7.4804117"><ele>535.3</ele><time>2016-06-15T16:42:23Z</time></trkpt>
<trkpt lat="47.0151627" lon="7.4805296"><ele>535.2</ele><time>2016-06-15T16:42:24Z</time></trkpt>
<trkpt lat="47.0152445" lon="7.4805739"><ele>535.0</ele><time>2016-06-15T16:42:25Z</time></trkpt>
<trkpt lat="47.0154066" lon="7.4808235"><ele>534.5</ele><time>2016-06-15T16:42:28Z</time></trkpt>
<trkpt lat="47.0156630" lon="7.4807686"><ele>534.4</ele><time>2016-06-15T16:42:29Z</time></trkpt>
<trkpt lat="47.0159039" lon="7.4813434"><ele>533.3</ele><time>2016-06-15T16:42:37Z</time></trkpt>
<trkpt lat="47.0161755" lon="7.4818777"><ele>532.5</ele><time>2016-06-15T16:42:44Z</time></trkpt>
<trkpt lat="47.0163112" lon="7.4821679"><ele>531.8</ele><time>2016-06-15T16:42:50Z</time></trkpt>
<trkpt lat="47.0162696" lon="7.4822131"><ele>531.5</ele><time>2016-06-15T16:42:55Z</time></trkpt>
<trkpt lat="47.0165181" lon="7.4828050"><ele>530.8</ele><time>2016-06-15T16:43:02Z</time></trkpt>
<trkpt lat="47.0166668" lon="7.4834478"><ele>529.9</ele><time>2016-06-15T16:43:10Z</time></trkpt>
<trkpt lat="47.0168109" lon="7.4841478"><ele>529.1</ele><time>2016-06-15T16:43:18Z</time></trkpt>
<trkpt lat="47.0169652" lon="7.4846706"><ele>528.5</ele><time>2016-06-15T16:43:24Z</time></trkpt>
<trkpt lat="47.0170791" lon="7.4853170"><ele>528.6</ele><time>2016-06-15T16:43:31Z</time></trkpt>
<trkpt lat="47.0171601" lon="7.4859685"><ele>528.8</ele><time>2016-06-15T16:43:37Z</time></trkpt>
<trkpt lat="47.0173290" lon="7.4867130"><ele>529.0</ele><time>2016-06-15T16:43:42Z</time></trkpt>
<trkpt lat="47.0174649" lon="7.4873746"><ele>529.2</ele><time>2016-06-15T16:43:47Z</time></trkpt>
<trkpt lat="47.0171577" lon="7.4873420"><ele>529.3</ele><time>2016-06-15T16:43:49Z</time></trkpt>
<trkpt lat="47.0171911" lon="7.4875624"><ele>528.5</ele><time>2016-06-15T16:43:51Z</time></trkpt>
<trkpt lat="47.0170845" lon="7.4878176"><ele>527.2</ele><time>2016-06-15T16:43:55Z</time></trkpt>
<trkpt lat="47.0166090" lon="7.4880142"><ele>526.8</ele><time>2016-06-15T16:44:02Z</time></trkpt>
<trkpt lat="47.0166353" lon="7.4880006"><ele>526.8</ele><time>2016-06-15T16:44:03Z</time></trkpt>
<trkpt lat="47.0164183" lon="7.4881213"><ele>526.7</ele><time>2016-06-15T16:44:05Z</time></trkpt>
<trkpt lat="47.0164063" lon="7.4880970"><ele>526.6</ele><time>2016-06-15T16:44:06Z</time></trkpt>
<trkpt lat="47.0164504" lon="7.4880670"><ele>526.0</ele><time>2016-06-15T16:44:10Z</time></trkpt>
<trkpt lat="47.0160182" lon="7.4883579"><ele>524.8</ele><time>2016-06-15T16:44:22Z</time></trkpt>
<trkpt lat="47.0159378" lon="7.4884613"><ele>524.9</ele><time>2016-06-15T16:44:25Z</time></trkpt>
<trkpt lat="47.0157027" lon="7.4890392"><ele>525.4</ele><time>2016-06-15T16:44:34Z</time></trkpt>
<trkpt lat="47.0153571" lon="7.4895389"><ele>526.0</ele><time>2016-06-15T16:44:45Z</time></trkpt>
<trkpt lat="47.0152034" lon="7.4897325"><ele>526.3</ele><time>2016-06-15T16:44:50Z</time></trkpt>
<trkpt lat="47.0151241" lon="7.4897578"><ele>526.4</ele><time>2016-06-15T16:44:52Z</time></trkpt>
<trkpt lat="47.0147881" lon="7.4902278"><ele>527.0</ele><time>2016-06-15T16:45:03Z</time></trkpt>
<trkpt lat="47.0144234" lon="7.4906219"><ele>527.6</ele><time>2016-06-15T16:45:15Z</time></trkpt>
<trkpt lat="47.0143929" lon="7.4906560"><ele>527.7</ele><time>2016-06-15T16:45:16Z</time></trkpt>
<trkpt lat="47.0143905" lon="7.4907365"><ele>527.7</ele><time>2016-06-15T16:45:17Z</time></trkpt>
<trkpt lat="47.0141435" lon="7.4910899"><ele>528.2</ele><time>2016-06-15T16:45:25Z</time></trkpt>
<trkpt lat="47.0141198" lon="7.4911867"><ele>528.3</ele><time>2016-06-15T16:45:26Z</time></trkpt>
<trkpt lat="47.0139653" lon="7.4913112"><ele>528.7</ele><time>2016-06-15T16:45:30Z</time></trkpt>
<trkpt lat="47.0138890" lon="7.4914168"><ele>528.9</ele><time>2016-06-15T16:45:32Z</time></trkpt>
<trkpt lat="47.0137432" lon="7.4917232"><ele>529.7</ele><time>2016-06-15T16:45:39Z</time></trkpt>
<trkpt lat="47.0137532" lon="7.4918324"><ele>529.8</ele><time>2016-06-15T16:45:40Z</time></trkpt>
<trkpt lat="47.0137133" lon="7.4920987"><ele>530.1</ele><time>2016-06-15T16:45:43Z</time></trkpt>
<trkpt lat="47.0138759" lon="7.4927261"><ele>529.4</ele><time>2016-06-15T16:46:02Z</time></trkpt>
<trkpt lat="47.0140265" lon="7.4930649"><ele>528.9</ele><time>2016-06-15T16:46:07Z</time></trkpt>
<trkpt lat="47.0141406" lon="7.4930454"><ele>528.8</ele><time>2016-06-15T16:46:09Z</time></trkpt>
<trkpt lat="47.0142113" lon="7.4932078"><ele>528.4</ele><time>2016-06-15T16:46:12Z</time></trkpt>
<trkpt lat="47.0142079" lon="7.4932794"><ele>528.3</ele><time>2016-06-15T16:46:13Z</time></trkpt>
<trkpt lat="47.0142547" lon="7.4933251"><ele>528.2</ele><time>2016-06-15T16:46:14Z</time></trkpt>
<trkpt lat="47.0142501" lon="7.4935855"><ele>527.8</ele><time>2016-06-15T16:46:17Z</time></trkpt>
<trkpt lat="47.0141829" lon="7.4937498"><ele>527.5</ele><time>2016-06-15T16:46:19Z</time></trkpt>
<trkpt lat="47.0139425" lon="7.4940759"><ele>526.9</ele><time>2016-06-15T16:46:24Z</time></trkpt>
<trkpt lat="47.0139057" lon="7.4940877"><ele>526.6</ele><time>2016-06-15T16:46:26Z</time></trkpt>
<trkpt lat="47.0138893" lon="7.4944747"><ele>527.5</ele><time>2016-06-15T16:46:33Z</time></trkpt>
<trkpt lat="47.0138077" lon="7.4945221"><ele>527.7</ele><time>2016-06-15T16:46:35Z</time></trkpt>
<trkpt lat="47.0136710" lon="7.4949648"><ele>528.5</ele><time>2016-06-15T16:46:44Z</time></trkpt>
<trkpt lat="47.0136540" lon="7.4952208"><ele>527.8</ele><time>2016-06-15T16:46:49Z</time></trkpt>
<trkpt lat="47.0134829" lon="7.4953149"><ele>529.4</ele><time>2016-06-15T16:46:54Z</time></trkpt>
<trkpt lat="47.0134432" lon="7.4955448"><ele>530.4</ele><time>2016-06-15T16:46:58Z</time></trkpt>
<trkpt lat="47.0131010" lon="7.4957520"><ele>532.8</ele><time>2016-06-15T16:47:08Z</time></trkpt>
<trkpt lat="47.0128785" lon="7.4960378"><ele>534.5</ele><time>2016-06-15T16:47:17Z</time></trkpt>
<trkpt lat="47.0124268" lon="7.4962083"><ele>534.5</ele><time>2016-06-15T16:47:30Z</time></trkpt>
<trkpt lat="47.0119516" lon="7.4963321"><ele>534.6</ele><time>2016-06-15T16:47:44Z</time></trkpt>
<trkpt lat="47.0114690" lon="7.4963622"><ele>534.6</ele><time>2016-06-15T16:47:57Z</time></trkpt>
<trkpt lat="47.0107406" lon="7.4966244"><ele>536.7</ele><time>2016-06-15T16:48:19Z</time></trkpt>
</trkseg>
<trkseg>
<trkpt lat="47.0107406" lon="7.4966244"><ele>536.7</ele><time>2016-06-15T16:49:58Z</time></trkpt>
<trkpt lat="47.0104793" lon="7.4968320"><ele>538.7</ele><time>2016-06-15T16:49:58Z</time></trkpt>
<trkpt lat="47.0103646" lon="7.4974947"><ele>535.9</ele><time>2016-06-15T16:50:11Z</time></trkpt>
<trkpt lat="47.0102968" lon="7.4981800"><ele>535.4</ele><time>2016-06-15T16:50:21Z</time></trkpt>
<trkpt lat="47.0101496" lon="7.4994547"><ele>535.2</ele><time>2016-06-15T16:50:40Z</time></trkpt>
</trkseg>
<trkseg>
<trkpt lat="47.0101496" lon="7.4994547"><ele>535.2</ele><time>2016-06-15T17:02:22Z</time></trkpt>
<trkpt lat="47.0100079" lon="7.5000530"><ele>533.1</ele><time>2016-06-15T17:02:22Z</time></trkpt>
<trkpt lat="47.0099928" lon="7.5001038"><ele>533.1</ele><time>2016-06-15T17:02:23Z</time></trkpt>
<trkpt lat="47.0098714" lon="7.5002287"><ele>533.0</ele><time>2016-06-15T17:02:31Z</time></trkpt>
<trkpt lat="47.0098626" lon="7.5003978"><ele>533.0</ele><time>2016-06-15T17:02:35Z</time></trkpt>
<trkpt lat="47.0101253" lon="7.5009482"><ele>533.0</ele><time>2016-06-15T17:02:44Z</time></trkpt>
<trkpt lat="47.0104493" lon="7.5014792"><ele>533.0</ele><time>2016-06-15T17:02:55Z</time></trkpt>
<trkpt lat="47.0107434" lon="7.5020214"><ele>533.2</ele><time>2016-06-15T17:03:06Z</time></trkpt>
<trkpt lat="47.0110303" lon="7.5025593"><ele>532.4</ele><time>2016-06-15T17:03:18Z</time></trkpt>
<trkpt lat="47.0113284" lon="7.5031255"><ele>536.2</ele><time>2016-06-15T17:03:30Z</time></trkpt>
<trkpt lat="47.0116346" lon="7.5036491"><ele>537.2</ele><time>2016-06-15T17:03:43Z</time></trkpt>
<trkpt lat="47.0117129" lon="7.5037608"><ele>538.4</ele><time>2016-06-15T17:03:46Z</time></trkpt>
<trkpt lat="47.0119612" lon="7.5039945"><ele>540.6</ele><time>2016-06-15T17:03:55Z</time></trkpt>
<trkpt lat="47.0123003" lon="7.5044442"><ele>543.7</ele><time>2016-06-15T17:04:13Z</time></trkpt>
<trkpt lat="47.0124369" lon="7.5046217"><ele>545.0</ele><time>2016-06-15T17:04:25Z</time></trkpt>
<trkpt lat="47.0127909" lon="7.5051025"><ele>545.5</ele><time>2016-06-15T17:04:47Z</time></trkpt>
<trkpt lat="47.0131946" lon="7.5054180"><ele>546.8</ele><time>2016-06-15T17:05:06Z</time></trkpt>
<trkpt lat="47.0136276" lon="7.5056978"><ele>547.9</ele><time>2016-06-15T17:05:26Z</time></trkpt>
<trkpt lat="47.0139980" lon="7.5060845"><ele>548.6</ele><time>2016-06-15T17:05:44Z</time></trkpt>
<trkpt lat="47.0143571" lon="7.5065203"><ele>549.3</ele><time>2016-06-15T17:06:02Z</time></trkpt>
<trkpt lat="47.0146216" lon="7.5070823"><ele>550.2</ele><time>2016-06-15T17:06:22Z</time></trkpt>
<trkpt lat="47.0148121" lon="7.5073460"><ele>550.6</ele><time>2016-06-15T17:06:34Z</time></trkpt>
<trkpt lat="47.0148634" lon="7.5080048"><ele>549.5</ele><time>2016-06-15T17:07:01Z</time></trkpt>
<trkpt lat="47.0149760" lon="7.5084612"><ele>545.6</ele><time>2016-06-15T17:07:12Z</time></trkpt>
<trkpt lat="47.0152433" lon="7.5090531"><ele>541.4</ele><time>2016-06-15T17:07:19Z</time></trkpt>
<trkpt lat="47.0154665" lon="7.5094660"><ele>540.0</ele><time>2016-06-15T17:07:24Z</time></trkpt>
<trkpt lat="47.0156122" lon="7.5098366"><ele>538.9</ele><time>2016-06-15T17:07:29Z</time></trkpt>
<trkpt lat="47.0156194" lon="7.5099922"><ele>539.1</ele><time>2016-06-15T17:07:31Z</time></trkpt>
<trkpt lat="47.0157378" lon="7.5102438"><ele>539.3</ele><time>2016-06-15T17:07:35Z</time></trkpt>
<trkpt lat="47.0157799" lon="7.5102878"><ele>539.3</ele><time>2016-06-15T17:07:36Z</time></trkpt>
<trkpt lat="47.0158430" lon="7.5104804"><ele>539.4</ele><time>2016-06-15T17:07:38Z</time></trkpt>
<trkpt lat="47.0158716" lon="7.5104489"><ele>539.4</ele><time>2016-06-15T17:07:39Z</time></trkpt>
<trkpt lat="47.0158994" lon="7.5105015"><ele>539.4</ele><time>2016-06-15T17:07:40Z</time></trkpt>
<trkpt lat="47.0159014" lon="7.5105746"><ele>539.4</ele><time>2016-06-15T17:07:43Z</time></trkpt>
<trkpt lat="47.0159931" lon="7.5107156"><ele>539.5</ele><time>2016-06-15T17:07:47Z</time></trkpt>
<trkpt lat="47.0162663" lon="7.5111088"><ele>539.6</ele><time>2016-06-15T17:07:55Z</time></trkpt>
<trkpt lat="47.0164126" lon="7.5114743"><ele>539.7</ele><time>2016-06-15T17:08:00Z</time></trkpt>
<trkpt lat="47.0163916" lon="7.5115198"><ele>539.7</ele><time>2016-06-15T17:08:01Z</time></trkpt>
<trkpt lat="47.0165451" lon="7.5119042"><ele>539.7</ele><time>2016-06-15T17:08:04Z</time></trkpt>
<trkpt lat="47.0165424" lon="7.5119447"><ele>539.8</ele><time>2016-06-15T17:08:09Z</time></trkpt>
<trkpt lat="47.0166890" lon="7.5121627"><ele>539.8</ele><time>2016-06-15T17:08:13Z</time></trkpt>
<trkpt lat="47.0170542" lon="7.5125499"><ele>540.0</ele><time>2016-06-15T17:08:26Z</time></trkpt>
<trkpt lat="47.0180110" lon="7.5131835"><ele>543.6</ele><time>2016-06-15T17:08:55Z</time></trkpt>
</trkseg>
<trkseg>
<trkpt lat="47.0180110" lon="7.5131835"><ele>543.6</ele><time>2016-06-15T17:09:23Z</time></trkpt>
<trkpt lat="47.0185686" lon="7.5134885"><ele>547.1</ele><time>2016-06-15T17:09:32Z</time></trkpt>
<trkpt lat="47.0186279" lon="7.5135437"><ele>546.3</ele><time>2016-06-15T17:09:37Z</time></trkpt>
<trkpt lat="47.0190599" lon="7.5133280"><ele>542.6</ele><time>2016-06-15T17:09:49Z</time></trkpt>
<trkpt lat="47.0191563" lon="7.5133404"><ele>541.8</ele><time>2016-06-15T17:09:52Z</time></trkpt>
<trkpt lat="47.0192959" lon="7.5139829"><ele>539.7</ele><time>2016-06-15T17:10:06Z</time></trkpt>
<trkpt lat="47.0193750" lon="7.5146645"><ele>539.6</ele><time>2016-06-15T17:10:20Z</time></trkpt>
<trkpt lat="47.0194157" lon="7.5153700"><ele>539.7</ele><time>2016-06-15T17:10:32Z</time></trkpt>
<trkpt lat="47.0195042" lon="7.5160596"><ele>539.7</ele><time>2016-06-15T17:10:42Z</time></trkpt>
<trkpt lat="47.0195375" lon="7.5162450"><ele>539.7</ele><time>2016-06-15T17:10:45Z</time></trkpt>
<trkpt lat="47.0195795" lon="7.5163475"><ele>539.4</ele><time>2016-06-15T17:10:46Z</time></trkpt>
<trkpt lat="47.0195657" lon="7.5166074"><ele>538.1</ele><time>2016-06-15T17:10:50Z</time></trkpt>
<trkpt lat="47.0196339" lon="7.5169098"><ele>537.8</ele><time>2016-06-15T17:10:54Z</time></trkpt>
<trkpt lat="47.0196119" lon="7.5170279"><ele>537.6</ele><time>2016-06-15T17:10:56Z</time></trkpt>
<trkpt lat="47.0196501" lon="7.5171659"><ele>537.5</ele><time>2016-06-15T17:10:58Z</time></trkpt>
<trkpt lat="47.0196373" lon="7.5173254"><ele>537.5</ele><time>2016-06-15T17:11:01Z</time></trkpt>
<trkpt lat="47.0196991" lon="7.5178440"><ele>538.2</ele><time>2016-06-15T17:11:11Z</time></trkpt>
<trkpt lat="47.0198070" lon="7.5184079"><ele>538.7</ele><time>2016-06-15T17:11:19Z</time></trkpt>
<trkpt lat="47.0199167" lon="7.5187637"><ele>538.9</ele><time>2016-06-15T17:11:25Z</time></trkpt>
<trkpt lat="47.0200367" lon="7.5191213"><ele>537.9</ele><time>2016-06-15T17:11:30Z</time></trkpt>
<trkpt lat="47.0201540" lon="7.5193760"><ele>537.6</ele><time>2016-06-15T17:11:34Z</time></trkpt>
<trkpt lat="47.0202295" lon="7.5199351"><ele>536.9</ele><time>2016-06-15T17:11:43Z</time></trkpt>
<trkpt lat="47.0203651" lon="7.5204548"><ele>536.3</ele><time>2016-06-15T17:11:50Z</time></trkpt>
<trkpt lat="47.0204972" lon="7.5207521"><ele>536.0</ele><time>2016-06-15T17:11:54Z</time></trkpt>
<trkpt lat="47.0206700" lon="7.5214205"><ele>535.1</ele><time>2016-06-15T17:12:05Z</time></trkpt>
<trkpt lat="47.0208822" lon="7.5220286"><ele>535.9</ele><time>2016-06-15T17:12:14Z</time></trkpt>
<trkpt lat="47.0209564" lon="7.5222648"><ele>536.4</ele><time>2016-06-15T17:12:17Z</time></trkpt>
<trkpt lat="47.0212035" lon="7.5227563"><ele>535.7</ele><time>2016-06-15T17:12:24Z</time></trkpt>
<trkpt lat="47.0212409" lon="7.5227902"><ele>535.3</ele><time>2016-06-15T17:12:25Z</time></trkpt>
<trkpt lat="47.0211014" lon="7.5231772"><ele>536.1</ele><time>2016-06-15T17:12:31Z</time></trkpt>
<trkpt lat="47.0208438" lon="7.5235913"><ele>537.1</ele><time>2016-06-15T17:12:40Z</time></trkpt>
<trkpt lat="47.0207409" lon="7.5236462"><ele>537.3</ele><time>2016-06-15T17:12:41Z</time></trkpt>
<trkpt lat="47.0204042" lon="7.5237426"><ele>539.4</ele><time>2016-06-15T17:12:55Z</time></trkpt>
<trkpt lat="47.0202059" lon="7.5238476"><ele>541.3</ele><time>2016-06-15T17:13:02Z</time></trkpt>
<trkpt lat="47.0200129" lon="7.5238586"><ele>541.8</ele><time>2016-06-15T17:13:10Z</time></trkpt>
<trkpt lat="47.0196426" lon="7.5242544"><ele>542.2</ele><time>2016-06-15T17:13:26Z</time></trkpt>
<trkpt lat="47.0194446" lon="7.5244052"><ele>542.6</ele><time>2016-06-15T17:13:35Z</time></trkpt>
<trkpt lat="47.0194665" lon="7.5250650"><ele>543.1</ele><time>2016-06-15T17:13:47Z</time></trkpt>
<trkpt lat="47.0196260" lon="7.5256812"><ele>543.6</ele><time>2016-06-15T17:14:00Z</time></trkpt>
<trkpt lat="47.0196811" lon="7.5259959"><ele>543.8</ele><time>2016-06-15T17:14:04Z</time></trkpt>
<trkpt lat="47.0196727" lon="7.5260424"><ele>543.8</ele><time>2016-06-15T17:14:05Z</time></trkpt>
<trkpt lat="47.0197326" lon="7.5262078"><ele>543.9</ele><time>2016-06-15T17:14:07Z</time></trkpt>
<trkpt lat="47.0197559" lon="7.5264597"><ele>544.1</ele><time>2016-06-15T17:14:11Z</time></trkpt>
<trkpt lat="47.0196075" lon="7.5268933"><ele>544.2</ele><time>2016-06-15T17:14:23Z</time></trkpt>
<trkpt lat="47.0197801" lon="7.5270456"><ele>542.7</ele><time>2016-06-15T17:14:33Z</time></trkpt>
<trkpt lat="47.0204249" lon="7.5266574"><ele>550.0</ele><time>2016-06-15T17:15:05Z</time></trkpt>
</trkseg>
<trkseg>
<trkpt lat="47.0204249" lon="7.5266574"><ele>550.0</ele><time>2016-06-15T17:15:27Z</time></trkpt>
<trkpt lat="47.0206409" lon="7.5265535"><ele>549.8</ele><time>2016-06-15T17:15:29Z</time></trkpt>
<trkpt lat="47.0207409" lon="7.5265328"><ele>549.2</ele><time>2016-06-15T17:15:32Z</time></trkpt>
<trkpt lat="47.0208214" lon="7.5265800"><ele>549.0</ele><time>2016-06-15T17:15:33Z</time></trkpt>
<trkpt lat="47.0211677" lon="7.5266133"><ele>547.7</ele><time>2016-06-15T17:15:38Z</time></trkpt>
<trkpt lat="47.0212446" lon="7.5265942"><ele>547.4</ele><time>2016-06-15T17:15:39Z</time></trkpt>
<trkpt lat="47.0216865" lon="7.5268030"><ele>546.5</ele><time>2016-06-15T17:15:45Z</time></trkpt>
<trkpt lat="47.0218886" lon="7.5271618"><ele>546.1</ele><time>2016-06-15T17:15:49Z</time></trkpt>
<trkpt lat="47.0219456" lon="7.5272182"><ele>545.9</ele><time>2016-06-15T17:15:50Z</time></trkpt>
<trkpt lat="47.0219890" lon="7.5273137"><ele>545.6</ele><time>2016-06-15T17:15:51Z</time></trkpt>
<trkpt lat="47.0220709" lon="7.5273664"><ele>545.4</ele><time>2016-06-15T17:15:52Z</time></trkpt>
<trkpt lat="47.0223576" lon="7.5279074"><ele>547.4</ele><time>2016-06-15T17:15:59Z</time></trkpt>
<trkpt lat="47.0224648" lon="7.5280565"><ele>547.4</ele><time>2016-06-15T17:16:01Z</time></trkpt>
<trkpt lat="47.0225682" lon="7.5281232"><ele>547.4</ele><time>2016-06-15T17:16:04Z</time></trkpt>
<trkpt lat="47.0225570" lon="7.5281374"><ele>547.5</ele><time>2016-06-15T17:16:06Z</time></trkpt>
<trkpt lat="47.0229001" lon="7.5285931"><ele>546.0</ele><time>2016-06-15T17:16:17Z</time></trkpt>
<trkpt lat="47.0233122" lon="7.5288886"><ele>547.6</ele><time>2016-06-15T17:16:29Z</time></trkpt>
<trkpt lat="47.0234332" lon="7.5289932"><ele>547.9</ele><time>2016-06-15T17:16:32Z</time></trkpt>
<trkpt lat="47.0238301" lon="7.5293143"><ele>549.2</ele><time>2016-06-15T17:16:44Z</time></trkpt>
<trkpt lat="47.0242168" lon="7.5297270"><ele>548.9</ele><time>2016-06-15T17:16:58Z</time></trkpt>
<trkpt lat="47.0243799" lon="7.5298713"><ele>548.5</ele><time>2016-06-15T17:17:02Z</time></trkpt>
<trkpt lat="47.0246452" lon="7.5300164"><ele>548.0</ele><time>2016-06-15T17:17:07Z</time></trkpt>
<trkpt lat="47.0247036" lon="7.5299971"><ele>547.9</ele><time>2016-06-15T17:17:08Z</time></trkpt>
<trkpt lat="47.0251629" lon="7.5299859"><ele>546.1</ele><time>2016-06-15T17:17:14Z</time></trkpt>
<trkpt lat="47.0253149" lon="7.5300899"><ele>545.3</ele><time>2016-06-15T17:17:16Z</time></trkpt>
<trkpt lat="47.0253882" lon="7.5301766"><ele>545.1</ele><time>2016-06-15T17:17:17Z</time></trkpt>
<trkpt lat="47.0255723" lon="7.5302913"><ele>544.9</ele><time>2016-06-15T17:17:19Z</time></trkpt>
<trkpt lat="47.0258215" lon="7.5306513"><ele>544.5</ele><time>2016-06-15T17:17:23Z</time></trkpt>
<trkpt lat="47.0258996" lon="7.5306556"><ele>544.4</ele><time>2016-06-15T17:17:24Z</time></trkpt>
<trkpt lat="47.0261416" lon="7.5309941"><ele>544.1</ele><time>2016-06-15T17:17:27Z</time></trkpt>
<trkpt lat="47.0262794" lon="7.5309952"><ele>544.0</ele><time>2016-06-15T17:17:29Z</time></trkpt>
<trkpt lat="47.0263288" lon="7.5310763"><ele>544.0</ele><time>2016-06-15T17:17:30Z</time></trkpt>
<trkpt lat="47.0263607" lon="7.5312387"><ele>544.0</ele><time>2016-06-15T17:17:31Z</time></trkpt>
<trkpt lat="47.0264331" lon="7.5312706"><ele>544.0</ele><time>2016-06-15T17:17:33Z</time></trkpt>
<trkpt lat="47.0267102" lon="7.5314825"><ele>544.0</ele><time>2016-06-15T17:17:39Z</time></trkpt>
<trkpt lat="47.0269533" lon="7.5315149"><ele>544.1</ele><time>2016-06-15T17:17:44Z</time></trkpt>
<trkpt lat="47.0270605" lon="7.5314053"><ele>544.1</ele><time>2016-06-15T17:17:47Z</time></trkpt>
<trkpt lat="47.0271433" lon="7.5311531"><ele>544.1</ele><time>2016-06-15T17:17:50Z</time></trkpt>
<trkpt lat="47.0272069" lon="7.5308533"><ele>544.1</ele><time>2016-06-15T17:17:54Z</time></trkpt>
<trkpt lat="47.0272558" lon="7.5308287"><ele>544.1</ele><time>2016-06-15T17:17:56Z</time></trkpt>
<trkpt lat="47.0273735" lon="7.5309298"><ele>544.0</ele><time>2016-06-15T17:17:59Z</time></trkpt>
<trkpt lat="47.0274003" lon="7.5311071"><ele>544.0</ele><time>2016-06-15T17:18:02Z</time></trkpt>
<trkpt lat="47.0274601" lon="7.5310843"><ele>544.0</ele><time>2016-06-15T17:18:03Z</time></trkpt>
<trkpt lat="47.0274422" lon="7.5311190"><ele>544.0</ele><time>2016-06-15T17:18:04Z</time></trkpt>
<trkpt lat="47.0277776" lon="7.5315748"><ele>543.8</ele><time>2016-06-15T17:18:16Z</time></trkpt>
<trkpt lat="47.0280983" lon="7.5320811"><ele>543.6</ele><time>2016-06-15T17:18:27Z</time></trkpt>
<trkpt lat="47.0282658" lon="7.5323426"><ele>543.5</ele><time>2016-06-15T17:18:34Z</time></trkpt>
<trkpt lat="47.0283630" lon="7.5324415"><ele>543.4</ele><time>2016-06-15T17:18:37Z</time></trkpt>
<trkpt lat="47.0285494" lon="7.5326995"><ele>543.3</ele><time>2016-06-15T17:18:44Z</time></trkpt>
<trkpt lat="47.0289447" lon="7.5331250"><ele>543.1</ele><time>2016-06-15T17:18:55Z</time></trkpt>
<trkpt lat="47.0291277" lon="7.5332528"><ele>543.1</ele><time>2016-06-15T17:18:59Z</time></trkpt>
<trkpt lat="47.0292535" lon="7.5334333"><ele>543.0</ele><time>2016-06-15T17:19:02Z</time></trkpt>
<trkpt lat="47.0296902" lon="7.5338230"><ele>542.9</ele><time>2016-06-15T17:19:10Z</time></trkpt>
<trkpt lat="47.0300439" lon="7.5341811"><ele>542.8</ele><time>2016-06-15T17:19:17Z</time></trkpt>
<trkpt lat="47.0301732" lon="7.5342539"><ele>542.7</ele><time>2016-06-15T17:19:19Z</time></trkpt>
<trkpt lat="47.0303454" lon="7.5344212"><ele>542.7</ele><time>2016-06-15T17:19:22Z</time></trkpt>
<trkpt lat="47.0307259" lon="7.5346716"><ele>542.4</ele><time>2016-06-15T17:19:28Z</time></trkpt>
<trkpt lat="47.0309436" lon="7.5349187"><ele>542.0</ele><time>2016-06-15T17:19:32Z</time></trkpt>
<trkpt lat="47.0311172" lon="7.5350204"><ele>541.7</ele><time>2016-06-15T17:19:35Z</time></trkpt>
<trkpt lat="47.0313222" lon="7.5350802"><ele>541.4</ele><time>2016-06-15T17:19:38Z</time></trkpt>
<trkpt lat="47.0314052" lon="7.5351950"><ele>541.2</ele><time>2016-06-15T17:19:40Z</time></trkpt>
<trkpt lat="47.0316150" lon="7.5352388"><ele>540.8</ele><time>2016-06-15T17:19:43Z</time></trkpt>
<trkpt lat="47.0320217" lon="7.5354843"><ele>540.1</ele><time>2016-06-15T17:19:50Z</time></trkpt>
<trkpt lat="47.0321731" lon="7.5354356"><ele>539.9</ele><time>2016-06-15T17:19:52Z</time></trkpt>
<trkpt lat="47.0322262" lon="7.5354960"><ele>539.8</ele><time>2016-06-15T17:19:53Z</time></trkpt>
<trkpt lat="47.0323691" lon="7.5355054"><ele>539.6</ele><time>2016-06-15T17:19:55Z</time></trkpt>
<trkpt lat="47.0325515" lon="7.5356138"><ele>539.3</ele><time>2016-06-15T17:19:58Z</time></trkpt>
<trkpt lat="47.0329647" lon="7.5360189"><ele>538.5</ele><time>2016-06-15T17:20:06Z</time></trkpt>
<trkpt lat="47.0330243" lon="7.5360527"><ele>538.4</ele><time>2016-06-15T17:20:07Z</time></trkpt>
<trkpt lat="47.0330678" lon="7.5361300"><ele>538.3</ele><time>2016-06-15T17:20:08Z</time></trkpt>
<trkpt lat="47.0333645" lon="7.5363040"><ele>537.8</ele><time>2016-06-15T17:20:12Z</time></trkpt>
<trkpt lat="47.0337267" lon="7.5366067"><ele>537.1</ele><time>2016-06-15T17:20:17Z</time></trkpt>
<trkpt lat="47.0337875" lon="7.5366261"><ele>536.8</ele><time>2016-06-15T17:20:18Z</time></trkpt>
<trkpt lat="47.0338956" lon="7.5367420"><ele>536.1</ele><time>2016-06-15T17:20:20Z</time></trkpt>
<trkpt lat="47.0339594" lon="7.5369238"><ele>535.5</ele><time>2016-06-15T17:20:22Z</time></trkpt>
<trkpt lat="47.0344050" lon="7.5372718"><ele>533.9</ele><time>2016-06-15T17:20:28Z</time></trkpt>
<trkpt lat="47.0345514" lon="7.5373408"><ele>533.5</ele><time>2016-06-15T17:20:30Z</time></trkpt>
<trkpt lat="47.0346854" lon="7.5373201"><ele>533.1</ele><time>2016-06-15T17:20:32Z</time></trkpt>
<trkpt lat="47.0351716" lon="7.5375783"><ele>531.7</ele><time>2016-06-15T17:20:39Z</time></trkpt>
<trkpt lat="47.0356686" lon="7.5377741"><ele>529.7</ele><time>2016-06-15T17:20:45Z</time></trkpt>
<trkpt lat="47.0357355" lon="7.5377832"><ele>529.6</ele><time>2016-06-15T17:20:46Z</time></trkpt>
<trkpt lat="47.0358381" lon="7.5377050"><ele>529.4</ele><time>2016-06-15T17:20:47Z</time></trkpt>
<trkpt lat="47.0360888" lon="7.5376630"><ele>529.1</ele><time>2016-06-15T17:20:50Z</time></trkpt>
<trkpt lat="47.0364830" lon="7.5378294"><ele>529.1</ele><time>2016-06-15T17:20:55Z</time></trkpt>
<trkpt lat="47.0365838" lon="7.5378040"><ele>529.1</ele><time>2016-06-15T17:20:56Z</time></trkpt>
<trkpt lat="47.0366504" lon="7.5378428"><ele>529.1</ele><time>2016-06-15T17:20:57Z</time></trkpt>
<trkpt lat="47.0367548" lon="7.5378229"><ele>529.1</ele><time>2016-06-15T17:20:58Z</time></trkpt>
<trkpt lat="47.0372464" lon="7.5378925"><ele>528.6</ele><time>2016-06-15T17:21:04Z</time></trkpt>
<trkpt lat="47.0374134" lon="7.5379081"><ele>528.2</ele><time>2016-06-15T17:21:07Z</time></trkpt>
<trkpt lat="47.0374584" lon="7.5379928"><ele>528.0</ele><time>2016-06-15T17:21:09Z</time></trkpt>
<trkpt lat="47.0375419" lon="7.5379181"><ele>527.7</ele><time>2016-06-15T17:21:11Z</time></trkpt>
<trkpt lat="47.0377143" lon="7.5379420"><ele>527.6</ele><time>2016-06-15T17:21:15Z</time></trkpt>
<trkpt lat="47.0378879" lon="7.5378979"><ele>527.5</ele><time>2016-06-15T17:21:18Z</time></trkpt>
<trkpt lat="47.0379918" lon="7.5379654"><ele>527.3</ele><time>2016-06-15T17:21:20Z</time></trkpt>
<trkpt lat="47.0381239" lon="7.5379576"><ele>527.1</ele><time>2016-06-15T17:21:22Z</time></trkpt>
<trkpt lat="47.0382408" lon="7.5379090"><ele>526.9</ele><time>2016-06-15T17:21:24Z</time></trkpt>
<trkpt lat="47.0385154" lon="7.5378244"><ele>526.6</ele><time>2016-06-15T17:21:28Z</time></trkpt>
<trkpt lat="47.0388619" lon="7.5379138"><ele>526.1</ele><time>2016-06-15T17:21:34Z</time></trkpt>
<trkpt lat="47.0389290" lon="7.5378859"><ele>526.0</ele><time>2016-06-15T17:21:35Z</time></trkpt>
<trkpt lat="47.0392255" lon="7.5378861"><ele>525.6</ele><time>2016-06-15T17:21:40Z</time></trkpt>
<trkpt lat="47.0392868" lon="7.5379467"><ele>525.4</ele><time>2016-06-15T17:21:42Z</time></trkpt>
<trkpt lat="47.0394908" lon="7.5379754"><ele>525.0</ele><time>2016-06-15T17:21:46Z</time></trkpt>
<trkpt lat="47.0395643" lon="7.5380387"><ele>524.9</ele><time>2016-06-15T17:21:48Z</time></trkpt>
<trkpt lat="47.0397187" lon="7.5380201"><ele>524.6</ele><time>2016-06-15T17:21:51Z</time></trkpt>
<trkpt lat="47.0397947" lon="7.5380861"><ele>524.5</ele><time>2016-06-15T17:21:52Z</time></trkpt>
<trkpt lat="47.0399276" lon="7.5380732"><ele>524.3</ele><time>2016-06-15T17:21:55Z</time></trkpt>
<trkpt lat="47.0399516" lon="7.5380956"><ele>524.2</ele><time>2016-06-15T17:21:56Z</time></trkpt>
<trkpt lat="47.0401280" lon="7.5380262"><ele>524.1</ele><time>2016-06-15T17:21:59Z</time></trkpt>
<trkpt lat="47.0402387" lon="7.5380377"><ele>524.3</ele><time>2016-06-15T17:22:01Z</time></trkpt>
<trkpt lat="47.0405044" lon="7.5381546"><ele>524.8</ele><time>2016-06-15T17:22:06Z</time></trkpt>
<trkpt lat="47.0406182" lon="7.5383100"><ele>525.1</ele><time>2016-06-15T17:22:09Z</time></trkpt>
<trkpt lat="47.0406454" lon="7.5385237"><ele>525.4</ele><time>2016-06-15T17:22:12Z</time></trkpt>
<trkpt lat="47.0407088" lon="7.5386405"><ele>525.6</ele><time>2016-06-15T17:22:14Z</time></trkpt>
<trkpt lat="47.0407742" lon="7.5389635"><ele>526.0</ele><time>2016-06-15T17:22:18Z</time></trkpt>
<trkpt lat="47.0408294" lon="7.5391498"><ele>526.3</ele><time>2016-06-15T17:22:21Z</time></trkpt>
<trkpt lat="47.0408745" lon="7.5395789"><ele>527.0</ele><time>2016-06-15T17:22:31Z</time></trkpt>
<trkpt lat="47.0412000" lon="7.5400707"><ele>528.5</ele><time>2016-06-15T17:22:43Z</time></trkpt>
<trkpt lat="47.0414222" lon="7.5402831"><ele>528.6</ele><time>2016-06-15T17:22:47Z</time></trkpt>
<trkpt lat="47.0417614" lon="7.5403886"><ele>527.7</ele><time>2016-06-15T17:22:54Z</time></trkpt>
<trkpt lat="47.0418054" lon="7.5404353"><ele>527.6</ele><time>2016-06-15T17:22:55Z</time></trkpt>
<trkpt lat="47.0418444" lon="7.5405516"><ele>527.5</ele><time>2016-06-15T17:22:56Z</time></trkpt>
<trkpt lat="47.0418967" lon="7.5405991"><ele>527.3</ele><time>2016-06-15T17:22:57Z</time></trkpt>
<trkpt lat="47.0419116" lon="7.5406521"><ele>527.2</ele><time>2016-06-15T17:22:58Z</time></trkpt>
<trkpt lat="47.0419653" lon="7.5406999"><ele>527.1</ele><time>2016-06-15T17:22:59Z</time></trkpt>
<trkpt lat="47.0422700" lon="7.5412679"><ele>525.8</ele><time>2016-06-15T17:23:08Z</time></trkpt>
<trkpt lat="47.0424605" lon="7.5413746"><ele>525.2</ele><time>2016-06-15T17:23:12Z</time></trkpt>
<trkpt lat="47.0425720" lon="7.5412556"><ele>524.9</ele><time>2016-06-15T17:23:14Z</time></trkpt>
<trkpt lat="47.0426156" lon="7.5410835"><ele>524.6</ele><time>2016-06-15T17:23:16Z</time></trkpt>
<trkpt lat="47.0429081" lon="7.5407866"><ele>524.5</ele><time>2016-06-15T17:23:21Z</time></trkpt>
<trkpt lat="47.0430163" lon="7.5405594"><ele>524.5</ele><time>2016-06-15T17:23:24Z</time></trkpt>
<trkpt lat="47.0432218" lon="7.5404758"><ele>524.5</ele><time>2016-06-15T17:23:27Z</time></trkpt>
<trkpt lat="47.0432908" lon="7.5404002"><ele>524.5</ele><time>2016-06-15T17:23:29Z</time></trkpt>
<trkpt lat="47.0433443" lon="7.5403958"><ele>524.4</ele><time>2016-06-15T17:23:30Z</time></trkpt>
<trkpt lat="47.0433517" lon="7.5404390"><ele>524.4</ele><time>2016-06-15T17:23:31Z</time></trkpt>
<trkpt lat="47.0433967" lon="7.5404388"><ele>524.4</ele><time>2016-06-15T17:23:32Z</time></trkpt>
<trkpt lat="47.0434337" lon="7.5403868"><ele>524.4</ele><time>2016-06-15T17:23:33Z</time></trkpt>
<trkpt lat="47.0440687" lon="7.5402492"><ele>524.3</ele><time>2016-06-15T17:24:16Z</time></trkpt>
</trkseg>
<trkseg>
<trkpt lat="47.0440687" lon="7.5402492"><ele>524.3</ele><time>2016-06-15T17:24:54Z</time></trkpt>
<trkpt lat="47.0442668" lon="7.5404276"><ele>524.6</ele><time>2016-06-15T17:25:16Z</time></trkpt>
<trkpt lat="47.0446875" lon="7.5406909"><ele>525.6</ele><time>2016-06-15T17:25:26Z</time></trkpt>
<trkpt lat="47.0447681" lon="7.5406531"><ele>525.7</ele><time>2016-06-15T17:25:27Z</time></trkpt>
<trkpt lat="47.0448660" lon="7.5406541"><ele>525.9</ele><time>2016-06-15T17:25:29Z</time></trkpt>
<trkpt lat="47.0450516" lon="7.5405459"><ele>526.2</ele><time>2016-06-15T17:25:32Z</time></trkpt>
<trkpt lat="47.0451273" lon="7.5404503"><ele>526.3</ele><time>2016-06-15T17:25:33Z</time></trkpt>
<trkpt lat="47.0455077" lon="7.5402498"><ele>521.1</ele><time>2016-06-15T17:25:41Z</time></trkpt>
<trkpt lat="47.0457448" lon="7.5396536"><ele>519.6</ele><time>2016-06-15T17:25:53Z</time></trkpt>
<trkpt lat="47.0457501" lon="7.5394914"><ele>519.7</ele><time>2016-06-15T17:25:55Z</time></trkpt>
<trkpt lat="47.0458087" lon="7.5394401"><ele>520.1</ele><time>2016-06-15T17:25:56Z</time></trkpt>
<trkpt lat="47.0458919" lon="7.5392222"><ele>521.0</ele><time>2016-06-15T17:25:59Z</time></trkpt>
<trkpt lat="47.0458872" lon="7.5390823"><ele>521.3</ele><time>2016-06-15T17:26:01Z</time></trkpt>
<trkpt lat="47.0459626" lon="7.5389296"><ele>521.2</ele><time>2016-06-15T17:26:03Z</time></trkpt>
<trkpt lat="47.0460279" lon="7.5385709"><ele>521.1</ele><time>2016-06-15T17:26:08Z</time></trkpt>
<trkpt lat="47.0460594" lon="7.5385100"><ele>521.1</ele><time>2016-06-15T17:26:09Z</time></trkpt>
<trkpt lat="47.0460883" lon="7.5385193"><ele>521.1</ele><time>2016-06-15T17:26:10Z</time></trkpt>
<trkpt lat="47.0461724" lon="7.5382522"><ele>520.4</ele><time>2016-06-15T17:26:13Z</time></trkpt>
<trkpt lat="47.0462187" lon="7.5379637"><ele>519.2</ele><time>2016-06-15T17:26:15Z</time></trkpt>
<trkpt lat="47.0462938" lon="7.5378899"><ele>517.9</ele><time>2016-06-15T17:26:17Z</time></trkpt>
<trkpt lat="47.0464251" lon="7.5375117"><ele>517.4</ele><time>2016-06-15T17:26:21Z</time></trkpt>
<trkpt lat="47.0464400" lon="7.5371749"><ele>517.6</ele><time>2016-06-15T17:26:24Z</time></trkpt>
<trkpt lat="47.0465362" lon="7.5369909"><ele>517.7</ele><time>2016-06-15T17:26:26Z</time></trkpt>
<trkpt lat="47.0467379" lon="7.5363985"><ele>516.1</ele><time>2016-06-15T17:26:31Z</time></trkpt>
<trkpt lat="47.0467647" lon="7.5362744"><ele>515.5</ele><time>2016-06-15T17:26:32Z</time></trkpt>
<trkpt lat="47.0468368" lon="7.5362046"><ele>514.9</ele><time>2016-06-15T17:26:33Z</time></trkpt>
<trkpt lat="47.0469155" lon="7.5359825"><ele>514.3</ele><time>2016-06-15T17:26:35Z</time></trkpt>
<trkpt lat="47.0469718" lon="7.5357284"><ele>514.2</ele><time>2016-06-15T17:26:37Z</time></trkpt>
<trkpt lat="47.0470095" lon="7.5352893"><ele>513.9</ele><time>2016-06-15T17:26:41Z</time></trkpt>
<trkpt lat="47.0471327" lon="7.5345747"><ele>514.9</ele><time>2016-06-15T17:26:49Z</time></trkpt>
<trkpt lat="47.0471294" lon="7.5343668"><ele>515.4</ele><time>2016-06-15T17:26:52Z</time></trkpt>
<trkpt lat="47.0470937" lon="7.5341912"><ele>515.5</ele><time>2016-06-15T17:26:54Z</time></trkpt>
<trkpt lat="47.0471240" lon="7.5342242"><ele>515.5</ele><time>2016-06-15T17:26:55Z</time></trkpt>
<trkpt lat="47.0470978" lon="7.5341615"><ele>515.6</ele><time>2016-06-15T17:26:56Z</time></trkpt>
<trkpt lat="47.0469885" lon="7.5335050"><ele>517.4</ele><time>2016-06-15T17:27:06Z</time></trkpt>
<trkpt lat="47.0469704" lon="7.5333934"><ele>518.2</ele><time>2016-06-15T17:27:08Z</time></trkpt>
<trkpt lat="47.0469841" lon="7.5333690"><ele>518.7</ele><time>2016-06-15T17:27:09Z</time></trkpt>
<trkpt lat="47.0468219" lon="7.5327088"><ele>521.7</ele><time>2016-06-15T17:27:26Z</time></trkpt>
<trkpt lat="47.0466778" lon="7.5320826"><ele>522.2</ele><time>2016-06-15T17:27:38Z</time></trkpt>
<trkpt lat="47.0466610" lon="7.5316731"><ele>521.0</ele><time>2016-06-15T17:27:44Z</time></trkpt>
<trkpt lat="47.0468218" lon="7.5305888"><ele>518.3</ele><time>2016-06-15T17:27:58Z</time></trkpt>
<trkpt lat="47.0467898" lon="7.5297599"><ele>517.7</ele><time>2016-06-15T17:28:01Z</time></trkpt>
<trkpt lat="47.0467511" lon="7.5294272"><ele>516.5</ele><time>2016-06-15T17:28:07Z</time></trkpt>
<trkpt lat="47.0465142" lon="7.5288876"><ele>516.1</ele><time>2016-06-15T17:28:09Z</time></trkpt>
<trkpt lat="47.0465636" lon="7.5288218"><ele>515.9</ele><time>2016-06-15T17:28:10Z</time></trkpt>
<trkpt lat="47.0465500" lon="7.5286707"><ele>515.8</ele><time>2016-06-15T17:28:11Z</time></trkpt>
<trkpt lat="47.0466398" lon="7.5287082"><ele>515.6</ele><time>2016-06-15T17:28:12Z</time></trkpt>
<trkpt lat="47.0466133" lon="7.5285558"><ele>515.4</ele><time>2016-06-15T17:28:13Z</time></trkpt>
<trkpt lat="47.0466020" lon="7.5282930"><ele>515.0</ele><time>2016-06-15T17:28:15Z</time></trkpt>
<trkpt lat="47.0466543" lon="7.5282816"><ele>514.9</ele><time>2016-06-15T17:28:16Z</time></trkpt>
<trkpt lat="47.0466766" lon="7.5279724"><ele>514.6</ele><time>2016-06-15T17:28:19Z</time></trkpt>
<trkpt lat="47.0466417" lon="7.5275599"><ele>514.0</ele><time>2016-06-15T17:28:23Z</time></trkpt>
<trkpt lat="47.0465449" lon="7.5273736"><ele>513.7</ele><time>2016-06-15T17:28:25Z</time></trkpt>
<trkpt lat="47.0464711" lon="7.5268615"><ele>513.4</ele><time>2016-06-15T17:28:30Z</time></trkpt>
<trkpt lat="47.0464931" lon="7.5268050"><ele>513.4</ele><time>2016-06-15T17:28:31Z</time></trkpt>
<trkpt lat="47.0463839" lon="7.5263299"><ele>512.2</ele><time>2016-06-15T17:28:36Z</time></trkpt>
<trkpt lat="47.0463282" lon="7.5256066"><ele>512.6</ele><time>2016-06-15T17:28:44Z</time></trkpt>
<trkpt lat="47.0461422" lon="7.5249902"><ele>514.0</ele><time>2016-06-15T17:28:53Z</time></trkpt>
<trkpt lat="47.0460402" lon="7.5245465"><ele>514.6</ele><time>2016-06-15T17:29:01Z</time></trkpt>
<trkpt lat="47.0459255" lon="7.5240544"><ele>515.3</ele><time>2016-06-15T17:29:11Z</time></trkpt>
<trkpt lat="47.0459139" lon="7.5237985"><ele>515.8</ele><time>2016-06-15T17:29:17Z</time></trkpt>
<trkpt lat="47.0458567" lon="7.5230860"><ele>517.0</ele><time>2016-06-15T17:29:34Z</time></trkpt>
<trkpt lat="47.0458031" lon="7.5222647"><ele>518.2</ele><time>2016-06-15T17:29:48Z</time></trkpt>
</trkseg>
<trkseg>
<trkpt lat="47.0458031" lon="7.5222647"><ele>518.2</ele><time>2016-06-15T17:30:11Z</time></trkpt>
<trkpt lat="47.0456909" lon="7.5221043"><ele>518.5</ele><time>2016-06-15T17:30:16Z</time></trkpt>
<trkpt lat="47.0455666" lon="7.5219804"><ele>518.6</ele><time>2016-06-15T17:30:20Z</time></trkpt>
<trkpt lat="47.0451683" lon="7.5216450"><ele>520.3</ele><time>2016-06-15T17:30:34Z</time></trkpt>
<trkpt lat="47.0447208" lon="7.5215674"><ele>521.2</ele><time>2016-06-15T17:30:50Z</time></trkpt>
<trkpt lat="47.0443161" lon="7.5212339"><ele>520.9</ele><time>2016-06-15T17:31:05Z</time></trkpt>
<trkpt lat="47.0439367" lon="7.5210134"><ele>520.6</ele><time>2016-06-15T17:31:17Z</time></trkpt>
<trkpt lat="47.0438169" lon="7.5210242"><ele>520.5</ele><time>2016-06-15T17:31:19Z</time></trkpt>
<trkpt lat="47.0436326" lon="7.5211141"><ele>520.5</ele><time>2016-06-15T17:31:20Z</time></trkpt>
<trkpt lat="47.0435387" lon="7.5210991"><ele>520.5</ele><time>2016-06-15T17:31:22Z</time></trkpt>
<trkpt lat="47.0434888" lon="7.5210562"><ele>520.4</ele><time>2016-06-15T17:31:23Z</time></trkpt>
<trkpt lat="47.0435914" lon="7.5210352"><ele>520.4</ele><time>2016-06-15T17:31:24Z</time></trkpt>
<trkpt lat="47.0434495" lon="7.5209567"><ele>520.3</ele><time>2016-06-15T17:31:28Z</time></trkpt>
<trkpt lat="47.0431667" lon="7.5210029"><ele>520.3</ele><time>2016-06-15T17:31:30Z</time></trkpt>
<trkpt lat="47.0428642" lon="7.5209020"><ele>520.1</ele><time>2016-06-15T17:31:35Z</time></trkpt>
<trkpt lat="47.0429555" lon="7.5209076"><ele>520.1</ele><time>2016-06-15T17:31:36Z</time></trkpt>
<trkpt lat="47.0429014" lon="7.5208065"><ele>520.1</ele><time>2016-06-15T17:31:39Z</time></trkpt>
<trkpt lat="47.0426984" lon="7.5207171"><ele>520.0</ele><time>2016-06-15T17:31:42Z</time></trkpt>
<trkpt lat="47.0427315" lon="7.5206907"><ele>520.0</ele><time>2016-06-15T17:31:43Z</time></trkpt>
<trkpt lat="47.0427196" lon="7.5206745"><ele>519.9</ele><time>2016-06-15T17:31:44Z</time></trkpt>
<trkpt lat="47.0427694" lon="7.5206396"><ele>519.9</ele><time>2016-06-15T17:31:45Z</time></trkpt>
<trkpt lat="47.0427630" lon="7.5206062"><ele>519.9</ele><time>2016-06-15T17:31:46Z</time></trkpt>
<trkpt lat="47.0426654" lon="7.5205450"><ele>519.8</ele><time>2016-06-15T17:31:48Z</time></trkpt>
<trkpt lat="47.0427805" lon="7.5204998"><ele>519.8</ele><time>2016-06-15T17:31:49Z</time></trkpt>
<trkpt lat="47.0425441" lon="7.5203102"><ele>519.7</ele><time>2016-06-15T17:31:53Z</time></trkpt>
<trkpt lat="47.0425664" lon="7.5202781"><ele>519.7</ele><time>2016-06-15T17:31:54Z</time></trkpt>
<trkpt lat="47.0424598" lon="7.5202049"><ele>519.6</ele><time>2016-06-15T17:31:56Z</time></trkpt>
<trkpt lat="47.0424863" lon="7.5201964"><ele>519.6</ele><time>2016-06-15T17:31:57Z</time></trkpt>
<trkpt lat="47.0423230" lon="7.5200417"><ele>519.6</ele><time>2016-06-15T17:31:59Z</time></trkpt>
<trkpt lat="47.0423691" lon="7.5200155"><ele>519.6</ele><time>2016-06-15T17:32:00Z</time></trkpt>
<trkpt lat="47.0422066" lon="7.5198107"><ele>519.5</ele><time>2016-06-15T17:32:02Z</time></trkpt>
<trkpt lat="47.0421472" lon="7.5197544"><ele>519.2</ele><time>2016-06-15T17:32:05Z</time></trkpt>
<trkpt lat="47.0419520" lon="7.5196560"><ele>518.8</ele><time>2016-06-15T17:32:08Z</time></trkpt>
<trkpt lat="47.0418066" lon="7.5196741"><ele>518.6</ele><time>2016-06-15T17:32:09Z</time></trkpt>
<trkpt lat="47.0417247" lon="7.5196195"><ele>518.5</ele><time>2016-06-15T17:32:10Z</time></trkpt>
<trkpt lat="47.0413415" lon="7.5192153"><ele>517.7</ele><time>2016-06-15T17:32:16Z</time></trkpt>
<trkpt lat="47.0411344" lon="7.5190472"><ele>517.5</ele><time>2016-06-15T17:32:18Z</time></trkpt>
<trkpt lat="47.0410312" lon="7.5189173"><ele>517.2</ele><time>2016-06-15T17:32:20Z</time></trkpt>
<trkpt lat="47.0409580" lon="7.5185124"><ele>517.1</ele><time>2016-06-15T17:32:21Z</time></trkpt>
<trkpt lat="47.0407663" lon="7.5182093"><ele>516.7</ele><time>2016-06-15T17:32:24Z</time></trkpt>
<trkpt lat="47.0404894" lon="7.5179393"><ele>516.2</ele><time>2016-06-15T17:32:28Z</time></trkpt>
<trkpt lat="47.0404512" lon="7.5178418"><ele>516.1</ele><time>2016-06-15T17:32:29Z</time></trkpt>
<trkpt lat="47.0402782" lon="7.5175976"><ele>515.9</ele><time>2016-06-15T17:32:31Z</time></trkpt>
<trkpt lat="47.0402803" lon="7.5175431"><ele>515.8</ele><time>2016-06-15T17:32:32Z</time></trkpt>
<trkpt lat="47.0401028" lon="7.5173425"><ele>515.8</ele><time>2016-06-15T17:32:35Z</time></trkpt>
<trkpt lat="47.0401054" lon="7.5172876"><ele>515.7</ele><time>2016-06-15T17:32:36Z</time></trkpt>
<trkpt lat="47.0401298" lon="7.5173028"><ele>515.8</ele><time>2016-06-15T17:32:38Z</time></trkpt>
<trkpt lat="47.0399013" lon="7.5169786"><ele>516.0</ele><time>2016-06-15T17:32:45Z</time></trkpt>
<trkpt lat="47.0395625" lon="7.5167011"><ele>516.1</ele><time>2016-06-15T17:32:49Z</time></trkpt>
<trkpt lat="47.0394516" lon="7.5166361"><ele>516.3</ele><time>2016-06-15T17:32:54Z</time></trkpt>
<trkpt lat="47.0393931" lon="7.5165620"><ele>516.4</ele><time>2016-06-15T17:32:55Z</time></trkpt>
<trkpt lat="47.0393942" lon="7.5165148"><ele>516.4</ele><time>2016-06-15T17:32:56Z</time></trkpt>
<trkpt lat="47.0393628" lon="7.5164575"><ele>516.4</ele><time>2016-06-15T17:32:57Z</time></trkpt>
<trkpt lat="47.0393925" lon="7.5164274"><ele>516.5</ele><time>2016-06-15T17:32:58Z</time></trkpt>
<trkpt lat="47.0393211" lon="7.5163808"><ele>516.5</ele><time>2016-06-15T17:32:59Z</time></trkpt>
<trkpt lat="47.0392848" lon="7.5162703"><ele>516.6</ele><time>2016-06-15T17:33:01Z</time></trkpt>
<trkpt lat="47.0392337" lon="7.5162138"><ele>516.6</ele><time>2016-06-15T17:33:02Z</time></trkpt>
<trkpt lat="47.0390281" lon="7.5161012"><ele>516.7</ele><time>2016-06-15T17:33:05Z</time></trkpt>
<trkpt lat="47.0390647" lon="7.5160591"><ele>516.7</ele><time>2016-06-15T17:33:06Z</time></trkpt>
<trkpt lat="47.0389769" lon="7.5159747"><ele>516.8</ele><time>2016-06-15T17:33:08Z</time></trkpt>
<trkpt lat="47.0389843" lon="7.5159495"><ele>516.8</ele><time>2016-06-15T17:33:09Z</time></trkpt>
<trkpt lat="47.0388441" lon="7.5158644"><ele>516.9</ele><time>2016-06-15T17:33:11Z</time></trkpt>
<trkpt lat="47.0387337" lon="7.5157584"><ele>517.0</ele><time>2016-06-15T17:33:12Z</time></trkpt>
<trkpt lat="47.0386577" lon="7.5156455"><ele>517.1</ele><time>2016-06-15T17:33:17Z</time></trkpt>
<trkpt lat="47.0385916" lon="7.5156113"><ele>517.2</ele><time>2016-06-15T17:33:18Z</time></trkpt>
<trkpt lat="47.0382794" lon="7.5152280"><ele>517.4</ele><time>2016-06-15T17:33:25Z</time></trkpt>
<trkpt lat="47.0380608" lon="7.5150840"><ele>517.6</ele><time>2016-06-15T17:33:29Z</time></trkpt>
<trkpt lat="47.0376974" lon="7.5146817"><ele>517.8</ele><time>2016-06-15T17:33:37Z</time></trkpt>
<trkpt lat="47.0376394" lon="7.5146030"><ele>517.9</ele><time>2016-06-15T17:33:38Z</time></trkpt>
<trkpt lat="47.0375099" lon="7.5145252"><ele>518.0</ele><time>2016-06-15T17:33:41Z</time></trkpt>
<trkpt lat="47.0375679" lon="7.5145329"><ele>518.1</ele><time>2016-06-15T17:33:45Z</time></trkpt>
<trkpt lat="47.0375922" lon="7.5145002"><ele>518.1</ele><time>2016-06-15T17:33:46Z</time></trkpt>
<trkpt lat="47.0371784" lon="7.5143200"><ele>516.8</ele><time>2016-06-15T17:33:53Z</time></trkpt>
<trkpt lat="47.0371582" lon="7.5143985"><ele>516.5</ele><time>2016-06-15T17:33:54Z</time></trkpt>
<trkpt lat="47.0371107" lon="7.5143940"><ele>516.3</ele><time>2016-06-15T17:33:56Z</time></trkpt>
<trkpt lat="47.0370780" lon="7.5143473"><ele>516.6</ele><time>2016-06-15T17:33:58Z</time></trkpt>
<trkpt lat="47.0369073" lon="7.5141942"><ele>516.8</ele><time>2016-06-15T17:33:59Z</time></trkpt>
<trkpt lat="47.0364638" lon="7.5140023"><ele>518.6</ele><time>2016-06-15T17:34:15Z</time></trkpt>
<trkpt lat="47.0360021" lon="7.5138269"><ele>519.4</ele><time>2016-06-15T17:34:27Z</time></trkpt>
<trkpt lat="47.0357147" lon="7.5135337"><ele>519.9</ele><time>2016-06-15T17:34:33Z</time></trkpt>
<trkpt lat="47.0356853" lon="7.5134751"><ele>519.9</ele><time>2016-06-15T17:34:34Z</time></trkpt>
<trkpt lat="47.0355197" lon="7.5133481"><ele>519.9</ele><time>2016-06-15T17:34:38Z</time></trkpt>
<trkpt lat="47.0354381" lon="7.5132295"><ele>519.8</ele><time>2016-06-15T17:34:40Z</time></trkpt>
<trkpt lat="47.0351902" lon="7.5130045"><ele>519.3</ele><time>2016-06-15T17:34:46Z</time></trkpt>
<trkpt lat="47.0348934" lon="7.5128392"><ele>518.9</ele><time>2016-06-15T17:34:51Z</time></trkpt>
<trkpt lat="47.0348256" lon="7.5127680"><ele>518.8</ele><time>2016-06-15T17:34:52Z</time></trkpt>
<trkpt lat="47.0347603" lon="7.5126416"><ele>518.7</ele><time>2016-06-15T17:34:53Z</time></trkpt>
<trkpt lat="47.0345197" lon="7.5124176"><ele>518.4</ele><time>2016-06-15T17:34:57Z</time></trkpt>
<trkpt lat="47.0344363" lon="7.5123990"><ele>518.3</ele><time>2016-06-15T17:34:58Z</time></trkpt>
<trkpt lat="47.0342828" lon="7.5122441"><ele>518.0</ele><time>2016-06-15T17:35:01Z</time></trkpt>
<trkpt lat="47.0341316" lon="7.5121832"><ele>518.0</ele><time>2016-06-15T17:35:04Z</time></trkpt>
<trkpt lat="47.0340040" lon="7.5120078"><ele>518.4</ele><time>2016-06-15T17:35:08Z</time></trkpt>
<trkpt lat="47.0336845" lon="7.5117555"><ele>520.2</ele><time>2016-06-15T17:35:16Z</time></trkpt>
<trkpt lat="47.0334919" lon="7.5115457"><ele>520.0</ele><time>2016-06-15T17:35:21Z</time></trkpt>
<trkpt lat="47.0334320" lon="7.5116722"><ele>520.0</ele><time>2016-06-15T17:35:22Z</time></trkpt>
<trkpt lat="47.0334018" lon="7.5116478"><ele>519.9</ele><time>2016-06-15T17:35:23Z</time></trkpt>
<trkpt lat="47.0333630" lon="7.5116679"><ele>519.9</ele><time>2016-06-15T17:35:24Z</time></trkpt>
<trkpt lat="47.0333104" lon="7.5116426"><ele>519.9</ele><time>2016-06-15T17:35:25Z</time></trkpt>
<trkpt lat="47.0332901" lon="7.5117256"><ele>519.9</ele><time>2016-06-15T17:35:26Z</time></trkpt>
<trkpt lat="47.0331887" lon="7.5117304"><ele>519.8</ele><time>2016-06-15T17:35:28Z</time></trkpt>
<trkpt lat="47.0327230" lon="7.5119657"><ele>519.7</ele><time>2016-06-15T17:35:40Z</time></trkpt>
<trkpt lat="47.0319414" lon="7.5125145"><ele>518.2</ele><time>2016-06-15T17:36:02Z</time></trkpt>
</trkseg>
<trkseg>
<trkpt lat="47.0319414" lon="7.5125145"><ele>518.2</ele><time>2016-06-15T17:41:43Z</time></trkpt>
<trkpt lat="47.0315772" lon="7.5128171"><ele>516.8</ele><time>2016-06-15T17:41:46Z</time></trkpt>
<trkpt lat="47.0312573" lon="7.5130012"><ele>516.8</ele><time>2016-06-15T17:41:53Z</time></trkpt>
<trkpt lat="47.0312052" lon="7.5130003"><ele>516.8</ele><time>2016-06-15T17:41:54Z</time></trkpt>
<trkpt lat="47.0311446" lon="7.5130467"><ele>516.8</ele><time>2016-06-15T17:41:55Z</time></trkpt>
<trkpt lat="47.0311005" lon="7.5130042"><ele>516.8</ele><time>2016-06-15T17:41:56Z</time></trkpt>
<trkpt lat="47.0309047" lon="7.5131486"><ele>516.7</ele><time>2016-06-15T17:42:01Z</time></trkpt>
<trkpt lat="47.0307835" lon="7.5131895"><ele>516.7</ele><time>2016-06-15T17:42:03Z</time></trkpt>
<trkpt lat="47.0307292" lon="7.5131735"><ele>516.7</ele><time>2016-06-15T17:42:04Z</time></trkpt>
<trkpt lat="47.0307038" lon="7.5132948"><ele>516.7</ele><time>2016-06-15T17:42:05Z</time></trkpt>
<trkpt lat="47.0305195" lon="7.5135372"><ele>516.6</ele><time>2016-06-15T17:42:09Z</time></trkpt>
<trkpt lat="47.0303454" lon="7.5135194"><ele>516.6</ele><time>2016-06-15T17:42:12Z</time></trkpt>
<trkpt lat="47.0302926" lon="7.5135672"><ele>516.6</ele><time>2016-06-15T17:42:13Z</time></trkpt>
<trkpt lat="47.0302199" lon="7.5137059"><ele>516.6</ele><time>2016-06-15T17:42:15Z</time></trkpt>
<trkpt lat="47.0301311" lon="7.5137030"><ele>516.6</ele><time>2016-06-15T17:42:17Z</time></trkpt>
<trkpt lat="47.0296600" lon="7.5135561"><ele>515.6</ele><time>2016-06-15T17:42:26Z</time></trkpt>
<trkpt lat="47.0292015" lon="7.5134119"><ele>515.9</ele><time>2016-06-15T17:42:36Z</time></trkpt>
<trkpt lat="47.0291559" lon="7.5133395"><ele>516.0</ele><time>2016-06-15T17:42:38Z</time></trkpt>
<trkpt lat="47.0290960" lon="7.5133222"><ele>516.0</ele><time>2016-06-15T17:42:39Z</time></trkpt>
<trkpt lat="47.0290574" lon="7.5134238"><ele>516.1</ele><time>2016-06-15T17:42:40Z</time></trkpt>
<trkpt lat="47.0286628" lon="7.5132803"><ele>516.5</ele><time>2016-06-15T17:42:50Z</time></trkpt>
<trkpt lat="47.0283354" lon="7.5132866"><ele>516.8</ele><time>2016-06-15T17:42:58Z</time></trkpt>
<trkpt lat="47.0279881" lon="7.5130033"><ele>517.3</ele><time>2016-06-15T17:43:09Z</time></trkpt>
<trkpt lat="47.0279314" lon="7.5130452"><ele>517.4</ele><time>2016-06-15T17:43:10Z</time></trkpt>
<trkpt lat="47.0278831" lon="7.5130339"><ele>517.4</ele><time>2016-06-15T17:43:11Z</time></trkpt>
<trkpt lat="47.0278899" lon="7.5129706"><ele>517.4</ele><time>2016-06-15T17:43:12Z</time></trkpt>
<trkpt lat="47.0278444" lon="7.5129266"><ele>517.5</ele><time>2016-06-15T17:43:13Z</time></trkpt>
<trkpt lat="47.0277622" lon="7.5129452"><ele>517.6</ele><time>2016-06-15T17:43:15Z</time></trkpt>
<trkpt lat="47.0277718" lon="7.5129053"><ele>517.6</ele><time>2016-06-15T17:43:16Z</time></trkpt>
<trkpt lat="47.0273821" lon="7.5125536"><ele>518.0</ele><time>2016-06-15T17:43:26Z</time></trkpt>
<trkpt lat="47.0270037" lon="7.5120711"><ele>518.8</ele><time>2016-06-15T17:43:40Z</time></trkpt>
<trkpt lat="47.0266085" lon="7.5118026"><ele>519.3</ele><time>2016-06-15T17:43:49Z</time></trkpt>
<trkpt lat="47.0261610" lon="7.5115685"><ele>520.0</ele><time>2016-06-15T17:44:01Z</time></trkpt>
<trkpt lat="47.0257325" lon="7.5112544"><ele>521.4</ele><time>2016-06-15T17:44:17Z</time></trkpt>
<trkpt lat="47.0252871" lon="7.5109850"><ele>521.9</ele><time>2016-06-15T17:44:31Z</time></trkpt>
<trkpt lat="47.0250085" lon="7.5107706"><ele>522.0</ele><time>2016-06-15T17:44:37Z</time></trkpt>
<trkpt lat="47.0248805" lon="7.5107255"><ele>522.1</ele><time>2016-06-15T17:44:40Z</time></trkpt>
<trkpt lat="47.0245311" lon="7.5103367"><ele>522.4</ele><time>2016-06-15T17:44:49Z</time></trkpt>
<trkpt lat="47.0244703" lon="7.5103416"><ele>522.4</ele><time>2016-06-15T17:44:50Z</time></trkpt>
<trkpt lat="47.0243607" lon="7.5102405"><ele>522.5</ele><time>2016-06-15T17:44:53Z</time></trkpt>
<trkpt lat="47.0243426" lon="7.5101592"><ele>522.6</ele><time>2016-06-15T17:44:55Z</time></trkpt>
<trkpt lat="47.0243915" lon="7.5101932"><ele>522.6</ele><time>2016-06-15T17:44:56Z</time></trkpt>
<trkpt lat="47.0243980" lon="7.5101464"><ele>522.7</ele><time>2016-06-15T17:44:57Z</time></trkpt>
<trkpt lat="47.0240818" lon="7.5098205"><ele>523.0</ele><time>2016-06-15T17:45:07Z</time></trkpt>
<trkpt lat="47.0238977" lon="7.5094664"><ele>523.3</ele><time>2016-06-15T17:45:17Z</time></trkpt>
<trkpt lat="47.0237510" lon="7.5094643"><ele>523.4</ele><time>2016-06-15T17:45:22Z</time></trkpt>
<trkpt lat="47.0233558" lon="7.5097963"><ele>524.5</ele><time>2016-06-15T17:45:44Z</time></trkpt>
<trkpt lat="47.0229414" lon="7.5100901"><ele>525.7</ele><time>2016-06-15T17:46:05Z</time></trkpt>
<trkpt lat="47.0225412" lon="7.5104004"><ele>526.4</ele><time>2016-06-15T17:46:17Z</time></trkpt>
<trkpt lat="47.0223470" lon="7.5105715"><ele>526.7</ele><time>2016-06-15T17:46:21Z</time></trkpt>
<trkpt lat="47.0221792" lon="7.5108836"><ele>527.1</ele><time>2016-06-15T17:46:26Z</time></trkpt>
<trkpt lat="47.0220543" lon="7.5109559"><ele>527.3</ele><time>2016-06-15T17:46:28Z</time></trkpt>
<trkpt lat="47.0220310" lon="7.5110094"><ele>527.4</ele><time>2016-06-15T17:46:29Z</time></trkpt>
<trkpt lat="47.0219744" lon="7.5110340"><ele>527.4</ele><time>2016-06-15T17:46:30Z</time></trkpt>
<trkpt lat="47.0218594" lon="7.5112087"><ele>527.8</ele><time>2016-06-15T17:46:33Z</time></trkpt>
<trkpt lat="47.0218000" lon="7.5112505"><ele>527.9</ele><time>2016-06-15T17:46:34Z</time></trkpt>
<trkpt lat="47.0217564" lon="7.5113387"><ele>528.1</ele><time>2016-06-15T17:46:36Z</time></trkpt>
<trkpt lat="47.0216535" lon="7.5113603"><ele>528.7</ele><time>2016-06-15T17:46:41Z</time></trkpt>
<trkpt lat="47.0216658" lon="7.5112436"><ele>528.8</ele><time>2016-06-15T17:46:42Z</time></trkpt>
<trkpt lat="47.0214413" lon="7.5106717"><ele>530.5</ele><time>2016-06-15T17:46:57Z</time></trkpt>
<trkpt lat="47.0213922" lon="7.5104945"><ele>531.2</ele><time>2016-06-15T17:47:09Z</time></trkpt>
<trkpt lat="47.0215850" lon="7.5104448"><ele>531.6</ele><time>2016-06-15T17:47:16Z</time></trkpt>
<trkpt lat="47.0214475" lon="7.5100623"><ele>532.5</ele><time>2016-06-15T17:47:27Z</time></trkpt>
<trkpt lat="47.0211051" lon="7.5096355"><ele>532.9</ele><time>2016-06-15T17:47:39Z</time></trkpt>
<trkpt lat="47.0207981" lon="7.5091430"><ele>534.7</ele><time>2016-06-15T17:47:52Z</time></trkpt>
<trkpt lat="47.0206183" lon="7.5085574"><ele>535.6</ele><time>2016-06-15T17:48:04Z</time></trkpt>
<trkpt lat="47.0205746" lon="7.5084830"><ele>535.5</ele><time>2016-06-15T17:48:05Z</time></trkpt>
<trkpt lat="47.0205583" lon="7.5083989"><ele>535.4</ele><time>2016-06-15T17:48:06Z</time></trkpt>
<trkpt lat="47.0204728" lon="7.5082258"><ele>535.1</ele><time>2016-06-15T17:48:08Z</time></trkpt>
<trkpt lat="47.0204527" lon="7.5079754"><ele>534.9</ele><time>2016-06-15T17:48:10Z</time></trkpt>
<trkpt lat="47.0204710" lon="7.5077736"><ele>534.6</ele><time>2016-06-15T17:48:12Z</time></trkpt>
<trkpt lat="47.0204414" lon="7.5074585"><ele>533.1</ele><time>2016-06-15T17:48:15Z</time></trkpt>
<trkpt lat="47.0204700" lon="7.5073554"><ele>532.6</ele><time>2016-06-15T17:48:16Z</time></trkpt>
<trkpt lat="47.0204550" lon="7.5072586"><ele>532.0</ele><time>2016-06-15T17:48:17Z</time></trkpt>
<trkpt lat="47.0205943" lon="7.5065678"><ele>531.8</ele><time>2016-06-15T17:48:24Z</time></trkpt>
<trkpt lat="47.0205678" lon="7.5064127"><ele>531.8</ele><time>2016-06-15T17:48:25Z</time></trkpt>
<trkpt lat="47.0204936" lon="7.5061705"><ele>531.9</ele><time>2016-06-15T17:48:27Z</time></trkpt>
<trkpt lat="47.0205500" lon="7.5059251"><ele>532.0</ele><time>2016-06-15T17:48:29Z</time></trkpt>
<trkpt lat="47.0205004" lon="7.5056143"><ele>532.2</ele><time>2016-06-15T17:48:32Z</time></trkpt>
<trkpt lat="47.0204052" lon="7.5054270"><ele>532.4</ele><time>2016-06-15T17:48:34Z</time></trkpt>
<trkpt lat="47.0202255" lon="7.5048993"><ele>532.8</ele><time>2016-06-15T17:48:40Z</time></trkpt>
<trkpt lat="47.0201438" lon="7.5048025"><ele>532.9</ele><time>2016-06-15T17:48:41Z</time></trkpt>
<trkpt lat="47.0201432" lon="7.5046043"><ele>533.0</ele><time>2016-06-15T17:48:43Z</time></trkpt>
<trkpt lat="47.0200787" lon="7.5045844"><ele>533.1</ele><time>2016-06-15T17:48:44Z</time></trkpt>
<trkpt lat="47.0201486" lon="7.5045529"><ele>533.2</ele><time>2016-06-15T17:48:45Z</time></trkpt>
<trkpt lat="47.0201652" lon="7.5043815"><ele>533.2</ele><time>2016-06-15T17:48:46Z</time></trkpt>
<trkpt lat="47.0201497" lon="7.5043553"><ele>533.3</ele><time>2016-06-15T17:48:47Z</time></trkpt>
<trkpt lat="47.0201663" lon="7.5040893"><ele>533.5</ele><time>2016-06-15T17:48:49Z</time></trkpt>
<trkpt lat="47.0201127" lon="7.5040167"><ele>533.5</ele><time>2016-06-15T17:48:50Z</time></trkpt>
<trkpt lat="47.0201745" lon="7.5038976"><ele>533.6</ele><time>2016-06-15T17:48:51Z</time></trkpt>
<trkpt lat="47.0201620" lon="7.5038142"><ele>533.8</ele><time>2016-06-15T17:48:54Z</time></trkpt>
<trkpt lat="47.0200806" lon="7.5037395"><ele>533.9</ele><time>2016-06-15T17:48:55Z</time></trkpt>
<trkpt lat="47.0200838" lon="7.5036692"><ele>534.0</ele><time>2016-06-15T17:48:56Z</time></trkpt>
<trkpt lat="47.0198870" lon="7.5035224"><ele>534.1</ele><time>2016-06-15T17:48:58Z</time></trkpt>
<trkpt lat="47.0198662" lon="7.5034758"><ele>534.2</ele><time>2016-06-15T17:48:59Z</time></trkpt>
<trkpt lat="47.0198858" lon="7.5034378"><ele>534.3</ele><time>2016-06-15T17:49:00Z</time></trkpt>
<trkpt lat="47.0198336" lon="7.5033731"><ele>534.4</ele><time>2016-06-15T17:49:01Z</time></trkpt>
<trkpt lat="47.0198204" lon="7.5032803"><ele>534.4</ele><time>2016-06-15T17:49:02Z</time></trkpt>
<trkpt lat="47.0197934" lon="7.5032824"><ele>534.5</ele><time>2016-06-15T17:49:03Z</time></trkpt>
<trkpt lat="47.0198181" lon="7.5030478"><ele>534.4</ele><time>2016-06-15T17:49:04Z</time></trkpt>
<trkpt lat="47.0198204" lon="7.5029320"><ele>533.8</ele><time>2016-06-15T17:49:08Z</time></trkpt>
<trkpt lat="47.0197237" lon="7.5026338"><ele>533.3</ele><time>2016-06-15T17:49:12Z</time></trkpt>
<trkpt lat="47.0197008" lon="7.5024832"><ele>533.2</ele><time>2016-06-15T17:49:13Z</time></trkpt>
<trkpt lat="47.0197360" lon="7.5023120"><ele>533.1</ele><time>2016-06-15T17:49:15Z</time></trkpt>
<trkpt lat="47.0197085" lon="7.5019403"><ele>533.2</ele><time>2016-06-15T17:49:20Z</time></trkpt>
<trkpt lat="47.0195055" lon="7.5017554"><ele>533.3</ele><time>2016-06-15T17:49:21Z</time></trkpt>
<trkpt lat="47.0196661" lon="7.5018166"><ele>533.3</ele><time>2016-06-15T17:49:22Z</time></trkpt>
<trkpt lat="47.0195447" lon="7.5016417"><ele>533.2</ele><time>2016-06-15T17:49:25Z</time></trkpt>
<trkpt lat="47.0196412" lon="7.5016862"><ele>532.9</ele><time>2016-06-15T17:49:26Z</time></trkpt>
<trkpt lat="47.0196327" lon="7.5016310"><ele>532.7</ele><time>2016-06-15T17:49:27Z</time></trkpt>
<trkpt lat="47.0196992" lon="7.5016201"><ele>532.5</ele><time>2016-06-15T17:49:28Z</time></trkpt>
<trkpt lat="47.0197254" lon="7.5015432"><ele>532.1</ele><time>2016-06-15T17:49:30Z</time></trkpt>
<trkpt lat="47.0197884" lon="7.5014685"><ele>531.7</ele><time>2016-06-15T17:49:32Z</time></trkpt>
<trkpt lat="47.0199018" lon="7.5014806"><ele>531.4</ele><time>2016-06-15T17:49:33Z</time></trkpt>
<trkpt lat="47.0200282" lon="7.5014195"><ele>531.9</ele><time>2016-06-15T17:49:35Z</time></trkpt>
<trkpt lat="47.0204050" lon="7.5008379"><ele>536.8</ele><time>2016-06-15T17:49:42Z</time></trkpt>
<trkpt lat="47.0203055" lon="7.5006353"><ele>534.5</ele><time>2016-06-15T17:49:44Z</time></trkpt>
<trkpt lat="47.0202510" lon="7.5006157"><ele>533.3</ele><time>2016-06-15T17:49:45Z</time></trkpt>
<trkpt lat="47.0201638" lon="7.5005257"><ele>531.1</ele><time>2016-06-15T17:49:47Z</time></trkpt>
<trkpt lat="47.0200843" lon="7.5003578"><ele>530.0</ele><time>2016-06-15T17:49:50Z</time></trkpt>
<trkpt lat="47.0199527" lon="7.5000512"><ele>530.5</ele><time>2016-06-15T17:49:56Z</time></trkpt>
<trkpt lat="47.0199223" lon="7.5000513"><ele>530.6</ele><time>2016-06-15T17:49:57Z</time></trkpt>
<trkpt lat="47.0198940" lon="7.4999941"><ele>530.7</ele><time>2016-06-15T17:49:58Z</time></trkpt>
<trkpt lat="47.0198101" lon="7.4999834"><ele>530.7</ele><time>2016-06-15T17:49:59Z</time></trkpt>
<trkpt lat="47.0197189" lon="7.4998584"><ele>531.0</ele><time>2016-06-15T17:50:02Z</time></trkpt>
<trkpt lat="47.0197455" lon="7.4997247"><ele>531.3</ele><time>2016-06-15T17:50:06Z</time></trkpt>
<trkpt lat="47.0196900" lon="7.4994719"><ele>531.4</ele><time>2016-06-15T17:50:13Z</time></trkpt>
<trkpt lat="47.0198543" lon="7.4993664"><ele>530.9</ele><time>2016-06-15T17:50:18Z</time></trkpt>
<trkpt lat="47.0201802" lon="7.4992145"><ele>530.1</ele><time>2016-06-15T17:50:24Z</time></trkpt>
<trkpt lat="47.0202181" lon="7.4991481"><ele>529.9</ele><time>2016-06-15T17:50:25Z</time></trkpt>
<trkpt lat="47.0200865" lon="7.4986305"><ele>529.4</ele><time>2016-06-15T17:50:33Z</time></trkpt>
<trkpt lat="47.0199792" lon="7.4983585"><ele>528.7</ele><time>2016-06-15T17:50:37Z</time></trkpt>
<trkpt lat="47.0196804" lon="7.4979968"><ele>528.5</ele><time>2016-06-15T17:50:43Z</time></trkpt>
<trkpt lat="47.0197095" lon="7.4979758"><ele>528.6</ele><time>2016-06-15T17:50:44Z</time></trkpt>
<trkpt lat="47.0196870" lon="7.4979418"><ele>528.6</ele><time>2016-06-15T17:50:45Z</time></trkpt>
<trkpt lat="47.0196853" lon="7.4978406"><ele>528.7</ele><time>2016-06-15T17:50:46Z</time></trkpt>
<trkpt lat="47.0196464" lon="7.4977410"><ele>528.7</ele><time>2016-06-15T17:50:48Z</time></trkpt>
<trkpt lat="47.0196943" lon="7.4976277"><ele>528.9</ele><time>2016-06-15T17:50:51Z</time></trkpt>
<trkpt lat="47.0195160" lon="7.4970751"><ele>528.3</ele><time>2016-06-15T17:51:00Z</time></trkpt>
<trkpt lat="47.0195246" lon="7.4969664"><ele>528.2</ele><time>2016-06-15T17:51:02Z</time></trkpt>
<trkpt lat="47.0194900" lon="7.4968345"><ele>528.1</ele><time>2016-06-15T17:51:04Z</time></trkpt>
<trkpt lat="47.0194723" lon="7.4966925"><ele>527.9</ele><time>2016-06-15T17:51:07Z</time></trkpt>
<trkpt lat="47.0191752" lon="7.4961652"><ele>527.5</ele><time>2016-06-15T17:51:21Z</time></trkpt>
<trkpt lat="47.0190387" lon="7.4959596"><ele>527.3</ele><time>2016-06-15T17:51:27Z</time></trkpt>
<trkpt lat="47.0190409" lon="7.4957871"><ele>527.1</ele><time>2016-06-15T17:51:30Z</time></trkpt>
<trkpt lat="47.0191438" lon="7.4954951"><ele>527.0</ele><time>2016-06-15T17:51:32Z</time></trkpt>
<trkpt lat="47.0190808" lon="7.4954787"><ele>526.9</ele><time>2016-06-15T17:51:33Z</time></trkpt>
<trkpt lat="47.0189924" lon="7.4952389"><ele>526.7</ele><time>2016-06-15T17:51:37Z</time></trkpt>
<trkpt lat="47.0189188" lon="7.4952174"><ele>526.6</ele><time>2016-06-15T17:51:38Z</time></trkpt>
<trkpt lat="47.0189566" lon="7.4951138"><ele>526.5</ele><time>2016-06-15T17:51:40Z</time></trkpt>
<trkpt lat="47.0188954" lon="7.4949905"><ele>526.4</ele><time>2016-06-15T17:51:42Z</time></trkpt>
<trkpt lat="47.0189211" lon="7.4949671"><ele>526.4</ele><time>2016-06-15T17:51:43Z</time></trkpt>
<trkpt lat="47.0188576" lon="7.4946086"><ele>526.1</ele><time>2016-06-15T17:51:48Z</time></trkpt>
<trkpt lat="47.0186723" lon="7.4941553"><ele>525.8</ele><time>2016-06-15T17:51:53Z</time></trkpt>
<trkpt lat="47.0187070" lon="7.4941225"><ele>525.7</ele><time>2016-06-15T17:51:54Z</time></trkpt>
<trkpt lat="47.0186575" lon="7.4938164"><ele>525.5</ele><time>2016-06-15T17:51:58Z</time></trkpt>
<trkpt lat="47.0185866" lon="7.4936454"><ele>525.4</ele><time>2016-06-15T17:52:00Z</time></trkpt>
<trkpt lat="47.0185847" lon="7.4935752"><ele>525.3</ele><time>2016-06-15T17:52:01Z</time></trkpt>
<trkpt lat="47.0184560" lon="7.4935378"><ele>525.3</ele><time>2016-06-15T17:52:02Z</time></trkpt>
<trkpt lat="47.0184388" lon="7.4934326"><ele>525.2</ele><time>2016-06-15T17:52:03Z</time></trkpt>
<trkpt lat="47.0185256" lon="7.4932433"><ele>525.2</ele><time>2016-06-15T17:52:06Z</time></trkpt>
<trkpt lat="47.0184922" lon="7.4930825"><ele>525.3</ele><time>2016-06-15T17:52:08Z</time></trkpt>
<trkpt lat="47.0185105" lon="7.4930286"><ele>525.3</ele><time>2016-06-15T17:52:09Z</time></trkpt>
<trkpt lat="47.0184329" lon="7.4926535"><ele>525.7</ele><time>2016-06-15T17:52:14Z</time></trkpt>
<trkpt lat="47.0184554" lon="7.4926480"><ele>525.8</ele><time>2016-06-15T17:52:15Z</time></trkpt>
<trkpt lat="47.0183962" lon="7.4919504"><ele>527.1</ele><time>2016-06-15T17:52:28Z</time></trkpt>
<trkpt lat="47.0183621" lon="7.4912775"><ele>527.5</ele><time>2016-06-15T17:52:40Z</time></trkpt>
<trkpt lat="47.0183340" lon="7.4911571"><ele>527.5</ele><time>2016-06-15T17:52:42Z</time></trkpt>
<trkpt lat="47.0182675" lon="7.4910699"><ele>527.5</ele><time>2016-06-15T17:52:43Z</time></trkpt>
<trkpt lat="47.0182218" lon="7.4909498"><ele>527.5</ele><time>2016-06-15T17:52:45Z</time></trkpt>
<trkpt lat="47.0182485" lon="7.4908439"><ele>527.5</ele><time>2016-06-15T17:52:47Z</time></trkpt>
<trkpt lat="47.0181538" lon="7.4907488"><ele>527.4</ele><time>2016-06-15T17:52:49Z</time></trkpt>
<trkpt lat="47.0181611" lon="7.4907055"><ele>527.3</ele><time>2016-06-15T17:52:50Z</time></trkpt>
<trkpt lat="47.0181144" lon="7.4905999"><ele>527.1</ele><time>2016-06-15T17:52:51Z</time></trkpt>
<trkpt lat="47.0180195" lon="7.4905671"><ele>527.0</ele><time>2016-06-15T17:52:52Z</time></trkpt>
<trkpt lat="47.0180439" lon="7.4904716"><ele>526.7</ele><time>2016-06-15T17:52:54Z</time></trkpt>
<trkpt lat="47.0180285" lon="7.4904154"><ele>526.6</ele><time>2016-06-15T17:52:55Z</time></trkpt>
<trkpt lat="47.0180429" lon="7.4903822"><ele>526.6</ele><time>2016-06-15T17:52:56Z</time></trkpt>
<trkpt lat="47.0179996" lon="7.4903423"><ele>526.5</ele><time>2016-06-15T17:52:57Z</time></trkpt>
<trkpt lat="47.0179654" lon="7.4897985"><ele>525.9</ele><time>2016-06-15T17:53:10Z</time></trkpt>
<trkpt lat="47.0177313" lon="7.4892151"><ele>527.7</ele><time>2016-06-15T17:53:25Z</time></trkpt>
<trkpt lat="47.0175951" lon="7.4885505"><ele>528.8</ele><time>2016-06-15T17:53:39Z</time></trkpt>
<trkpt lat="47.0174321" lon="7.4879252"><ele>531.2</ele><time>2016-06-15T17:53:57Z</time></trkpt>
<trkpt lat="47.0172824" lon="7.4872553"><ele>530.2</ele><time>2016-06-15T17:54:11Z</time></trkpt>
<trkpt lat="47.0171359" lon="7.4868162"><ele>529.5</ele><time>2016-06-15T17:54:20Z</time></trkpt>
<trkpt lat="47.0171589" lon="7.4866821"><ele>529.4</ele><time>2016-06-15T17:54:21Z</time></trkpt>
<trkpt lat="47.0171182" lon="7.4863631"><ele>529.1</ele><time>2016-06-15T17:54:25Z</time></trkpt>
<trkpt lat="47.0172872" lon="7.4860284"><ele>529.0</ele><time>2016-06-15T17:54:27Z</time></trkpt>
<trkpt lat="47.0171342" lon="7.4853414"><ele>528.3</ele><time>2016-06-15T17:54:39Z</time></trkpt>
<trkpt lat="47.0169884" lon="7.4846924"><ele>528.5</ele><time>2016-06-15T17:54:49Z</time></trkpt>
<trkpt lat="47.0168395" lon="7.4840355"><ele>528.8</ele><time>2016-06-15T17:55:01Z</time></trkpt>
<trkpt lat="47.0167094" lon="7.4834340"><ele>529.6</ele><time>2016-06-15T17:55:13Z</time></trkpt>
<trkpt lat="47.0168643" lon="7.4833363"><ele>530.3</ele><time>2016-06-15T17:55:17Z</time></trkpt>
<trkpt lat="47.0166612" lon="7.4832139"><ele>530.5</ele><time>2016-06-15T17:55:18Z</time></trkpt>
<trkpt lat="47.0164818" lon="7.4826061"><ele>532.6</ele><time>2016-06-15T17:55:34Z</time></trkpt>
<trkpt lat="47.0162500" lon="7.4820392"><ele>533.2</ele><time>2016-06-15T17:55:51Z</time></trkpt>
<trkpt lat="47.0159851" lon="7.4814994"><ele>533.5</ele><time>2016-06-15T17:56:04Z</time></trkpt>
<trkpt lat="47.0157277" lon="7.4809488"><ele>534.1</ele><time>2016-06-15T17:56:23Z</time></trkpt>
<trkpt lat="47.0155111" lon="7.4803366"><ele>534.6</ele><time>2016-06-15T17:56:43Z</time></trkpt>
<trkpt lat="47.0154566" lon="7.4801910"><ele>534.9</ele><time>2016-06-15T17:56:55Z</time></trkpt>
<trkpt lat="47.0150234" lon="7.4800543"><ele>535.0</ele><time>2016-06-15T17:56:57Z</time></trkpt>
<trkpt lat="47.0147623" lon="7.4796907"><ele>535.3</ele><time>2016-06-15T17:57:08Z</time></trkpt>
<trkpt lat="47.0146836" lon="7.4794460"><ele>535.4</ele><time>2016-06-15T17:57:11Z</time></trkpt>
<trkpt lat="47.0144540" lon="7.4790936"><ele>535.3</ele><time>2016-06-15T17:57:18Z</time></trkpt>
<trkpt lat="47.0143760" lon="7.4784246"><ele>535.1</ele><time>2016-06-15T17:57:34Z</time></trkpt>
<trkpt lat="47.0140531" lon="7.4779367"><ele>534.9</ele><time>2016-06-15T17:57:45Z</time></trkpt>
<trkpt lat="47.0138110" lon="7.4776586"><ele>534.8</ele><time>2016-06-15T17:57:52Z</time></trkpt>
<trkpt lat="47.0138745" lon="7.4775325"><ele>534.8</ele><time>2016-06-15T17:57:55Z</time></trkpt>
<trkpt lat="47.0142792" lon="7.4774496"><ele>534.6</ele><time>2016-06-15T17:58:05Z</time></trkpt>
<trkpt lat="47.0143716" lon="7.4772246"><ele>535.7</ele><time>2016-06-15T17:58:10Z</time></trkpt>
<trkpt lat="47.0142805" lon="7.4765731"><ele>538.8</ele><time>2016-06-15T17:58:29Z</time></trkpt>
<trkpt lat="47.0142506" lon="7.4759055"><ele>542.0</ele><time>2016-06-15T17:58:52Z</time></trkpt>
<trkpt lat="47.0144712" lon="7.4746718"><ele>546.7</ele><time>2016-06-15T17:59:18Z</time></trkpt>
</trkseg>
<trkseg>
<trkpt lat="47.0144712" lon="7.4746718"><ele>546.7</ele><time>2016-06-15T18:02:12Z</time></trkpt>
<trkpt lat="47.0145916" lon="7.4740903"><ele>548.0</ele><time>2016-06-15T18:02:19Z</time></trkpt>
<trkpt lat="47.0145802" lon="7.4733986"><ele>550.2</ele><time>2016-06-15T18:02:33Z</time></trkpt>
<trkpt lat="47.0146620" lon="7.4727332"><ele>551.5</ele><time>2016-06-15T18:02:50Z</time></trkpt>
<trkpt lat="47.0147394" lon="7.4720826"><ele>553.4</ele><time>2016-06-15T18:03:07Z</time></trkpt>
<trkpt lat="47.0149085" lon="7.4714191"><ele>553.6</ele><time>2016-06-15T18:03:22Z</time></trkpt>
<trkpt lat="47.0149563" lon="7.4707465"><ele>554.6</ele><time>2016-06-15T18:03:35Z</time></trkpt>
<trkpt lat="47.0149860" lon="7.4700692"><ele>555.7</ele><time>2016-06-15T18:03:48Z</time></trkpt>
<trkpt lat="47.0151314" lon="7.4694125"><ele>556.9</ele><time>2016-06-15T18:04:00Z</time></trkpt>
<trkpt lat="47.0150394" lon="7.4688281"><ele>556.0</ele><time>2016-06-15T18:04:10Z</time></trkpt>
<trkpt lat="47.0150470" lon="7.4681525"><ele>556.7</ele><time>2016-06-15T18:04:22Z</time></trkpt>
<trkpt lat="47.0149795" lon="7.4674756"><ele>556.4</ele><time>2016-06-15T18:04:35Z</time></trkpt>
<trkpt lat="47.0150696" lon="7.4668110"><ele>558.2</ele><time>2016-06-15T18:04:47Z</time></trkpt>
<trkpt lat="47.0151739" lon="7.4661293"><ele>557.3</ele><time>2016-06-15T18:05:01Z</time></trkpt>
<trkpt lat="47.0151949" lon="7.4660326"><ele>557.5</ele><time>2016-06-15T18:05:03Z</time></trkpt>
<trkpt lat="47.0151325" lon="7.4658791"><ele>557.8</ele><time>2016-06-15T18:05:06Z</time></trkpt>
<trkpt lat="47.0153572" lon="7.4652952"><ele>557.1</ele><time>2016-06-15T18:05:16Z</time></trkpt>
<trkpt lat="47.0154464" lon="7.4649828"><ele>556.0</ele><time>2016-06-15T18:05:21Z</time></trkpt>
<trkpt lat="47.0154917" lon="7.4649073"><ele>555.8</ele><time>2016-06-15T18:05:22Z</time></trkpt>
<trkpt lat="47.0154631" lon="7.4647890"><ele>555.6</ele><time>2016-06-15T18:05:23Z</time></trkpt>
<trkpt lat="47.0156868" lon="7.4641768"><ele>553.6</ele><time>2016-06-15T18:05:32Z</time></trkpt>
<trkpt lat="47.0159236" lon="7.4635524"><ele>552.9</ele><time>2016-06-15T18:05:41Z</time></trkpt>
<trkpt lat="47.0161982" lon="7.4629376"><ele>553.3</ele><time>2016-06-15T18:05:49Z</time></trkpt>
<trkpt lat="47.0162856" lon="7.4627653"><ele>553.5</ele><time>2016-06-15T18:05:52Z</time></trkpt>
<trkpt lat="47.0165876" lon="7.4623191"><ele>556.1</ele><time>2016-06-15T18:06:07Z</time></trkpt>
</trkseg>
<trkseg>
<trkpt lat="47.0165876" lon="7.4623191"><ele>556.1</ele><time>2016-06-15T18:06:33Z</time></trkpt>
<trkpt lat="47.0168269" lon="7.4618813"><ele>558.7</ele><time>2016-06-15T18:06:33Z</time></trkpt>
<trkpt lat="47.0165720" lon="7.4616117"><ele>559.8</ele><time>2016-06-15T18:06:48Z</time></trkpt>
<trkpt lat="47.0164505" lon="7.4612188"><ele>560.7</ele><time>2016-06-15T18:07:01Z</time></trkpt>
<trkpt lat="47.0163020" lon="7.4612397"><ele>561.0</ele><time>2016-06-15T18:07:05Z</time></trkpt>
<trkpt lat="47.0158838" lon="7.4615663"><ele>559.6</ele><time>2016-06-15T18:07:13Z</time></trkpt>
<trkpt lat="47.0154603" lon="7.4616830"><ele>558.3</ele><time>2016-06-15T18:07:20Z</time></trkpt>
<trkpt lat="47.0150179" lon="7.4614802"><ele>558.4</ele><time>2016-06-15T18:07:28Z</time></trkpt>
<trkpt lat="47.0145836" lon="7.4612630"><ele>558.7</ele><time>2016-06-15T18:07:36Z</time></trkpt>
<trkpt lat="47.0145392" lon="7.4612536"><ele>558.8</ele><time>2016-06-15T18:07:37Z</time></trkpt>
<trkpt lat="47.0145269" lon="7.4612825"><ele>558.8</ele><time>2016-06-15T18:07:38Z</time></trkpt>
<trkpt lat="47.0142170" lon="7.4611887"><ele>559.2</ele><time>2016-06-15T18:07:47Z</time></trkpt>
<trkpt lat="47.0141954" lon="7.4612138"><ele>559.2</ele><time>2016-06-15T18:07:48Z</time></trkpt>
<trkpt lat="47.0137356" lon="7.4610807"><ele>559.8</ele><time>2016-06-15T18:08:05Z</time></trkpt>
<trkpt lat="47.0136143" lon="7.4610406"><ele>560.0</ele><time>2016-06-15T18:08:09Z</time></trkpt>
<trkpt lat="47.0133106" lon="7.4611714"><ele>560.5</ele><time>2016-06-15T18:08:22Z</time></trkpt>
<trkpt lat="47.0128724" lon="7.4613905"><ele>562.0</ele><time>2016-06-15T18:08:45Z</time></trkpt>
<trkpt lat="47.0123929" lon="7.4613837"><ele>564.4</ele><time>2016-06-15T18:09:08Z</time></trkpt>
<trkpt lat="47.0121725" lon="7.4614268"><ele>563.1</ele><time>2016-06-15T18:09:13Z</time></trkpt>
<trkpt lat="47.0117043" lon="7.4614662"><ele>561.4</ele><time>2016-06-15T18:09:21Z</time></trkpt>
<trkpt lat="47.0113354" lon="7.4615173"><ele>560.8</ele><time>2016-06-15T18:09:28Z</time></trkpt>
<trkpt lat="47.0111596" lon="7.4616592"><ele>560.7</ele><time>2016-06-15T18:09:29Z</time></trkpt>
<trkpt lat="47.0110886" lon="7.4617498"><ele>560.8</ele><time>2016-06-15T18:09:31Z</time></trkpt>
<trkpt lat="47.0111075" lon="7.4616255"><ele>560.9</ele><time>2016-06-15T18:09:32Z</time></trkpt>
<trkpt lat="47.0110594" lon="7.4616544"><ele>560.9</ele><time>2016-06-15T18:09:33Z</time></trkpt>
<trkpt lat="47.0110559" lon="7.4615494"><ele>561.0</ele><time>2016-06-15T18:09:34Z</time></trkpt>
<trkpt lat="47.0109269" lon="7.4616461"><ele>561.2</ele><time>2016-06-15T18:09:37Z</time></trkpt>
<trkpt lat="47.0107869" lon="7.4615173"><ele>561.5</ele><time>2016-06-15T18:09:43Z</time></trkpt>
<trkpt lat="47.0104776" lon="7.4610304"><ele>562.4</ele><time>2016-06-15T18:09:56Z</time></trkpt>
<trkpt lat="47.0103816" lon="7.4606650"><ele>563.0</ele><time>2016-06-15T18:10:06Z</time></trkpt>
<trkpt lat="47.0098264" lon="7.4606263"><ele>563.4</ele><time>2016-06-15T18:10:15Z</time></trkpt>
<trkpt lat="47.0093760" lon="7.4607800"><ele>562.4</ele><time>2016-06-15T18:10:24Z</time></trkpt>
<trkpt lat="47.0090645" lon="7.4608413"><ele>561.4</ele><time>2016-06-15T18:10:30Z</time></trkpt>
<trkpt lat="47.0090406" lon="7.4607971"><ele>561.3</ele><time>2016-06-15T18:10:31Z</time></trkpt>
<trkpt lat="47.0087830" lon="7.4608575"><ele>561.1</ele><time>2016-06-15T18:10:36Z</time></trkpt>
<trkpt lat="47.0087503" lon="7.4610282"><ele>561.1</ele><time>2016-06-15T18:10:37Z</time></trkpt>
<trkpt lat="47.0086907" lon="7.4610497"><ele>561.1</ele><time>2016-06-15T18:10:38Z</time></trkpt>
<trkpt lat="47.0086152" lon="7.4609174"><ele>561.0</ele><time>2016-06-15T18:10:39Z</time></trkpt>
<trkpt lat="47.0081540" lon="7.4611204"><ele>560.6</ele><time>2016-06-15T18:10:46Z</time></trkpt>
<trkpt lat="47.0078057" lon="7.4612235"><ele>560.3</ele><time>2016-06-15T18:10:52Z</time></trkpt>
<trkpt lat="47.0077610" lon="7.4612667"><ele>560.3</ele><time>2016-06-15T18:10:53Z</time></trkpt>
<trkpt lat="47.0077650" lon="7.4612923"><ele>560.2</ele><time>2016-06-15T18:10:54Z</time></trkpt>
<trkpt lat="47.0072897" lon="7.4615002"><ele>559.9</ele><time>2016-06-15T18:11:01Z</time></trkpt>
<trkpt lat="47.0072395" lon="7.4614678"><ele>559.8</ele><time>2016-06-15T18:11:02Z</time></trkpt>
<trkpt lat="47.0070473" lon="7.4615272"><ele>559.7</ele><time>2016-06-15T18:11:05Z</time></trkpt>
<trkpt lat="47.0068956" lon="7.4616404"><ele>559.5</ele><time>2016-06-15T18:11:07Z</time></trkpt>
<trkpt lat="47.0067822" lon="7.4616667"><ele>559.4</ele><time>2016-06-15T18:11:09Z</time></trkpt>
<trkpt lat="47.0065286" lon="7.4617733"><ele>559.2</ele><time>2016-06-15T18:11:14Z</time></trkpt>
<trkpt lat="47.0065307" lon="7.4617931"><ele>559.1</ele><time>2016-06-15T18:11:15Z</time></trkpt>
<trkpt lat="47.0060929" lon="7.4619901"><ele>558.8</ele><time>2016-06-15T18:11:22Z</time></trkpt>
<trkpt lat="47.0056440" lon="7.4621524"><ele>558.3</ele><time>2016-06-15T18:11:31Z</time></trkpt>
<trkpt lat="47.0052976" lon="7.4622956"><ele>558.0</ele><time>2016-06-15T18:11:37Z</time></trkpt>
<trkpt lat="47.0051523" lon="7.4624577"><ele>557.8</ele><time>2016-06-15T18:11:41Z</time></trkpt>
<trkpt lat="47.0046498" lon="7.4624905"><ele>557.9</ele><time>2016-06-15T18:11:49Z</time></trkpt>
<trkpt lat="47.0041754" lon="7.4626633"><ele>557.9</ele><time>2016-06-15T18:11:58Z</time></trkpt>
<trkpt lat="47.0040839" lon="7.4626972"><ele>557.9</ele><time>2016-06-15T18:12:00Z</time></trkpt>
<trkpt lat="47.0040029" lon="7.4626652"><ele>558.0</ele><time>2016-06-15T18:12:01Z</time></trkpt>
<trkpt lat="47.0035651" lon="7.4628532"><ele>558.0</ele><time>2016-06-15T18:12:08Z</time></trkpt>
<trkpt lat="47.0034216" lon="7.4629104"><ele>558.0</ele><time>2016-06-15T18:12:12Z</time></trkpt>
<trkpt lat="47.0033744" lon="7.4628886"><ele>558.0</ele><time>2016-06-15T18:12:14Z</time></trkpt>
<trkpt lat="47.0034120" lon="7.4629582"><ele>558.0</ele><time>2016-06-15T18:12:17Z</time></trkpt>
<trkpt lat="47.0029249" lon="7.4630174"><ele>558.1</ele><time>2016-06-15T18:12:27Z</time></trkpt>
<trkpt lat="47.0024801" lon="7.4628611"><ele>559.1</ele><time>2016-06-15T18:12:46Z</time></trkpt>
<trkpt lat="47.0020307" lon="7.4626563"><ele>560.1</ele><time>2016-06-15T18:12:58Z</time></trkpt>
<trkpt lat="47.0015912" lon="7.4624242"><ele>560.8</ele><time>2016-06-15T18:13:07Z</time></trkpt>
<trkpt lat="47.0014430" lon="7.4623449"><ele>561.2</ele><time>2016-06-15T18:13:12Z</time></trkpt>
<trkpt lat="47.0009869" lon="7.4621065"><ele>562.1</ele><time>2016-06-15T18:13:23Z</time></trkpt>
<trkpt lat="47.0005175" lon="7.4618686"><ele>562.7</ele><time>2016-06-15T18:13:32Z</time></trkpt>
<trkpt lat="47.0000693" lon="7.4616271"><ele>562.2</ele><time>2016-06-15T18:13:45Z</time></trkpt>
<trkpt lat="46.9999116" lon="7.4615417"><ele>561.9</ele><time>2016-06-15T18:13:51Z</time></trkpt>
<trkpt lat="46.9998865" lon="7.4614129"><ele>561.8</ele><time>2016-06-15T18:13:52Z</time></trkpt>
<trkpt lat="46.9995817" lon="7.4612866"><ele>561.5</ele><time>2016-06-15T18:13:58Z</time></trkpt>
<trkpt lat="46.9991487" lon="7.4609193"><ele>560.6</ele><time>2016-06-15T18:14:13Z</time></trkpt>
<trkpt lat="46.9986695" lon="7.4605275"><ele>560.0</ele><time>2016-06-15T18:14:23Z</time></trkpt>
<trkpt lat="46.9981987" lon="7.4601686"><ele>559.6</ele><time>2016-06-15T18:14:31Z</time></trkpt>
<trkpt lat="46.9977755" lon="7.4598229"><ele>559.2</ele><time>2016-06-15T18:14:38Z</time></trkpt>
<trkpt lat="46.9973601" lon="7.4594796"><ele>558.9</ele><time>2016-06-15T18:14:44Z</time></trkpt>
<trkpt lat="46.9971930" lon="7.4592833"><ele>558.9</ele><time>2016-06-15T18:14:46Z</time></trkpt>
<trkpt lat="46.9967231" lon="7.4589699"><ele>557.4</ele><time>2016-06-15T18:14:54Z</time></trkpt>
<trkpt lat="46.9961973" lon="7.4585822"><ele>556.8</ele><time>2016-06-15T18:15:00Z</time></trkpt>
<trkpt lat="46.9957505" lon="7.4582935"><ele>555.9</ele><time>2016-06-15T18:15:08Z</time></trkpt>
<trkpt lat="46.9952735" lon="7.4580290"><ele>555.0</ele><time>2016-06-15T18:15:17Z</time></trkpt>
<trkpt lat="46.9948054" lon="7.4577859"><ele>554.2</ele><time>2016-06-15T18:15:25Z</time></trkpt>
<trkpt lat="46.9943309" lon="7.4575869"><ele>553.2</ele><time>2016-06-15T18:15:31Z</time></trkpt>
<trkpt lat="46.9938886" lon="7.4574177"><ele>551.9</ele><time>2016-06-15T18:15:36Z</time></trkpt>
<trkpt lat="46.9932571" lon="7.4572099"><ele>551.2</ele><time>2016-06-15T18:15:42Z</time></trkpt>
<trkpt lat="46.9927789" lon="7.4570741"><ele>550.1</ele><time>2016-06-15T18:15:50Z</time></trkpt>
<trkpt lat="46.9926721" lon="7.4570444"><ele>549.8</ele><time>2016-06-15T18:15:52Z</time></trkpt>
<trkpt lat="46.9925648" lon="7.4570250"><ele>549.4</ele><time>2016-06-15T18:15:54Z</time></trkpt>
<trkpt lat="46.9923703" lon="7.4570186"><ele>548.7</ele><time>2016-06-15T18:15:58Z</time></trkpt>
<trkpt lat="46.9919224" lon="7.4568911"><ele>547.6</ele><time>2016-06-15T18:16:06Z</time></trkpt>
<trkpt lat="46.9914576" lon="7.4568157"><ele>546.4</ele><time>2016-06-15T18:16:13Z</time></trkpt>
<trkpt lat="46.9909625" lon="7.4567633"><ele>544.7</ele><time>2016-06-15T18:16:20Z</time></trkpt>
<trkpt lat="46.9904971" lon="7.4567627"><ele>544.4</ele><time>2016-06-15T18:16:27Z</time></trkpt>
<trkpt lat="46.9899950" lon="7.4567933"><ele>541.9</ele><time>2016-06-15T18:16:34Z</time></trkpt>
<trkpt lat="46.9893327" lon="7.4568417"><ele>540.9</ele><time>2016-06-15T18:16:39Z</time></trkpt>
<trkpt lat="46.9888733" lon="7.4568792"><ele>541.1</ele><time>2016-06-15T18:16:46Z</time></trkpt>
<trkpt lat="46.9883916" lon="7.4569226"><ele>540.0</ele><time>2016-06-15T18:16:52Z</time></trkpt>
<trkpt lat="46.9879088" lon="7.4569661"><ele>539.0</ele><time>2016-06-15T18:16:58Z</time></trkpt>
<trkpt lat="46.9874116" lon="7.4570108"><ele>537.6</ele><time>2016-06-15T18:17:04Z</time></trkpt>
<trkpt lat="46.9869215" lon="7.4570549"><ele>536.1</ele><time>2016-06-15T18:17:10Z</time></trkpt>
<trkpt lat="46.9864469" lon="7.4570951"><ele>535.7</ele><time>2016-06-15T18:17:16Z</time></trkpt>
<trkpt lat="46.9859447" lon="7.4571370"><ele>535.1</ele><time>2016-06-15T18:17:22Z</time></trkpt>
<trkpt lat="46.9854176" lon="7.4571808"><ele>533.5</ele><time>2016-06-15T18:17:29Z</time></trkpt>
<trkpt lat="46.9849317" lon="7.4572212"><ele>531.6</ele><time>2016-06-15T18:17:35Z</time></trkpt>
<trkpt lat="46.9844182" lon="7.4572639"><ele>529.7</ele><time>2016-06-15T18:17:41Z</time></trkpt>
<trkpt lat="46.9839451" lon="7.4573011"><ele>528.2</ele><time>2016-06-15T18:17:47Z</time></trkpt>
<trkpt lat="46.9837630" lon="7.4573102"><ele>527.9</ele><time>2016-06-15T18:17:49Z</time></trkpt>
<trkpt lat="46.9833146" lon="7.4571422"><ele>527.3</ele><time>2016-06-15T18:17:54Z</time></trkpt>
<trkpt lat="46.9828486" lon="7.4569061"><ele>526.4</ele><time>2016-06-15T18:18:01Z</time></trkpt>
<trkpt lat="46.9823688" lon="7.4567102"><ele>525.5</ele><time>2016-06-15T18:18:08Z</time></trkpt>
<trkpt lat="46.9819061" lon="7.4567265"><ele>524.9</ele><time>2016-06-15T18:18:12Z</time></trkpt>
<trkpt lat="46.9817916" lon="7.4567359"><ele>524.7</ele><time>2016-06-15T18:18:13Z</time></trkpt>
<trkpt lat="46.9817408" lon="7.4566670"><ele>524.6</ele><time>2016-06-15T18:18:14Z</time></trkpt>
<trkpt lat="46.9811983" lon="7.4567133"><ele>523.6</ele><time>2016-06-15T18:18:21Z</time></trkpt>
<trkpt lat="46.9808259" lon="7.4567438"><ele>522.6</ele><time>2016-06-15T18:18:26Z</time></trkpt>
<trkpt lat="46.9807557" lon="7.4566906"><ele>522.2</ele><time>2016-06-15T18:18:27Z</time></trkpt>
<trkpt lat="46.9806985" lon="7.4567292"><ele>521.8</ele><time>2016-06-15T18:18:28Z</time></trkpt>
<trkpt lat="46.9806773" lon="7.4566011"><ele>521.0</ele><time>2016-06-15T18:18:30Z</time></trkpt>
<trkpt lat="46.9806457" lon="7.4567381"><ele>521.3</ele><time>2016-06-15T18:18:31Z</time></trkpt>
<trkpt lat="46.9805904" lon="7.4567094"><ele>521.6</ele><time>2016-06-15T18:18:32Z</time></trkpt>
<trkpt lat="46.9801329" lon="7.4568789"><ele>522.7</ele><time>2016-06-15T18:18:38Z</time></trkpt>
<trkpt lat="46.9796487" lon="7.4569286"><ele>522.1</ele><time>2016-06-15T18:18:50Z</time></trkpt>
<trkpt lat="46.9791621" lon="7.4569670"><ele>521.6</ele><time>2016-06-15T18:19:00Z</time></trkpt>
<trkpt lat="46.9789757" lon="7.4569800"><ele>521.5</ele><time>2016-06-15T18:19:03Z</time></trkpt>
<trkpt lat="46.9789288" lon="7.4570256"><ele>521.4</ele><time>2016-06-15T18:19:04Z</time></trkpt>
<trkpt lat="46.9784560" lon="7.4570243"><ele>521.0</ele><time>2016-06-15T18:19:13Z</time></trkpt>
<trkpt lat="46.9779600" lon="7.4570358"><ele>520.5</ele><time>2016-06-15T18:19:23Z</time></trkpt>
<trkpt lat="46.9774865" lon="7.4569634"><ele>518.2</ele><time>2016-06-15T18:19:32Z</time></trkpt>
<trkpt lat="46.9770008" lon="7.4568268"><ele>511.6</ele><time>2016-06-15T18:19:41Z</time></trkpt>
<trkpt lat="46.9765618" lon="7.4566368"><ele>516.7</ele><time>2016-06-15T18:19:50Z</time></trkpt>
<trkpt lat="46.9760983" lon="7.4564812"><ele>521.3</ele><time>2016-06-15T18:20:01Z</time></trkpt>
<trkpt lat="46.9756621" lon="7.4562594"><ele>522.5</ele><time>2016-06-15T18:20:10Z</time></trkpt>
<trkpt lat="46.9754634" lon="7.4560450"><ele>522.9</ele><time>2016-06-15T18:20:14Z</time></trkpt>
<trkpt lat="46.9755976" lon="7.4562061"><ele>523.0</ele><time>2016-06-15T18:20:15Z</time></trkpt>
<trkpt lat="46.9752743" lon="7.4556906"><ele>524.7</ele><time>2016-06-15T18:20:31Z</time></trkpt>
<trkpt lat="46.9749688" lon="7.4551891"><ele>528.3</ele><time>2016-06-15T18:20:48Z</time></trkpt>
<trkpt lat="46.9747323" lon="7.4545781"><ele>529.8</ele><time>2016-06-15T18:21:01Z</time></trkpt>
<trkpt lat="46.9743900" lon="7.4540639"><ele>530.5</ele><time>2016-06-15T18:21:13Z</time></trkpt>
<trkpt lat="46.9743432" lon="7.4539328"><ele>530.6</ele><time>2016-06-15T18:21:17Z</time></trkpt>
<trkpt lat="46.9741729" lon="7.4534218"><ele>530.9</ele><time>2016-06-15T18:21:27Z</time></trkpt>
<trkpt lat="46.9738791" lon="7.4528944"><ele>531.3</ele><time>2016-06-15T18:21:39Z</time></trkpt>
<trkpt lat="46.9737168" lon="7.4523269"><ele>531.4</ele><time>2016-06-15T18:21:46Z</time></trkpt>
<trkpt lat="46.9737313" lon="7.4522022"><ele>531.0</ele><time>2016-06-15T18:21:52Z</time></trkpt>
<trkpt lat="46.9734704" lon="7.4516169"><ele>531.7</ele><time>2016-06-15T18:22:05Z</time></trkpt>
<trkpt lat="46.9732646" lon="7.4510041"><ele>532.4</ele><time>2016-06-15T18:22:20Z</time></trkpt>
<trkpt lat="46.9729745" lon="7.4504584"><ele>532.4</ele><time>2016-06-15T18:22:33Z</time></trkpt>
<trkpt lat="46.9727491" lon="7.4498380"><ele>531.1</ele><time>2016-06-15T18:22:48Z</time></trkpt>
<trkpt lat="46.9724181" lon="7.4493095"><ele>530.4</ele><time>2016-06-15T18:22:59Z</time></trkpt>
<trkpt lat="46.9723298" lon="7.4489564"><ele>530.7</ele><time>2016-06-15T18:23:03Z</time></trkpt>
<trkpt lat="46.9722435" lon="7.4487652"><ele>530.4</ele><time>2016-06-15T18:23:06Z</time></trkpt>
<trkpt lat="46.9722590" lon="7.4486209"><ele>529.7</ele><time>2016-06-15T18:23:09Z</time></trkpt>
<trkpt lat="46.9721947" lon="7.4485639"><ele>529.3</ele><time>2016-06-15T18:23:11Z</time></trkpt>
<trkpt lat="46.9721825" lon="7.4485021"><ele>529.1</ele><time>2016-06-15T18:23:12Z</time></trkpt>
<trkpt lat="46.9720702" lon="7.4483721"><ele>528.7</ele><time>2016-06-15T18:23:14Z</time></trkpt>
<trkpt lat="46.9718582" lon="7.4477607"><ele>527.8</ele><time>2016-06-15T18:23:26Z</time></trkpt>
<trkpt lat="46.9717276" lon="7.4472843"><ele>530.1</ele><time>2016-06-15T18:23:34Z</time></trkpt>
<trkpt lat="46.9715721" lon="7.4469559"><ele>531.9</ele><time>2016-06-15T18:23:40Z</time></trkpt>
<trkpt lat="46.9716424" lon="7.4467349"><ele>532.2</ele><time>2016-06-15T18:23:41Z</time></trkpt>
<trkpt lat="46.9716021" lon="7.4467544"><ele>532.5</ele><time>2016-06-15T18:23:42Z</time></trkpt>
<trkpt lat="46.9716064" lon="7.4466824"><ele>532.5</ele><time>2016-06-15T18:23:43Z</time></trkpt>
<trkpt lat="46.9714644" lon="7.4465619"><ele>532.7</ele><time>2016-06-15T18:23:45Z</time></trkpt>
<trkpt lat="46.9714037" lon="7.4465503"><ele>532.7</ele><time>2016-06-15T18:23:46Z</time></trkpt>
<trkpt lat="46.9713770" lon="7.4464934"><ele>532.8</ele><time>2016-06-15T18:23:47Z</time></trkpt>
<trkpt lat="46.9712932" lon="7.4464230"><ele>532.9</ele><time>2016-06-15T18:23:48Z</time></trkpt>
<trkpt lat="46.9712650" lon="7.4463248"><ele>533.1</ele><time>2016-06-15T18:23:52Z</time></trkpt>
<trkpt lat="46.9711939" lon="7.4462360"><ele>533.2</ele><time>2016-06-15T18:23:53Z</time></trkpt>
<trkpt lat="46.9711757" lon="7.4461542"><ele>533.1</ele><time>2016-06-15T18:23:54Z</time></trkpt>
<trkpt lat="46.9710636" lon="7.4460819"><ele>532.8</ele><time>2016-06-15T18:23:56Z</time></trkpt>
<trkpt lat="46.9709425" lon="7.4458878"><ele>532.8</ele><time>2016-06-15T18:24:01Z</time></trkpt>
<trkpt lat="46.9709471" lon="7.4458447"><ele>533.2</ele><time>2016-06-15T18:24:03Z</time></trkpt>
<trkpt lat="46.9707560" lon="7.4457288"><ele>533.9</ele><time>2016-06-15T18:24:07Z</time></trkpt>
<trkpt lat="46.9705078" lon="7.4453571"><ele>533.9</ele><time>2016-06-15T18:24:15Z</time></trkpt>
<trkpt lat="46.9703515" lon="7.4452262"><ele>533.8</ele><time>2016-06-15T18:24:16Z</time></trkpt>
<trkpt lat="46.9702390" lon="7.4451910"><ele>533.1</ele><time>2016-06-15T18:24:18Z</time></trkpt>
<trkpt lat="46.9702034" lon="7.4451449"><ele>532.8</ele><time>2016-06-15T18:24:19Z</time></trkpt>
<trkpt lat="46.9701182" lon="7.4451730"><ele>532.5</ele><time>2016-06-15T18:24:20Z</time></trkpt>
<trkpt lat="46.9700844" lon="7.4451383"><ele>532.1</ele><time>2016-06-15T18:24:21Z</time></trkpt>
<trkpt lat="46.9701017" lon="7.4450377"><ele>531.8</ele><time>2016-06-15T18:24:22Z</time></trkpt>
<trkpt lat="46.9700363" lon="7.4448835"><ele>532.0</ele><time>2016-06-15T18:24:24Z</time></trkpt>
<trkpt lat="46.9698896" lon="7.4450032"><ele>532.1</ele><time>2016-06-15T18:24:26Z</time></trkpt>
<trkpt lat="46.9698171" lon="7.4449211"><ele>532.3</ele><time>2016-06-15T18:24:28Z</time></trkpt>
<trkpt lat="46.9697099" lon="7.4448475"><ele>533.5</ele><time>2016-06-15T18:24:32Z</time></trkpt>
<trkpt lat="46.9697073" lon="7.4447290"><ele>533.8</ele><time>2016-06-15T18:24:33Z</time></trkpt>
<trkpt lat="46.9697368" lon="7.4445761"><ele>535.4</ele><time>2016-06-15T18:24:35Z</time></trkpt>
<trkpt lat="46.9697149" lon="7.4441408"><ele>537.9</ele><time>2016-06-15T18:24:37Z</time></trkpt>
<trkpt lat="46.9696356" lon="7.4441808"><ele>540.4</ele><time>2016-06-15T18:24:39Z</time></trkpt>
<trkpt lat="46.9696080" lon="7.4440982"><ele>540.2</ele><time>2016-06-15T18:24:40Z</time></trkpt>
<trkpt lat="46.9695654" lon="7.4440601"><ele>540.1</ele><time>2016-06-15T18:24:41Z</time></trkpt>
<trkpt lat="46.9694910" lon="7.4440718"><ele>540.0</ele><time>2016-06-15T18:24:42Z</time></trkpt>
<trkpt lat="46.9693931" lon="7.4439833"><ele>539.8</ele><time>2016-06-15T18:24:44Z</time></trkpt>
<trkpt lat="46.9692440" lon="7.4439776"><ele>539.6</ele><time>2016-06-15T18:24:46Z</time></trkpt>
<trkpt lat="46.9691259" lon="7.4436941"><ele>539.1</ele><time>2016-06-15T18:24:50Z</time></trkpt>
<trkpt lat="46.9689796" lon="7.4435515"><ele>537.8</ele><time>2016-06-15T18:24:54Z</time></trkpt>
<trkpt lat="46.9688250" lon="7.4436411"><ele>537.5</ele><time>2016-06-15T18:24:55Z</time></trkpt>
<trkpt lat="46.9687436" lon="7.4435547"><ele>535.4</ele><time>2016-06-15T18:24:58Z</time></trkpt>
<trkpt lat="46.9685063" lon="7.4438136"><ele>532.9</ele><time>2016-06-15T18:25:01Z</time></trkpt>
<trkpt lat="46.9684872" lon="7.4437696"><ele>532.0</ele><time>2016-06-15T18:25:02Z</time></trkpt>
<trkpt lat="46.9683584" lon="7.4437496"><ele>532.3</ele><time>2016-06-15T18:25:05Z</time></trkpt>
<trkpt lat="46.9682942" lon="7.4437772"><ele>532.4</ele><time>2016-06-15T18:25:06Z</time></trkpt>
<trkpt lat="46.9680079" lon="7.4436853"><ele>533.1</ele><time>2016-06-15T18:25:13Z</time></trkpt>
<trkpt lat="46.9676659" lon="7.4437421"><ele>533.2</ele><time>2016-06-15T18:25:21Z</time></trkpt>
<trkpt lat="46.9674426" lon="7.4437867"><ele>532.5</ele><time>2016-06-15T18:25:24Z</time></trkpt>
<trkpt lat="46.9673718" lon="7.4437911"><ele>531.4</ele><time>2016-06-15T18:25:27Z</time></trkpt>
<trkpt lat="46.9673232" lon="7.4438486"><ele>531.0</ele><time>2016-06-15T18:25:28Z</time></trkpt>
<trkpt lat="46.9671842" lon="7.4438008"><ele>530.6</ele><time>2016-06-15T18:25:29Z</time></trkpt>
<trkpt lat="46.9672183" lon="7.4437748"><ele>530.3</ele><time>2016-06-15T18:25:30Z</time></trkpt>
<trkpt lat="46.9673573" lon="7.4438442"><ele>530.9</ele><time>2016-06-15T18:25:32Z</time></trkpt>
<trkpt lat="46.9673290" lon="7.4438921"><ele>531.2</ele><time>2016-06-15T18:25:33Z</time></trkpt>
<trkpt lat="46.9671192" lon="7.4437659"><ele>532.4</ele><time>2016-06-15T18:25:37Z</time></trkpt>
<trkpt lat="46.9671304" lon="7.4437250"><ele>532.7</ele><time>2016-06-15T18:25:38Z</time></trkpt>
<trkpt lat="46.9670771" lon="7.4437048"><ele>533.0</ele><time>2016-06-15T18:25:39Z</time></trkpt>
<trkpt lat="46.9670331" lon="7.4436165"><ele>533.3</ele><time>2016-06-15T18:25:40Z</time></trkpt>
<trkpt lat="46.9668904" lon="7.4436458"><ele>533.9</ele><time>2016-06-15T18:25:42Z</time></trkpt>
<trkpt lat="46.9667024" lon="7.4434521"><ele>537.6</ele><time>2016-06-15T18:25:45Z</time></trkpt>
<trkpt lat="46.9667036" lon="7.4433531"><ele>538.8</ele><time>2016-06-15T18:25:46Z</time></trkpt>
<trkpt lat="46.9664724" lon="7.4433034"><ele>540.9</ele><time>2016-06-15T18:25:49Z</time></trkpt>
<trkpt lat="46.9664506" lon="7.4432159"><ele>540.4</ele><time>2016-06-15T18:25:50Z</time></trkpt>
<trkpt lat="46.9661387" lon="7.4434526"><ele>537.9</ele><time>2016-06-15T18:25:55Z</time></trkpt>
<trkpt lat="46.9660659" lon="7.4434229"><ele>537.4</ele><time>2016-06-15T18:25:56Z</time></trkpt>
<trkpt lat="46.9660538" lon="7.4433534"><ele>536.9</ele><time>2016-06-15T18:25:57Z</time></trkpt>
<trkpt lat="46.9659131" lon="7.4433084"><ele>536.5</ele><time>2016-06-15T18:25:59Z</time></trkpt>
<trkpt lat="46.9658110" lon="7.4433144"><ele>536.6</ele><time>2016-06-15T18:26:01Z</time></trkpt>
<trkpt lat="46.9657784" lon="7.4432893"><ele>536.7</ele><time>2016-06-15T18:26:02Z</time></trkpt>
<trkpt lat="46.9657337" lon="7.4433087"><ele>536.7</ele><time>2016-06-15T18:26:03Z</time></trkpt>
<trkpt lat="46.9655562" lon="7.4432601"><ele>536.8</ele><time>2016-06-15T18:26:04Z</time></trkpt>
<trkpt lat="46.9654725" lon="7.4432167"><ele>537.0</ele><time>2016-06-15T18:26:07Z</time></trkpt>
<trkpt lat="46.9654514" lon="7.4432568"><ele>537.1</ele><time>2016-06-15T18:26:08Z</time></trkpt>
<trkpt lat="46.9653684" lon="7.4432386"><ele>537.1</ele><time>2016-06-15T18:26:09Z</time></trkpt>
<trkpt lat="46.9654025" lon="7.4430339"><ele>537.2</ele><time>2016-06-15T18:26:10Z</time></trkpt>
<trkpt lat="46.9652145" lon="7.4429837"><ele>538.4</ele><time>2016-06-15T18:26:13Z</time></trkpt>
<trkpt lat="46.9650863" lon="7.4429844"><ele>538.8</ele><time>2016-06-15T18:26:14Z</time></trkpt>
<trkpt lat="46.9646439" lon="7.4427185"><ele>540.1</ele><time>2016-06-15T18:26:21Z</time></trkpt>
<trkpt lat="46.9645060" lon="7.4424819"><ele>540.4</ele><time>2016-06-15T18:26:22Z</time></trkpt>
<trkpt lat="46.9643756" lon="7.4423958"><ele>540.8</ele><time>2016-06-15T18:26:24Z</time></trkpt>
<trkpt lat="46.9642567" lon="7.4425221"><ele>541.1</ele><time>2016-06-15T18:26:25Z</time></trkpt>
<trkpt lat="46.9638300" lon="7.4422186"><ele>539.1</ele><time>2016-06-15T18:26:34Z</time></trkpt>
<trkpt lat="46.9636981" lon="7.4421458"><ele>538.9</ele><time>2016-06-15T18:26:36Z</time></trkpt>
<trkpt lat="46.9637175" lon="7.4419677"><ele>539.4</ele><time>2016-06-15T18:26:39Z</time></trkpt>
<trkpt lat="46.9636361" lon="7.4419360"><ele>539.9</ele><time>2016-06-15T18:26:40Z</time></trkpt>
<trkpt lat="46.9635880" lon="7.4418101"><ele>541.0</ele><time>2016-06-15T18:26:42Z</time></trkpt>
<trkpt lat="46.9634573" lon="7.4417737"><ele>542.5</ele><time>2016-06-15T18:26:45Z</time></trkpt>
<trkpt lat="46.9634032" lon="7.4417193"><ele>542.9</ele><time>2016-06-15T18:26:46Z</time></trkpt>
<trkpt lat="46.9633207" lon="7.4415489"><ele>543.7</ele><time>2016-06-15T18:26:48Z</time></trkpt>
<trkpt lat="46.9632681" lon="7.4415213"><ele>544.2</ele><time>2016-06-15T18:26:49Z</time></trkpt>
<trkpt lat="46.9632072" lon="7.4413815"><ele>545.0</ele><time>2016-06-15T18:26:51Z</time></trkpt>
<trkpt lat="46.9632096" lon="7.4412326"><ele>545.4</ele><time>2016-06-15T18:26:52Z</time></trkpt>
<trkpt lat="46.9631431" lon="7.4412287"><ele>545.8</ele><time>2016-06-15T18:26:53Z</time></trkpt>
<trkpt lat="46.9631129" lon="7.4411250"><ele>546.2</ele><time>2016-06-15T18:26:54Z</time></trkpt>
<trkpt lat="46.9627293" lon="7.4407683"><ele>543.4</ele><time>2016-06-15T18:27:00Z</time></trkpt>
<trkpt lat="46.9623122" lon="7.4404647"><ele>539.5</ele><time>2016-06-15T18:27:06Z</time></trkpt>
<trkpt lat="46.9617682" lon="7.4399700"><ele>549.3</ele><time>2016-06-15T18:27:15Z</time></trkpt>
<trkpt lat="46.9612090" lon="7.4400978"><ele>552.0</ele><time>2016-06-15T18:27:17Z</time></trkpt>
<trkpt lat="46.9611448" lon="7.4400448"><ele>556.0</ele><time>2016-06-15T18:27:20Z</time></trkpt>
<trkpt lat="46.9610849" lon="7.4399035"><ele>557.3</ele><time>2016-06-15T18:27:21Z</time></trkpt>
<trkpt lat="46.9610657" lon="7.4403965"><ele>554.7</ele><time>2016-06-15T18:27:22Z</time></trkpt>
<trkpt lat="46.9608934" lon="7.4405064"><ele>552.0</ele><time>2016-06-15T18:27:23Z</time></trkpt>
<trkpt lat="46.9609021" lon="7.4403328"><ele>546.8</ele><time>2016-06-15T18:27:25Z</time></trkpt>
<trkpt lat="46.9608507" lon="7.4402511"><ele>541.5</ele><time>2016-06-15T18:27:27Z</time></trkpt>
<trkpt lat="46.9606139" lon="7.4401797"><ele>537.9</ele><time>2016-06-15T18:27:31Z</time></trkpt>
<trkpt lat="46.9605503" lon="7.4402279"><ele>536.3</ele><time>2016-06-15T18:27:33Z</time></trkpt>
<trkpt lat="46.9604652" lon="7.4402122"><ele>535.1</ele><time>2016-06-15T18:27:35Z</time></trkpt>
<trkpt lat="46.9603409" lon="7.4402732"><ele>533.8</ele><time>2016-06-15T18:27:37Z</time></trkpt>
<trkpt lat="46.9601945" lon="7.4401875"><ele>532.6</ele><time>2016-06-15T18:27:41Z</time></trkpt>
<trkpt lat="46.9601416" lon="7.4402391"><ele>532.2</ele><time>2016-06-15T18:27:43Z</time></trkpt>
<trkpt lat="46.9600843" lon="7.4402410"><ele>532.0</ele><time>2016-06-15T18:27:44Z</time></trkpt>
<trkpt lat="46.9601201" lon="7.4402604"><ele>531.7</ele><time>2016-06-15T18:27:45Z</time></trkpt>
<trkpt lat="46.9600907" lon="7.4402712"><ele>531.5</ele><time>2016-06-15T18:27:46Z</time></trkpt>
<trkpt lat="46.9598987" lon="7.4402876"><ele>530.9</ele><time>2016-06-15T18:27:51Z</time></trkpt>
<trkpt lat="46.9597569" lon="7.4402254"><ele>530.9</ele><time>2016-06-15T18:27:53Z</time></trkpt>
<trkpt lat="46.9597334" lon="7.4400707"><ele>531.0</ele><time>2016-06-15T18:27:54Z</time></trkpt>
<trkpt lat="46.9596527" lon="7.4400352"><ele>531.6</ele><time>2016-06-15T18:27:55Z</time></trkpt>
<trkpt lat="46.9596087" lon="7.4401737"><ele>532.3</ele><time>2016-06-15T18:27:56Z</time></trkpt>
<trkpt lat="46.9595493" lon="7.4399896"><ele>533.0</ele><time>2016-06-15T18:27:57Z</time></trkpt>
<trkpt lat="46.9589765" lon="7.4397446"><ele>535.2</ele><time>2016-06-15T18:28:03Z</time></trkpt>
<trkpt lat="46.9585463" lon="7.4395470"><ele>536.1</ele><time>2016-06-15T18:28:13Z</time></trkpt>
<trkpt lat="46.9580035" lon="7.4389349"><ele>544.6</ele><time>2016-06-15T18:28:21Z</time></trkpt>
</trkseg>
<trkseg>
<trkpt lat="46.9580035" lon="7.4389349"><ele>544.6</ele><time>2016-06-15T18:28:46Z</time></trkpt>
<trkpt lat="46.9576563" lon="7.4385113"><ele>552.1</ele><time>2016-06-15T18:28:54Z</time></trkpt>
<trkpt lat="46.9573322" lon="7.4383243"><ele>554.5</ele><time>2016-06-15T18:29:16Z</time></trkpt>
<trkpt lat="46.9568865" lon="7.4379933"><ele>555.3</ele><time>2016-06-15T18:29:23Z</time></trkpt>
</trkseg>
<trkseg>
<trkpt lat="46.9568865" lon="7.4379933"><ele>555.3</ele><time>2016-06-15T18:29:50Z</time></trkpt>
<trkpt lat="46.9567645" lon="7.4378546"><ele>555.9</ele><time>2016-06-15T18:29:51Z</time></trkpt>
<trkpt lat="46.9571552" lon="7.4374758"><ele>558.5</ele><time>2016-06-15T18:30:08Z</time></trkpt>
<trkpt lat="46.9575662" lon="7.4371712"><ele>559.6</ele><time>2016-06-15T18:30:21Z</time></trkpt>
<trkpt lat="46.9578253" lon="7.4369324"><ele>560.4</ele><time>2016-06-15T18:30:30Z</time></trkpt>
<trkpt lat="46.9582325" lon="7.4366205"><ele>561.3</ele><time>2016-06-15T18:30:41Z</time></trkpt>
<trkpt lat="46.9586180" lon="7.4362690"><ele>562.6</ele><time>2016-06-15T18:30:55Z</time></trkpt>
<trkpt lat="46.9587905" lon="7.4359819"><ele>563.3</ele><time>2016-06-15T18:31:01Z</time></trkpt>
<trkpt lat="46.9587430" lon="7.4357424"><ele>563.7</ele><time>2016-06-15T18:31:04Z</time></trkpt>
<trkpt lat="46.9584670" lon="7.4351890"><ele>563.7</ele><time>2016-06-15T18:31:22Z</time></trkpt>
<trkpt lat="46.9581617" lon="7.4346941"><ele>563.8</ele><time>2016-06-15T18:31:34Z</time></trkpt>
<trkpt lat="46.9578524" lon="7.4341874"><ele>563.8</ele><time>2016-06-15T18:31:44Z</time></trkpt>
<trkpt lat="46.9576675" lon="7.4340948"><ele>563.8</ele><time>2016-06-15T18:31:48Z</time></trkpt>
<trkpt lat="46.9575222" lon="7.4336895"><ele>563.8</ele><time>2016-06-15T18:31:55Z</time></trkpt>
<trkpt lat="46.9572060" lon="7.4331031"><ele>563.8</ele><time>2016-06-15T18:32:07Z</time></trkpt>
</trkseg>
</trk>
<extensions>
<abvio:xmlVersion>1</abvio:xmlVersion>
<abvio:appInstanceID>805f4ad54ed0cb5c</abvio:appInstanceID>
<abvio:runID>792</abvio:runID>
<abvio:routeID>0</abvio:routeID>
<abvio:activityName><![CDATA[Tandem]]></abvio:activityName>
<abvio:activityTypeID>3</abvio:activityTypeID>
<abvio:activitySpeedBased>0</abvio:activitySpeedBased>
<abvio:startTime>2016-06-15 16:00:25.645</abvio:startTime>
<abvio:startTimeZone>Europe/Zurich</abvio:startTimeZone>
<abvio:runTime>7207.362</abvio:runTime>
<abvio:stoppedTime>1962.792</abvio:stoppedTime>
<abvio:badGPSTime>278.044</abvio:badGPSTime>
<abvio:distance>35718.6</abvio:distance>
<abvio:ascent>230.3</abvio:ascent>
<abvio:descent>241.8</abvio:descent>
<abvio:calories>923.333</abvio:calories>
<abvio:maxSpeed>14.6</abvio:maxSpeed>
<abvio:minPace>0.068</abvio:minPace>
<abvio:avgHeartRate>0</abvio:avgHeartRate>
<abvio:maxHeartRate>0</abvio:maxHeartRate>
<abvio:avgWheelRPM>0</abvio:avgWheelRPM>
<abvio:maxWheelRPM>0</abvio:maxWheelRPM>
<abvio:avgCrankRPM>-1</abvio:avgCrankRPM>
<abvio:maxCrankRPM>-1</abvio:maxCrankRPM>
<abvio:avgPower>-1</abvio:avgPower>
<abvio:maxPower>-1</abvio:maxPower>
<abvio:thresholdPower>0</abvio:thresholdPower>
<abvio:adjustedPower>-1</abvio:adjustedPower>
<abvio:powerIntensity>0.000</abvio:powerIntensity>
<abvio:powerScore>-1</abvio:powerScore>
<abvio:peakPower20Sec>-1</abvio:peakPower20Sec>
<abvio:peakPower1Min>-1</abvio:peakPower1Min>
<abvio:peakPower5Min>-1</abvio:peakPower5Min>
<abvio:peakPower10Min>-1</abvio:peakPower10Min>
<abvio:peakPower20Min>-1</abvio:peakPower20Min>
<abvio:peakPower1Hr>-1</abvio:peakPower1Hr>
<abvio:weight>68.0</abvio:weight>
<abvio:age>57</abvio:age>
<abvio:genderMale>1</abvio:genderMale>
<abvio:vo2Max>0.0</abvio:vo2Max>
<abvio:wheelSize>0.00</abvio:wheelSize>
<abvio:official>0</abvio:official>
<abvio:runEditFlags>128</abvio:runEditFlags>
<abvio:dontLoadRunData>0</abvio:dontLoadRunData>
<abvio:batteryUsage>0.12</abvio:batteryUsage>
<abvio:pathOnly>0</abvio:pathOnly>
<abvio:competitorInitials><![CDATA[]]></abvio:competitorInitials>
<abvio:stopDetection>1</abvio:stopDetection>
<abvio:caloriesUseElevation>1</abvio:caloriesUseElevation>
<abvio:notes><![CDATA[Bäriswil - Münchringen]]></abvio:notes>
<abvio:coordinateHasSpeed>1</abvio:coordinateHasSpeed>
<abvio:altitudeHasDistanceDelta>0</abvio:altitudeHasDistanceDelta>
<abvio:altitudeHasClimbSpeed>1</abvio:altitudeHasClimbSpeed>
<abvio:altitudeHasLongAltitude>1</abvio:altitudeHasLongAltitude>
<abvio:useIndoors>0</abvio:useIndoors>
<abvio:bikeID>1</abvio:bikeID>
<abvio:bikeName><![CDATA[Neues Fahrrad]]></abvio:bikeName>
<abvio:shoesID>0</abvio:shoesID>
<abvio:useSteps>0</abvio:useSteps>
<abvio:useStepDistance>0</abvio:useStepDistance>
<abvio:stepLength>-1.000</abvio:stepLength>
<abvio:steps>-1</abvio:steps>
<abvio:grossSteps>0</abvio:grossSteps>
<abvio:maxStepsPM>-1</abvio:maxStepsPM>
<abvio:avgStepsPM>-1</abvio:avgStepsPM>
<abvio:minTemperature>-200.0</abvio:minTemperature>
<abvio:avgTemperature>-200.0</abvio:avgTemperature>
<abvio:maxTemperature>-200.0</abvio:maxTemperature>
<abvio:pathname><![CDATA[]]></abvio:pathname>
<abvio:runStateTable>
0.000,1,0
9170.154,2,0
</abvio:runStateTable>
<abvio:stopDetectionTable>
0.000,0
35.444,3
67.436,2
959.444,3
1001.453,2
1176.442,3
1197.463,2
1227.462,3
1752.439,2
2873.431,3
2972.450,2
3014.457,3
3716.455,2
4109.444,3
4137.462,2
4479.446,3
4501.459,2
5030.380,3
5068.411,2
5362.453,3
5385.436,2
5736.447,3
5758.419,2
5989.453,3
6077.451,2
7132.446,3
7306.463,2
7541.453,3
7562.445,2
7562.445,3
7567.470,2
8875.451,3
8900.440,2
8937.413,3
8958.432,2
8958.432,3
8960.434,2
8960.434,3
8964.433,2
9101.435,3
9170.154,1
</abvio:stopDetectionTable>
<abvio:coordinateTable>
35.444,46.9576012,7.4338599,0.0,1.5,3.1
38.452,46.9575454,7.4338771,6.3,1.5,3.1
40.453,46.9576137,7.4339353,8.8,1.5,3.1
63.435,46.9575867,7.4340208,7.2,0.7,3.1
64.437,46.9576165,7.4340993,6.8,1.3,3.1
69.435,46.9578716,7.4343811,35.6,4.5,3.1
71.433,46.9579259,7.4344110,6.5,5.3,3.1
75.441,46.9579910,7.4346180,17.3,5.0,3.1
87.450,46.9582917,7.4351387,51.8,4.3,3.1
89.443,46.9584285,7.4352849,18.8,5.2,3.1
90.447,46.9584266,7.4353162,2.4,5.0,3.1
92.440,46.9584967,7.4354257,11.4,5.3,3.1
99.450,46.9585422,7.4356602,18.6,3.3,3.1
107.446,46.9588743,7.4360512,47.4,5.0,3.7
123.444,46.9590318,7.4366849,51.3,3.3,4.5
127.448,46.9591407,7.4369550,23.9,4.3,4.5
132.443,46.9591573,7.4374260,35.9,6.3,4.6
133.442,46.9591310,7.4375029,6.5,6.3,4.7
142.437,46.9592668,7.4381536,51.8,7.0,4.8
143.439,46.9592513,7.4381638,1.9,5.4,4.8
145.441,46.9592497,7.4382962,10.1,5.3,4.9
146.442,46.9591821,7.4383542,8.7,5.6,5.0
156.426,46.9591561,7.4388498,37.8,5.4,5.0
162.440,46.9593656,7.4391550,32.9,5.9,4.9
182.444,46.9598032,7.4392376,49.0,3.3,5.0
193.447,46.9599568,7.4392925,17.6,2.1,4.2
216.438,46.9604010,7.4391837,50.1,2.4,3.2
228.451,46.9607366,7.4391432,37.4,3.6,2.7
232.447,46.9608134,7.4391939,9.4,3.0,2.6
240.439,46.9609911,7.4391553,20.0,2.6,2.4
255.451,46.9614262,7.4393455,50.5,3.6,2.8
265.448,46.9616332,7.4395819,29.2,2.9,2.9
272.453,46.9619245,7.4396388,32.7,3.8,3.2
279.449,46.9622407,7.4398861,39.9,5.6,3.7
281.459,46.9623350,7.4400164,14.4,6.3,3.7
288.451,46.9625918,7.4401000,29.3,5.5,3.8
309.431,46.9629623,7.4405037,51.4,1.5,3.7
328.450,46.9633515,7.4408649,51.3,2.6,3.5
342.436,46.9637114,7.4412716,50.6,3.8,3.0
362.450,46.9641253,7.4415956,52.2,2.9,2.7
364.449,46.9643360,7.4416700,24.1,4.7,3.1
366.447,46.9644026,7.4416655,7.4,5.3,3.2
367.448,46.9645010,7.4415989,12.1,6.3,3.4
369.453,46.9646086,7.4416712,13.2,7.1,3.5
370.457,46.9647597,7.4416736,16.8,6.9,3.6
376.440,46.9650991,7.4418881,41.1,8.2,4.2
377.440,46.9652078,7.4417176,17.7,9.3,4.4
397.435,46.9656025,7.4418687,45.4,2.3,4.4
398.434,46.9656177,7.4420127,11.1,2.8,4.5
408.433,46.9658903,7.4421333,31.7,4.0,4.6
409.440,46.9659775,7.4420470,11.7,4.4,4.7
415.438,46.9663961,7.4422941,50.2,7.6,5.3
422.440,46.9668713,7.4425931,57.5,7.7,5.9
426.435,46.9672878,7.4428626,50.6,9.8,6.3
431.439,46.9677740,7.4431812,59.2,11.7,6.6
435.441,46.9681855,7.4434865,51.3,12.6,7.0
442.462,46.9686592,7.4437152,55.5,9.7,6.9
444.457,46.9688145,7.4439641,25.6,9.4,7.2
447.442,46.9690508,7.4440394,26.9,8.7,7.5
459.440,46.9694505,7.4443612,50.7,3.5,7.8
477.453,46.9698528,7.4447017,51.7,3.0,6.9
493.459,46.9702870,7.4450814,56.3,4.1,5.0
506.453,46.9707136,7.4454471,55.0,4.2,3.8
520.451,46.9711075,7.4457758,50.4,3.2,3.5
532.456,46.9715102,7.4461433,52.8,4.5,3.8
542.450,46.9718803,7.4465847,53.1,5.4,4.3
551.450,46.9722787,7.4471508,61.8,6.7,4.9
562.450,46.9726503,7.4476456,55.9,4.9,4.8
571.436,46.9730041,7.4481096,52.9,5.9,5.1
577.447,46.9732138,7.4485524,41.0,6.5,5.5
581.434,46.9732360,7.4489405,29.6,7.0,5.7
582.428,46.9732093,7.4490317,7.5,7.2,5.8
583.443,46.9732096,7.4491307,7.5,7.3,5.8
587.460,46.9734779,7.4496564,49.9,9.2,6.4
588.462,46.9734919,7.4497442,6.9,9.3,6.4
589.458,46.9736003,7.4498299,13.7,10.1,6.6
592.458,46.9737720,7.4501654,31.9,11.0,6.9
594.460,46.9737849,7.4503837,16.7,10.8,7.0
598.459,46.9736869,7.4507028,26.6,8.7,7.2
599.460,46.9735784,7.4508412,16.0,7.4,7.1
602.461,46.9735591,7.4508818,3.8,6.5,7.0
605.462,46.9735029,7.4509108,6.6,4.8,6.9
607.453,46.9735090,7.4509844,5.6,4.4,6.8
608.456,46.9733306,7.4511079,21.9,5.6,7.1
609.455,46.9734035,7.4511582,9.0,5.9,7.1
614.457,46.9734354,7.4511021,5.5,4.3,6.7
615.452,46.9732100,7.4513265,30.3,4.3,6.7
618.453,46.9735204,7.4511364,37.4,4.5,6.5
629.451,46.9732501,7.4513174,33.1,4.2,6.4
630.457,46.9732333,7.4513178,1.9,2.7,6.2
635.460,46.9733466,7.4513872,13.7,4.2,6.2
642.453,46.9735960,7.4520159,55.3,7.1,6.2
652.454,46.9739258,7.4527555,67.2,5.5,5.3
660.466,46.9741972,7.4534333,59.8,10.6,5.6
665.450,46.9744344,7.4540257,52.2,10.4,6.3
671.442,46.9746770,7.4546311,53.4,9.6,6.6
677.441,46.9749060,7.4552024,50.4,8.5,7.0
682.464,46.9751862,7.4557769,53.7,9.5,7.3
690.453,46.9755503,7.4562821,55.8,7.9,8.0
693.456,46.9757383,7.4564829,25.9,7.5,8.1
695.467,46.9759101,7.4565847,20.6,8.7,8.4
696.463,46.9759609,7.4567094,11.0,8.9,8.4
702.431,46.9764308,7.4568882,54.0,9.2,8.5
706.430,46.9767474,7.4568947,35.2,9.2,8.6
710.445,46.9770204,7.4569176,30.4,8.4,9.0
718.452,46.9775135,7.4570727,56.1,7.3,8.7
725.457,46.9779491,7.4571843,49.2,6.9,8.3
731.458,46.9783073,7.4571521,39.9,6.7,8.1
732.457,46.9783705,7.4571816,7.4,6.7,8.1
733.450,46.9784354,7.4571562,7.5,6.8,8.0
734.459,46.9784715,7.4571990,5.2,6.6,8.0
738.438,46.9786578,7.4572477,21.0,6.0,7.8
743.439,46.9789350,7.4571874,31.2,6.0,7.4
747.446,46.9791393,7.4571398,23.0,6.1,7.4
748.451,46.9791936,7.4570695,8.1,6.3,7.4
749.457,46.9792449,7.4571992,11.4,6.8,7.5
755.461,46.9794715,7.4571444,25.5,5.8,7.0
758.460,46.9795849,7.4572007,13.3,5.4,6.8
761.460,46.9796994,7.4575786,31.4,7.5,7.0
762.453,46.9797520,7.4576754,9.4,8.0,7.1
766.459,46.9797114,7.4576149,6.5,8.1,6.8
780.454,46.9800531,7.4576885,38.4,2.5,5.6
798.464,46.9805145,7.4576433,51.4,2.7,4.7
812.457,46.9809697,7.4576108,50.7,3.6,4.1
823.465,46.9814464,7.4575769,53.1,4.9,3.5
835.449,46.9819028,7.4575443,50.8,4.2,3.7
846.461,46.9823602,7.4575155,50.9,4.6,4.0
862.459,46.9828643,7.4575092,56.0,3.4,4.1
868.445,46.9829103,7.4575129,5.1,2.7,3.9
872.454,46.9828888,7.4578257,23.9,3.1,4.0
873.455,46.9828154,7.4577977,8.4,3.8,4.1
881.454,46.9827085,7.4580128,20.2,3.2,3.8
883.448,46.9826293,7.4580068,8.8,3.0,3.8
899.433,46.9825097,7.4586768,52.7,3.7,3.5
909.436,46.9825020,7.4593667,52.5,5.1,3.7
911.435,46.9825107,7.4595692,15.4,6.0,3.8
912.437,46.9824954,7.4596295,4.9,6.0,3.8
914.435,46.9824023,7.4595999,10.6,5.9,3.9
916.436,46.9823446,7.4596520,7.5,5.6,3.9
917.436,46.9822892,7.4596039,7.2,5.7,4.0
919.433,46.9821870,7.4598678,23.1,4.7,4.1
928.448,46.9821189,7.4600469,15.6,3.8,4.3
931.440,46.9821529,7.4602493,15.9,4.0,4.2
932.446,46.9823235,7.4604296,23.4,4.0,4.2
958.451,46.9825510,7.4609789,48.9,1.7,3.9
969.447,46.9827995,7.4611939,32.1,2.7,3.5
972.447,46.9828038,7.4612445,3.9,1.6,3.3
989.452,46.9828026,7.4613420,7.4,1.0,2.3
1014.445,46.9832485,7.4614636,50.4,2.0,1.8
1033.444,46.9838091,7.4612764,63.9,3.5,2.2
1046.445,46.9842764,7.4614607,53.8,5.3,2.9
1058.457,46.9846607,7.4618334,51.3,4.2,3.4
1075.492,46.9850799,7.4621049,51.0,2.8,3.6
1094.455,46.9855259,7.4622498,50.8,2.7,3.6
1117.435,46.9859470,7.4625067,50.7,1.8,2.6
1130.437,46.9864065,7.4624456,51.3,4.0,2.8
1135.448,46.9866279,7.4623464,25.7,4.7,3.0
1140.457,46.9868998,7.4621082,35.2,6.0,3.4
1147.437,46.9872800,7.4618961,45.2,6.8,3.8
1148.442,46.9873076,7.4619321,4.1,6.5,3.8
1155.436,46.9876162,7.4618516,34.8,5.2,4.1
1157.434,46.9876722,7.4618204,6.7,5.2,4.3
1172.452,46.9881332,7.4616348,53.2,4.7,4.8
1187.454,46.9884823,7.4615598,39.2,2.2,4.6
1201.458,46.9884334,7.4620305,36.2,2.7,4.0
1215.453,46.9886755,7.4624464,41.5,2.9,3.3
1225.462,46.9890225,7.4629119,52.4,5.4,3.5
1242.448,46.9892521,7.4629910,26.2,1.3,2.9
1250.444,46.9891694,7.4629897,9.2,1.4,2.8
1263.449,46.9891310,7.4628344,12.6,1.3,2.5
1265.448,46.9891150,7.4628367,1.8,1.2,2.4
1278.446,46.9891301,7.4629247,6.9,1.4,2.0
1282.462,46.9890982,7.4629038,3.9,1.3,1.7
1284.456,46.9891210,7.4629515,4.4,1.4,1.5
1286.441,46.9891666,7.4629411,5.1,1.7,1.5
1757.448,46.9893581,7.4635935,54.0,4.6,0.9
1760.449,46.9894114,7.4637853,15.7,4.9,1.1
1764.444,46.9895415,7.4641054,28.3,5.8,1.6
1765.451,46.9896002,7.4641660,8.0,6.2,1.7
1768.450,46.9897070,7.4643856,20.5,6.6,2.1
1770.450,46.9898180,7.4645376,16.9,7.2,2.4
1779.437,46.9900436,7.4651613,53.7,6.3,3.3
1781.439,46.9900262,7.4652758,8.9,5.7,3.4
1785.440,46.9900688,7.4655328,20.1,5.2,3.7
1802.453,46.9902027,7.4661714,50.8,2.5,4.7
1811.454,46.9902485,7.4666550,37.1,4.0,4.9
1814.451,46.9902991,7.4669035,19.7,4.9,5.0
1815.449,46.9903787,7.4670339,13.3,5.9,5.1
1816.459,46.9903840,7.4671221,6.7,6.3,5.1
1819.505,46.9905408,7.4674059,27.7,7.6,5.4
1821.463,46.9905943,7.4675618,13.3,7.8,5.4
1825.457,46.9906896,7.4676439,12.3,8.9,5.6
1828.449,46.9906707,7.4677182,6.0,7.1,5.3
1832.462,46.9907168,7.4678234,9.5,5.2,5.0
1848.457,46.9911407,7.4675193,52.5,3.7,4.5
1866.440,46.9915140,7.4671021,52.2,3.2,4.5
1880.449,46.9918513,7.4666356,51.6,3.9,3.8
1888.440,46.9921086,7.4663735,34.9,4.2,3.4
1891.434,46.9922399,7.4661418,22.9,5.3,3.6
1893.431,46.9923268,7.4660879,10.5,5.5,3.7
1895.441,46.9924258,7.4659622,14.6,6.1,3.8
1896.438,46.9924574,7.4659698,3.6,6.0,3.9
1897.434,46.9925221,7.4659168,8.2,6.5,4.0
1901.438,46.9926761,7.4657420,21.7,5.9,4.1
1909.457,46.9929492,7.4654875,36.0,4.4,4.3
1913.438,46.9930986,7.4652297,25.7,5.6,4.5
1914.438,46.9931933,7.4652472,10.6,6.1,4.7
1916.446,46.9932663,7.4651760,9.8,5.8,4.7
1917.447,46.9932530,7.4650163,12.2,6.8,4.9
1920.441,46.9933859,7.4649377,15.9,6.8,5.0
1921.439,46.9934179,7.4648866,5.3,6.7,5.1
1923.441,46.9934672,7.4649175,6.0,6.0,5.0
1932.456,46.9938283,7.4645067,50.9,5.4,5.4
1933.458,46.9938880,7.4644311,8.8,6.0,5.5
1934.452,46.9939649,7.4645239,11.1,6.4,5.6
1937.446,46.9940796,7.4644395,14.3,6.2,5.6
1938.452,46.9940825,7.4643084,10.0,6.9,5.7
1941.461,46.9942300,7.4642259,17.6,7.1,5.8
1948.451,46.9946131,7.4638743,50.3,6.9,6.2
1953.458,46.9948710,7.4635146,39.6,7.5,6.3
1954.443,46.9948927,7.4635313,2.7,7.1,6.2
1963.447,46.9952929,7.4632253,50.2,5.3,6.2
1965.445,46.9953969,7.4631503,12.9,6.0,6.3
1967.443,46.9954871,7.4631819,10.3,5.8,6.2
1973.461,46.9957812,7.4630535,34.1,5.7,6.3
1980.451,46.9961310,7.4630107,39.0,5.6,6.1
1988.455,46.9964909,7.4627832,43.6,5.5,6.2
1990.449,46.9965532,7.4628174,7.4,5.2,6.1
1993.443,46.9965973,7.4629942,14.3,4.9,6.1
1995.457,46.9966062,7.4631716,13.5,5.1,6.0
2002.456,46.9967831,7.4636011,38.1,5.8,5.9
2003.456,46.9968230,7.4636073,4.5,5.7,5.8
2004.450,46.9968146,7.4635798,2.3,5.4,5.8
2007.451,46.9970119,7.4636679,22.9,5.9,5.8
2008.461,46.9970605,7.4637725,9.6,6.4,5.8
2011.459,46.9970716,7.4639520,13.7,6.3,5.7
2014.449,46.9970997,7.4639928,4.4,6.7,5.6
2015.437,46.9971743,7.4640164,8.5,6.8,5.7
2018.458,46.9972829,7.4639705,12.6,5.9,5.7
2037.458,46.9977107,7.4642422,51.9,2.6,4.7
2060.451,46.9981584,7.4643418,50.4,2.3,3.6
2079.449,46.9986115,7.4643563,50.4,2.9,2.6
2095.440,46.9990699,7.4642829,51.3,3.5,2.7
2108.457,46.9995306,7.4643791,51.7,4.1,3.0
2125.460,46.9999859,7.4645427,52.1,3.1,3.3
2142.447,47.0004047,7.4648335,51.5,3.0,3.3
2158.453,47.0007270,7.4649238,36.5,2.4,3.1
2170.437,47.0011627,7.4647512,50.2,4.3,3.1
2177.448,47.0014864,7.4645338,39.6,5.2,3.4
2184.450,47.0019007,7.4641697,53.7,7.3,3.9
2192.440,47.0024058,7.4640699,56.7,7.7,4.5
2196.437,47.0026554,7.4640461,27.8,6.4,4.8
2197.435,47.0027198,7.4641531,10.8,6.8,4.9
2199.433,47.0029334,7.4642306,24.5,6.2,4.9
2206.437,47.0030647,7.4645726,29.8,7.4,5.6
2215.438,47.0035077,7.4648838,54.6,5.8,6.2
2224.445,47.0039301,7.4651254,50.4,5.8,6.4
2235.447,47.0043995,7.4653927,56.0,5.2,6.5
2248.438,47.0048401,7.4656233,52.0,4.2,5.7
2250.445,47.0048832,7.4656430,5.0,3.7,5.7
2265.438,47.0053376,7.4658240,52.4,3.8,4.7
2280.443,47.0057906,7.4659139,50.8,3.4,4.1
2294.441,47.0063693,7.4662684,69.8,4.1,3.6
2314.439,47.0067075,7.4667024,50.0,3.9,3.6
2329.434,47.0071001,7.4670914,52.7,3.6,3.5
2341.433,47.0074479,7.4674903,49.1,4.4,3.7
2349.428,47.0075409,7.4677336,21.2,2.8,3.6
2351.437,47.0077647,7.4679302,29.0,4.8,4.0
2355.442,47.0078199,7.4680782,12.8,5.2,3.9
2364.437,47.0081644,7.4685309,51.5,5.5,4.3
2371.436,47.0083541,7.4690308,43.5,5.3,4.5
2373.455,47.0084832,7.4691203,15.9,6.4,4.7
2374.454,47.0084949,7.4691764,4.5,6.2,4.7
2376.443,47.0086324,7.4693240,19.0,7.2,5.0
2380.438,47.0086189,7.4692493,5.9,7.2,5.0
2388.435,47.0092691,7.4701658,100.4,3.3,4.9
2390.437,47.0093588,7.4703594,17.8,3.3,4.9
2391.441,47.0093987,7.4703351,4.8,3.3,4.9
2393.439,47.0095956,7.4704812,24.5,12.1,6.3
2396.438,47.0096092,7.4706129,10.1,12.4,6.3
2398.433,47.0096434,7.4706600,5.2,12.4,6.3
2399.433,47.0097256,7.4706740,9.2,12.2,6.4
2400.438,47.0097780,7.4705524,10.9,12.1,6.5
2402.442,47.0098390,7.4705952,7.5,6.1,6.6
2403.436,47.0098850,7.4705651,5.6,6.0,6.7
2404.442,47.0098840,7.4706647,7.6,6.1,6.7
2406.439,47.0101108,7.4710528,38.8,8.1,7.2
2409.437,47.0102036,7.4711096,11.2,8.4,7.3
2410.432,47.0102253,7.4711984,7.2,8.2,7.4
2411.437,47.0103049,7.4712839,11.0,8.2,7.2
2412.437,47.0103283,7.4713635,6.6,8.9,7.3
2413.441,47.0103571,7.4713784,3.4,8.7,7.2
2415.449,47.0103901,7.4715339,12.4,8.4,7.4
2419.449,47.0105896,7.4718490,32.6,7.7,7.5
2420.432,47.0105829,7.4719641,8.8,7.5,7.5
2424.454,47.0107306,7.4722244,25.7,7.3,7.6
2426.448,47.0107534,7.4723952,13.2,7.1,7.7
2429.444,47.0108241,7.4725565,14.6,6.3,7.8
2430.447,47.0109067,7.4726471,11.5,6.6,7.8
2431.446,47.0109260,7.4727342,7.0,6.6,7.9
2432.457,47.0109982,7.4728482,11.8,7.3,8.0
2433.456,47.0110042,7.4729140,5.0,7.1,7.7
2434.455,47.0111560,7.4729305,16.9,8.0,7.9
2439.449,47.0114501,7.4734669,52.3,9.9,8.3
2443.451,47.0117802,7.4740287,56.3,11.9,8.9
2447.459,47.0120885,7.4745157,50.5,12.7,9.5
2449.458,47.0122105,7.4746410,16.6,12.3,9.6
2452.443,47.0122587,7.4749908,27.1,11.0,8.6
2453.446,47.0125470,7.4751211,33.6,11.6,9.0
2455.452,47.0126107,7.4751231,7.1,11.1,9.0
2456.461,47.0126340,7.4751804,5.1,10.2,9.0
2457.462,47.0127488,7.4752451,13.7,10.3,9.1
2463.453,47.0129095,7.4758631,50.3,10.0,9.3
2470.440,47.0131668,7.4764032,50.0,7.7,9.1
2476.455,47.0134486,7.4769187,50.2,8.3,9.2
2483.447,47.0137711,7.4775127,57.7,8.5,9.3
2485.445,47.0138473,7.4776570,13.9,8.2,9.3
2486.451,47.0138672,7.4776528,2.2,7.6,9.2
2487.448,47.0138449,7.4776493,2.5,6.9,9.2
2491.439,47.0140941,7.4781917,49.7,8.9,9.5
2495.439,47.0144408,7.4786536,52.2,10.7,9.7
2496.441,47.0144995,7.4787404,9.3,10.5,9.7
2497.445,47.0144646,7.4786101,10.6,11.3,9.7
2500.441,47.0147422,7.4792337,56.6,14.6,10.1
2501.448,47.0147078,7.4790942,11.3,13.5,10.0
2502.435,47.0143979,7.4792626,36.8,13.5,10.0
2507.437,47.0145910,7.4796749,38.0,13.3,9.8
2514.428,47.0149466,7.4802305,57.9,8.3,9.4
2517.437,47.0151150,7.4804117,23.2,8.3,9.4
2518.438,47.0151627,7.4805296,10.4,8.2,9.4
2519.430,47.0152445,7.4805739,9.7,8.4,9.5
2522.437,47.0154066,7.4808235,26.2,8.7,9.4
2523.433,47.0156630,7.4807686,28.8,8.7,9.4
2531.448,47.0159039,7.4813434,51.3,8.4,9.6
2538.449,47.0161755,7.4818777,50.6,7.0,9.5
2544.461,47.0163112,7.4821679,26.7,5.8,9.1
2549.452,47.0162696,7.4822131,5.8,3.5,8.9
2556.463,47.0165181,7.4828050,52.8,6.5,8.2
2564.458,47.0166668,7.4834478,51.6,6.3,7.1
2572.462,47.0168109,7.4841478,55.6,7.1,6.9
2578.466,47.0169652,7.4846706,43.3,9.1,6.9
2585.456,47.0170791,7.4853170,50.7,7.5,6.4
2591.448,47.0171601,7.4859685,50.4,7.8,6.6
2596.449,47.0173290,7.4867130,59.6,10.0,7.0
2601.441,47.0174649,7.4873746,52.5,11.1,7.4
2603.442,47.0171577,7.4873420,34.2,10.3,7.3
2605.440,47.0171911,7.4875624,17.2,10.3,8.1
2609.440,47.0170845,7.4878176,22.7,10.1,8.3
2616.461,47.0166090,7.4880142,54.9,8.4,8.4
2617.459,47.0166353,7.4880006,3.1,8.1,8.3
2619.455,47.0164183,7.4881213,25.8,7.7,8.3
2620.454,47.0164063,7.4880970,2.3,6.8,8.4
2624.452,47.0164504,7.4880670,5.4,5.2,8.2
2636.460,47.0160182,7.4883579,52.9,4.9,7.7
2639.461,47.0159378,7.4884613,11.9,6.2,7.6
2648.455,47.0157027,7.4890392,51.1,5.2,7.4
2659.462,47.0153571,7.4895389,54.0,4.9,6.2
2664.455,47.0152034,7.4897325,22.6,4.7,5.6
2666.461,47.0151241,7.4897578,9.0,4.7,5.4
2677.450,47.0147881,7.4902278,51.7,4.8,5.0
2689.449,47.0144234,7.4906219,50.4,4.2,5.0
2690.450,47.0143929,7.4906560,4.3,4.1,4.8
2691.446,47.0143905,7.4907365,6.1,4.2,4.8
2699.441,47.0141435,7.4910899,38.4,4.9,4.8
2700.446,47.0141198,7.4911867,7.8,5.2,4.9
2704.439,47.0139653,7.4913112,19.6,5.3,4.7
2706.440,47.0138890,7.4914168,11.7,5.4,4.8
2713.441,47.0137432,7.4917232,28.4,4.6,4.7
2714.442,47.0137532,7.4918324,8.4,5.0,4.8
2717.437,47.0137133,7.4920987,20.7,3.8,4.6
2736.431,47.0138759,7.4927261,51.0,3.6,4.3
2741.431,47.0140265,7.4930649,30.7,4.9,4.4
2743.432,47.0141406,7.4930454,12.8,5.5,4.5
2746.433,47.0142113,7.4932078,14.6,5.8,4.5
2747.432,47.0142079,7.4932794,5.5,5.8,4.5
2748.437,47.0142547,7.4933251,6.3,5.7,4.6
2751.430,47.0142501,7.4935855,19.8,5.9,4.7
2753.436,47.0141829,7.4937498,14.6,6.1,4.8
2758.442,47.0139425,7.4940759,36.5,6.5,4.9
2760.432,47.0139057,7.4940877,4.2,6.2,4.8
2767.431,47.0138893,7.4944747,29.5,4.3,4.7
2769.426,47.0138077,7.4945221,9.8,4.3,4.7
2778.429,47.0136710,7.4949648,36.9,4.1,4.7
2783.429,47.0136540,7.4952208,19.6,4.0,4.8
2788.433,47.0134829,7.4953149,20.3,4.1,4.9
2792.434,47.0134432,7.4955448,18.0,4.2,5.0
2802.434,47.0131010,7.4957520,41.2,4.2,4.8
2811.429,47.0128785,7.4960378,32.9,3.8,4.5
2824.431,47.0124268,7.4962083,51.9,4.1,4.1
2838.435,47.0119516,7.4963321,53.7,3.9,4.0
2851.432,47.0114690,7.4963622,53.7,4.2,4.0
2864.434,47.0110018,7.4964167,52.1,4.0,4.0
2892.439,47.0106358,7.4964563,40.8,1.3,3.1
2901.453,47.0106531,7.4963860,5.7,1.3,2.8
2904.458,47.0106413,7.4964588,5.7,1.4,2.6
2972.450,47.0104793,7.4968320,33.6,2.4,0.5
2985.465,47.0103646,7.4974947,52.0,4.1,1.4
2995.465,47.0102968,7.4981800,52.6,5.3,2.3
3006.461,47.0102913,7.4988564,51.4,4.7,3.1
3017.470,47.0102604,7.4994774,47.3,4.3,3.9
3025.468,47.0101288,7.4995064,14.8,2.6,4.0
3029.452,47.0101188,7.4994186,6.8,1.8,3.9
3668.432,47.0100965,7.4995204,8.1,0.0,0.0
3713.451,47.0100066,7.4996522,14.2,1.3,0.3
3715.457,47.0099873,7.4997726,9.4,2.2,0.4
3716.455,47.0100079,7.5000530,21.4,4.1,0.8
3717.449,47.0099928,7.5001038,4.2,4.5,0.8
3725.451,47.0098714,7.5002287,16.5,4.3,1.1
3729.455,47.0098626,7.5003978,12.9,2.6,1.3
3738.456,47.0101253,7.5009482,51.0,5.5,2.2
3749.449,47.0104493,7.5014792,54.1,4.9,3.0
3760.454,47.0107434,7.5020214,52.6,4.8,4.0
3772.455,47.0110303,7.5025593,51.9,4.3,4.6
3784.450,47.0113284,7.5031255,54.3,4.5,4.7
3797.445,47.0116346,7.5036491,52.4,4.0,4.5
3800.440,47.0117129,7.5037608,12.2,3.9,4.5
3809.441,47.0119612,7.5039945,32.8,3.9,4.3
3827.451,47.0123003,7.5044442,50.9,2.9,3.8
3839.446,47.0124369,7.5046217,20.3,2.1,3.3
3861.448,47.0127909,7.5051025,53.7,3.1,2.6
3880.445,47.0131946,7.5054180,50.9,2.5,2.6
3900.450,47.0136276,7.5056978,52.6,2.7,2.6
3918.455,47.0139980,7.5060845,50.6,2.6,2.8
3936.454,47.0143571,7.5065203,51.9,3.2,2.8
3956.453,47.0146216,7.5070823,51.9,1.9,2.8
3968.445,47.0148121,7.5073460,29.2,2.4,2.6
3995.457,47.0148634,7.5080048,50.4,1.8,2.3
4006.447,47.0149760,7.5084612,36.9,3.4,2.3
4013.452,47.0152433,7.5090531,53.9,6.8,3.0
4018.438,47.0154665,7.5094660,40.0,7.4,3.5
4023.448,47.0156122,7.5098366,32.5,7.1,3.9
4025.442,47.0156194,7.5099922,11.9,7.1,4.0
4029.452,47.0157378,7.5102438,23.2,6.1,4.2
4030.452,47.0157799,7.5102878,5.8,6.1,4.3
4032.453,47.0158430,7.5104804,16.2,6.4,4.4
4033.455,47.0158716,7.5104489,4.0,6.2,4.4
4034.452,47.0158994,7.5105015,5.1,4.9,4.4
4037.449,47.0159014,7.5105746,5.6,4.9,4.5
4041.452,47.0159931,7.5107156,14.8,4.8,4.7
4049.454,47.0162663,7.5111088,42.6,5.1,5.3
4054.448,47.0164126,7.5114743,32.2,5.8,5.6
4055.453,47.0163916,7.5115198,4.2,5.8,5.6
4058.444,47.0165451,7.5119042,33.8,6.6,6.0
4063.444,47.0165424,7.5119447,3.1,5.0,5.9
4067.447,47.0166890,7.5121627,23.2,5.2,5.9
4080.457,47.0170542,7.5125499,50.2,4.0,5.2
4092.450,47.0174534,7.5128785,50.9,4.2,4.8
4109.444,47.0178768,7.5131303,50.8,3.5,4.3
4133.454,47.0181536,7.5133923,36.7,1.4,2.8
4146.452,47.0185686,7.5134885,46.7,4.0,2.8
4151.455,47.0186279,7.5135437,7.8,2.8,2.5
4163.457,47.0190599,7.5133280,50.7,4.5,2.8
4166.450,47.0191563,7.5133404,10.8,4.6,2.8
4180.452,47.0192959,7.5139829,51.3,3.5,3.1
4194.454,47.0193750,7.5146645,52.6,3.8,3.7
4206.463,47.0194157,7.5153700,53.8,4.7,3.8
4216.457,47.0195042,7.5160596,53.3,5.3,4.3
4219.448,47.0195375,7.5162450,14.6,5.4,4.3
4220.451,47.0195795,7.5163475,9.1,5.9,4.4
4224.455,47.0195657,7.5166074,19.8,5.6,4.4
4228.448,47.0196339,7.5169098,24.2,5.8,4.5
4230.452,47.0196119,7.5170279,9.3,5.4,4.6
4232.449,47.0196501,7.5171659,11.3,5.4,4.6
4235.448,47.0196373,7.5173254,12.2,5.3,4.7
4245.461,47.0196991,7.5178440,40.0,4.0,4.7
4253.453,47.0198070,7.5184079,44.5,5.5,5.0
4259.443,47.0199167,7.5187637,29.7,5.1,5.1
4264.459,47.0200367,7.5191213,30.3,5.5,5.2
4268.451,47.0201540,7.5193760,23.4,6.1,5.3
4277.470,47.0202295,7.5199351,43.3,5.0,5.2
4284.437,47.0203651,7.5204548,42.3,5.2,5.3
4288.441,47.0204972,7.5207521,26.9,6.4,5.3
4299.449,47.0206700,7.5214205,54.3,4.9,5.4
4308.450,47.0208822,7.5220286,51.9,5.9,5.6
4311.444,47.0209564,7.5222648,19.8,6.2,5.6
4318.451,47.0212035,7.5227563,46.4,6.7,5.8
4319.454,47.0212409,7.5227902,4.9,6.3,5.8
4325.446,47.0211014,7.5231772,33.3,5.3,5.7
4334.451,47.0208438,7.5235913,42.6,4.7,5.6
4335.443,47.0207409,7.5236462,12.2,4.5,5.6
4349.450,47.0204042,7.5237426,38.1,3.6,5.1
4356.447,47.0202059,7.5238476,23.4,3.6,4.9
4364.448,47.0200129,7.5238586,21.5,2.8,4.6
4380.443,47.0196426,7.5242544,51.0,3.3,3.7
4389.452,47.0194446,7.5244052,24.8,3.0,3.4
4401.450,47.0194665,7.5250650,50.2,4.4,3.4
4414.454,47.0196260,7.5256812,50.1,3.7,3.4
4418.458,47.0196811,7.5259959,24.7,4.8,3.6
4419.452,47.0196727,7.5260424,3.7,4.7,3.6
4421.452,47.0197326,7.5262078,14.2,5.3,3.8
4425.458,47.0197559,7.5264597,19.3,5.8,4.0
4437.445,47.0196075,7.5268933,36.9,3.0,4.0
4447.449,47.0197801,7.5270456,22.4,2.5,3.8
4472.452,47.0202088,7.5267613,52.3,2.2,3.1
4503.446,47.0206409,7.5265535,50.6,1.5,1.9
4506.452,47.0207409,7.5265328,11.2,2.3,2.0
4507.449,47.0208214,7.5265800,9.6,3.4,2.1
4512.457,47.0211677,7.5266133,38.6,6.3,2.6
4513.459,47.0212446,7.5265942,8.7,6.5,2.7
4519.453,47.0216865,7.5268030,51.6,8.2,3.4
4523.454,47.0218886,7.5271618,35.3,8.8,3.8
4524.452,47.0219456,7.5272182,7.6,8.7,3.9
4525.458,47.0219890,7.5273137,8.7,9.0,4.0
4526.450,47.0220709,7.5273664,9.9,9.1,4.2
4533.458,47.0223576,7.5279074,52.0,7.8,4.8
4535.458,47.0224648,7.5280565,16.4,7.9,4.9
4538.455,47.0225682,7.5281232,12.6,6.9,5.1
4540.451,47.0225570,7.5281374,1.7,5.4,5.0
4551.458,47.0229001,7.5285931,51.5,4.7,5.5
4563.445,47.0233122,7.5288886,51.0,4.3,6.1
4566.451,47.0234332,7.5289932,15.6,4.6,6.2
4578.460,47.0238301,7.5293143,50.4,4.1,5.5
4592.451,47.0242168,7.5297270,53.2,3.8,4.4
4596.452,47.0243799,7.5298713,21.2,4.5,4.3
4601.452,47.0246452,7.5300164,31.5,5.5,4.5
4602.458,47.0247036,7.5299971,6.7,5.8,4.5
4608.460,47.0251629,7.5299859,51.1,7.5,5.0
4610.453,47.0253149,7.5300899,18.7,8.4,5.1
4611.446,47.0253882,7.5301766,10.5,8.7,5.2
4613.464,47.0255723,7.5302913,22.2,9.5,5.4
4617.454,47.0258215,7.5306513,38.9,10.1,5.8
4618.461,47.0258996,7.5306556,8.7,10.0,5.9
4621.464,47.0261416,7.5309941,37.2,10.7,6.3
4623.469,47.0262794,7.5309952,15.3,10.0,6.4
4624.464,47.0263288,7.5310763,8.3,10.1,6.5
4625.462,47.0263607,7.5312387,12.8,10.6,6.6
4627.448,47.0264331,7.5312706,8.4,9.2,6.6
4633.461,47.0267102,7.5314825,34.8,6.6,6.7
4638.458,47.0269533,7.5315149,27.1,5.7,6.8
4641.459,47.0270605,7.5314053,14.5,5.2,6.9
4644.461,47.0271433,7.5311531,21.3,5.8,7.0
4648.460,47.0272069,7.5308533,23.9,5.9,7.2
4650.454,47.0272558,7.5308287,5.8,5.6,7.1
4653.456,47.0273735,7.5309298,15.2,5.6,7.2
4656.460,47.0274003,7.5311071,13.8,4.8,7.2
4657.461,47.0274601,7.5310843,6.9,5.0,7.2
4658.460,47.0274422,7.5311190,3.3,4.6,7.1
4670.462,47.0277776,7.5315748,50.9,4.7,6.5
4681.460,47.0280983,7.5320811,52.5,4.8,5.4
4688.448,47.0282658,7.5323426,27.2,4.2,4.9
4691.455,47.0283630,7.5324415,13.2,4.1,4.8
4698.453,47.0285494,7.5326995,28.5,4.3,4.7
4709.455,47.0289447,7.5331250,54.6,4.9,4.5
4713.448,47.0291277,7.5332528,22.5,5.4,4.6
4716.459,47.0292535,7.5334333,19.6,5.8,4.7
4724.455,47.0296902,7.5338230,56.9,7.0,5.2
4731.457,47.0300439,7.5341811,47.8,6.8,5.3
4733.451,47.0301732,7.5342539,15.4,7.1,5.5
4736.459,47.0303454,7.5344212,23.0,7.3,5.6
4742.449,47.0307259,7.5346716,46.4,7.7,5.9
4746.461,47.0309436,7.5349187,30.6,7.7,6.2
4749.455,47.0311172,7.5350204,20.8,7.3,6.3
4752.452,47.0313222,7.5350802,23.2,7.5,6.4
4754.450,47.0314052,7.5351950,12.7,7.4,6.5
4757.447,47.0316150,7.5352388,23.6,7.4,6.7
4764.457,47.0320217,7.5354843,48.9,7.1,7.0
4766.449,47.0321731,7.5354356,17.2,7.6,7.1
4767.456,47.0322262,7.5354960,7.5,7.5,7.1
4769.453,47.0323691,7.5355054,15.9,7.6,7.2
4772.458,47.0325515,7.5356138,21.9,7.5,7.3
4780.456,47.0329647,7.5360189,55.3,7.1,7.4
4781.448,47.0330243,7.5360527,7.1,7.0,7.3
4782.450,47.0330678,7.5361300,7.6,7.1,7.3
4786.449,47.0333645,7.5363040,35.5,7.9,7.5
4791.448,47.0337267,7.5366067,46.4,9.0,7.7
4792.456,47.0337875,7.5366261,6.9,8.8,7.7
4794.458,47.0338956,7.5367420,14.9,8.7,7.7
4796.457,47.0339594,7.5369238,15.5,8.5,7.7
4802.457,47.0344050,7.5372718,56.2,8.5,7.8
4804.458,47.0345514,7.5373408,17.1,8.8,7.9
4806.450,47.0346854,7.5373201,15.0,8.8,7.9
4813.446,47.0351716,7.5375783,57.5,8.2,8.0
4819.458,47.0356686,7.5377741,57.2,9.0,8.2
4820.452,47.0357355,7.5377832,7.5,8.9,8.2
4821.447,47.0358381,7.5377050,12.9,9.5,8.3
4824.456,47.0360888,7.5376630,28.1,9.7,8.4
4829.450,47.0364830,7.5378294,45.6,9.5,8.5
4830.447,47.0365838,7.5378040,11.4,9.8,8.6
4831.458,47.0366504,7.5378428,8.0,9.7,8.6
4832.449,47.0367548,7.5378229,11.7,9.6,8.6
4838.448,47.0372464,7.5378925,54.9,9.6,8.9
4841.457,47.0374134,7.5379081,18.6,8.5,8.8
4843.454,47.0374584,7.5379928,8.2,7.6,8.7
4845.446,47.0375419,7.5379181,10.9,6.7,8.6
4849.449,47.0377143,7.5379420,19.3,5.1,8.3
4852.457,47.0378879,7.5378979,19.6,5.3,8.2
4854.468,47.0379918,7.5379654,12.6,5.7,8.2
4856.456,47.0381239,7.5379576,14.7,6.1,8.1
4858.457,47.0382408,7.5379090,13.5,6.3,8.1
4862.454,47.0385154,7.5378244,31.2,7.3,8.0
4868.447,47.0388619,7.5379138,39.1,7.1,7.8
4869.455,47.0389290,7.5378859,7.7,7.1,7.8
4874.449,47.0392255,7.5378861,33.0,6.7,7.7
4876.458,47.0392868,7.5379467,8.2,6.3,7.5
4880.455,47.0394908,7.5379754,22.8,6.0,7.2
4882.454,47.0395643,7.5380387,9.5,5.6,7.0
4885.448,47.0397187,7.5380201,17.2,5.3,6.9
4886.442,47.0397947,7.5380861,9.8,6.0,6.9
4889.456,47.0399276,7.5380732,14.8,5.7,6.7
4890.457,47.0399516,7.5380956,3.2,5.4,6.6
4893.440,47.0401280,7.5380262,20.3,6.0,6.4
4895.455,47.0402387,7.5380377,12.3,6.1,6.3
4900.459,47.0405044,7.5381546,30.8,6.4,6.1
4903.461,47.0406182,7.5383100,17.3,6.1,6.2
4906.446,47.0406454,7.5385237,16.5,5.9,6.2
4908.457,47.0407088,7.5386405,11.3,5.8,6.2
4912.449,47.0407742,7.5389635,25.6,6.0,6.2
4915.449,47.0408294,7.5391498,15.4,5.7,6.2
4925.447,47.0408745,7.5395789,33.0,3.6,5.6
4937.458,47.0412000,7.5400707,52.0,4.4,5.2
4941.444,47.0414222,7.5402831,29.5,5.7,5.3
4948.457,47.0417614,7.5403886,38.6,5.7,5.2
4949.450,47.0418054,7.5404353,6.0,5.6,5.3
4950.448,47.0418444,7.5405516,9.8,6.0,5.4
4951.460,47.0418967,7.5405991,6.8,6.2,5.4
4952.450,47.0419116,7.5406521,4.4,6.0,5.4
4953.452,47.0419653,7.5406999,7.0,6.1,5.4
4962.450,47.0422700,7.5412679,54.9,6.1,5.4
4966.457,47.0424605,7.5413746,22.7,5.8,5.4
4968.453,47.0425720,7.5412556,15.3,6.8,5.4
4970.456,47.0426156,7.5410835,14.0,7.0,5.5
4975.459,47.0429081,7.5407866,39.6,7.1,5.6
4978.451,47.0430163,7.5405594,21.0,7.8,5.8
4981.451,47.0432218,7.5404758,23.7,7.7,6.0
4983.455,47.0432908,7.5404002,9.6,7.0,6.0
4984.452,47.0433443,7.5403958,6.0,6.9,6.0
4985.453,47.0433517,7.5404390,3.4,6.4,6.1
4986.450,47.0433967,7.5404388,5.0,6.3,6.1
4987.454,47.0434337,7.5403868,5.7,6.1,6.2
5022.424,47.0438706,7.5400708,54.2,4.0,1.2
5090.457,47.0442668,7.5404276,51.7,4.4,1.7
5100.456,47.0446875,7.5406909,50.9,5.1,2.4
5101.449,47.0447681,7.5406531,9.4,5.6,2.5
5103.457,47.0448660,7.5406541,10.9,5.7,2.6
5106.451,47.0450516,7.5405459,22.2,6.4,2.7
5107.454,47.0451273,7.5404503,11.1,6.9,2.9
5115.458,47.0455077,7.5402498,45.0,6.5,3.1
5127.450,47.0457448,7.5396536,52.4,4.4,4.9
5129.451,47.0457501,7.5394914,12.3,4.9,5.0
5130.457,47.0458087,7.5394401,7.6,5.1,5.1
5133.458,47.0458919,7.5392222,19.0,5.6,5.1
5135.449,47.0458872,7.5390823,10.6,5.8,5.2
5137.456,47.0459626,7.5389296,14.3,6.4,5.4
5142.449,47.0460279,7.5385709,28.2,5.8,5.6
5143.449,47.0460594,7.5385100,5.8,5.9,5.6
5144.457,47.0460883,7.5385193,3.3,5.7,5.6
5147.456,47.0461724,7.5382522,22.3,6.0,5.7
5149.439,47.0462187,7.5379637,22.5,6.6,5.9
5151.459,47.0462938,7.5378899,10.1,6.9,5.9
5155.458,47.0464251,7.5375117,32.2,8.1,6.2
5158.448,47.0464400,7.5371749,25.6,8.4,6.3
5160.456,47.0465362,7.5369909,17.6,8.4,6.4
5165.449,47.0467379,7.5363985,50.3,9.4,6.7
5166.454,47.0467647,7.5362744,9.9,9.8,6.8
5167.458,47.0468368,7.5362046,9.6,9.8,6.8
5169.457,47.0469155,7.5359825,19.0,9.8,6.9
5171.454,47.0469718,7.5357284,20.3,10.0,7.0
5175.453,47.0470095,7.5352893,33.6,9.4,7.1
5183.457,47.0471327,7.5345747,56.0,7.5,7.5
5186.451,47.0471294,7.5343668,15.8,6.1,7.6
5188.444,47.0470937,7.5341912,13.9,6.5,7.6
5189.450,47.0471240,7.5342242,4.2,6.2,7.6
5190.452,47.0470978,7.5341615,5.6,6.0,7.6
5200.439,47.0469885,7.5335050,51.4,5.3,7.4
5202.457,47.0469704,7.5333934,8.7,5.0,7.4
5203.455,47.0469841,7.5333690,2.4,4.6,7.3
5220.455,47.0468219,7.5327088,53.3,3.3,6.0
5232.440,47.0466778,7.5320826,50.2,4.2,4.9
5238.444,47.0466610,7.5316731,31.2,4.8,4.6
5252.369,47.0468218,7.5305888,84.3,5.9,4.5
5255.427,47.0467898,7.5297599,63.1,8.0,5.1
5261.439,47.0467511,7.5294272,25.7,8.1,5.3
5263.450,47.0465142,7.5288876,48.7,8.1,5.3
5264.453,47.0465636,7.5288218,7.4,12.0,5.9
5265.443,47.0465500,7.5286707,11.6,11.8,6.1
5266.443,47.0466398,7.5287082,10.4,11.6,6.2
5267.454,47.0466133,7.5285558,11.9,11.7,6.3
5269.434,47.0466020,7.5282930,20.0,12.1,6.6
5270.443,47.0466543,7.5282816,5.9,11.8,6.7
5273.457,47.0466766,7.5279724,23.6,11.2,6.9
5277.452,47.0466417,7.5275599,31.6,8.2,7.1
5279.458,47.0465449,7.5273736,17.8,8.1,7.4
5284.454,47.0464711,7.5268615,39.8,8.2,7.7
5285.455,47.0464931,7.5268050,4.9,7.8,7.8
5290.446,47.0463839,7.5263299,38.1,7.5,8.1
5298.450,47.0463282,7.5256066,55.3,7.2,8.3
5307.445,47.0461422,7.5249902,51.2,5.9,8.1
5315.455,47.0460402,7.5245465,35.6,4.6,7.8
5325.443,47.0459255,7.5240544,39.5,4.1,6.6
5331.447,47.0459139,7.5237985,19.5,2.9,5.7
5348.448,47.0458567,7.5230860,54.5,3.9,4.7
5361.450,47.0459154,7.5224250,50.7,3.8,4.0
5375.451,47.0460200,7.5220919,27.9,1.6,3.4
5390.454,47.0456909,7.5221043,36.6,2.4,3.1
5394.448,47.0455666,7.5219804,16.7,3.3,3.2
5408.447,47.0451683,7.5216450,51.1,2.2,3.2
5424.443,47.0447208,7.5215674,50.1,3.1,3.0
5439.446,47.0443161,7.5212339,51.6,3.9,3.3
5451.445,47.0439367,7.5210134,45.4,4.2,3.6
5453.453,47.0438169,7.5210242,13.4,4.7,3.8
5454.452,47.0436326,7.5211141,21.6,6.9,4.0
5456.447,47.0435387,7.5210991,10.5,6.8,4.0
5457.446,47.0434888,7.5210562,6.4,7.1,3.8
5458.447,47.0435914,7.5210352,11.5,8.2,3.9
5462.450,47.0434495,7.5209567,16.9,7.3,4.1
5464.451,47.0431667,7.5210029,31.6,7.2,4.5
5469.453,47.0428642,7.5209020,34.5,8.0,4.9
5470.452,47.0429555,7.5209076,10.2,8.9,5.0
5473.446,47.0429014,7.5208065,9.8,8.0,5.0
5476.445,47.0426984,7.5207171,23.6,7.2,5.3
5477.452,47.0427315,7.5206907,4.2,6.4,5.3
5478.454,47.0427196,7.5206745,1.8,6.0,5.3
5479.457,47.0427694,7.5206396,6.1,6.0,5.4
5480.453,47.0427630,7.5206062,2.6,5.4,5.4
5482.446,47.0426654,7.5205450,11.8,5.0,5.4
5483.450,47.0427805,7.5204998,13.3,6.3,5.6
5487.456,47.0425441,7.5203102,30.0,6.6,5.9
5488.449,47.0425664,7.5202781,3.5,6.7,6.0
5490.445,47.0424598,7.5202049,13.1,7.2,6.1
5491.456,47.0424863,7.5201964,3.0,6.9,6.2
5493.456,47.0423230,7.5200417,21.6,7.7,6.4
5494.447,47.0423691,7.5200155,5.5,7.0,6.4
5496.455,47.0422066,7.5198107,23.8,9.1,7.0
5499.457,47.0421472,7.5197544,7.9,9.7,7.0
5502.458,47.0419520,7.5196560,23.0,9.6,7.2
5503.457,47.0418066,7.5196741,16.2,10.7,7.5
5504.455,47.0417247,7.5196195,10.0,11.1,7.6
5510.447,47.0413415,7.5192153,52.5,9.4,8.0
5512.455,47.0411344,7.5190472,26.3,10.6,8.2
5514.446,47.0410312,7.5189173,15.1,9.5,8.0
5515.465,47.0409580,7.5185124,31.8,9.5,8.0
5518.455,47.0407663,7.5182093,31.4,11.9,8.6
5522.449,47.0404894,7.5179393,37.0,11.8,8.9
5523.455,47.0404512,7.5178418,8.5,12.0,8.8
5525.458,47.0402782,7.5175976,26.7,12.3,9.0
5526.496,47.0402803,7.5175431,4.1,11.6,8.9
5529.456,47.0401028,7.5173425,24.9,9.3,8.9
5530.456,47.0401054,7.5172876,4.2,9.0,8.8
5532.456,47.0401298,7.5173028,2.9,8.1,8.7
5539.454,47.0399013,7.5169786,35.4,5.3,8.8
5543.456,47.0395625,7.5167011,43.2,6.1,8.7
5548.455,47.0394516,7.5166361,13.3,6.1,8.7
5549.452,47.0393931,7.5165620,8.6,6.4,8.7
5550.454,47.0393942,7.5165148,3.6,6.3,8.7
5551.453,47.0393628,7.5164575,5.6,6.2,8.8
5552.454,47.0393925,7.5164274,4.0,6.1,8.6
5553.453,47.0393211,7.5163808,8.7,6.2,8.6
5555.445,47.0392848,7.5162703,9.3,5.8,8.5
5556.450,47.0392337,7.5162138,7.1,6.0,8.4
5559.458,47.0390281,7.5161012,24.4,6.3,8.2
5560.444,47.0390647,7.5160591,5.2,6.4,8.1
5562.449,47.0389769,7.5159747,11.7,6.4,8.0
5563.443,47.0389843,7.5159495,2.1,6.0,8.0
5565.457,47.0388441,7.5158644,16.9,6.4,7.7
5566.458,47.0387337,7.5157584,14.7,6.2,7.7
5571.452,47.0386577,7.5156455,12.0,5.5,7.5
5572.454,47.0385916,7.5156113,7.8,5.7,7.4
5579.455,47.0382794,7.5152280,45.3,6.0,6.6
5583.455,47.0380608,7.5150840,26.7,6.6,6.4
5591.457,47.0376974,7.5146817,50.7,6.6,6.1
5592.455,47.0376394,7.5146030,8.8,6.8,6.2
5595.440,47.0375099,7.5145252,15.6,6.1,6.2
5599.446,47.0375679,7.5145329,6.5,6.8,6.4
5600.447,47.0375922,7.5145002,3.7,6.5,6.4
5607.438,47.0371784,7.5143200,48.0,6.5,6.4
5608.441,47.0371582,7.5143985,6.4,6.5,6.4
5610.455,47.0371107,7.5143940,5.3,5.8,6.3
5612.449,47.0370780,7.5143473,5.1,5.0,6.3
5613.446,47.0369073,7.5141942,22.3,3.7,6.0
5629.451,47.0364638,7.5140023,51.4,4.8,5.7
5641.455,47.0360021,7.5138269,53.0,4.4,5.4
5647.454,47.0357147,7.5135337,39.0,5.6,5.4
5648.452,47.0356853,7.5134751,5.5,5.7,5.3
5652.442,47.0355197,7.5133481,20.8,6.0,5.3
5654.453,47.0354381,7.5132295,12.8,5.6,5.3
5660.451,47.0351902,7.5130045,32.4,5.7,5.1
5665.450,47.0348934,7.5128392,35.3,6.4,5.1
5666.456,47.0348256,7.5127680,9.3,6.7,5.2
5667.444,47.0347603,7.5126416,12.0,7.2,5.3
5671.451,47.0345197,7.5124176,31.7,8.4,5.5
5672.441,47.0344363,7.5123990,9.4,8.5,5.6
5675.453,47.0342828,7.5122441,20.7,8.3,5.7
5678.455,47.0341316,7.5121832,17.4,7.1,5.8
5682.449,47.0340040,7.5120078,19.5,5.8,5.9
5690.447,47.0336845,7.5117555,40.4,4.8,6.0
5695.455,47.0334919,7.5115457,26.7,5.2,6.0
5696.462,47.0334320,7.5116722,11.7,5.8,6.2
5697.453,47.0334018,7.5116478,3.8,5.8,6.2
5698.455,47.0333630,7.5116679,4.6,5.6,6.1
5699.460,47.0333104,7.5116426,6.2,5.7,6.2
5700.452,47.0332901,7.5117256,6.7,5.7,6.2
5702.455,47.0331887,7.5117304,11.3,6.0,6.2
5714.452,47.0327230,7.5119657,54.8,4.7,6.0
5725.452,47.0323056,7.5122119,50.0,4.6,5.7
5745.370,47.0320477,7.5125230,37.2,0.3,0.3
6007.450,47.0319651,7.5124470,10.8,0.3,0.3
6080.447,47.0315772,7.5128171,51.5,4.7,0.9
6087.458,47.0312573,7.5130012,38.2,5.6,1.5
6088.457,47.0312052,7.5130003,5.8,5.6,1.6
6089.451,47.0311446,7.5130467,7.6,5.8,1.7
6090.456,47.0311005,7.5130042,5.9,5.8,1.8
6095.451,47.0309047,7.5131486,24.4,5.6,2.2
6097.451,47.0307835,7.5131895,13.8,5.8,2.5
6098.446,47.0307292,7.5131735,6.2,5.8,2.6
6099.449,47.0307038,7.5132948,9.6,6.2,2.7
6103.447,47.0305195,7.5135372,27.6,6.6,3.2
6106.451,47.0303454,7.5135194,19.4,7.0,3.5
6107.443,47.0302926,7.5135672,6.9,7.0,3.6
6109.451,47.0302199,7.5137059,13.3,6.8,3.9
6111.454,47.0301311,7.5137030,9.9,6.3,4.0
6120.457,47.0296600,7.5135561,53.6,5.8,4.9
6130.450,47.0292015,7.5134119,52.1,5.3,5.8
6132.441,47.0291559,7.5133395,7.5,4.9,5.7
6133.448,47.0290960,7.5133222,6.8,4.6,5.8
6134.452,47.0290574,7.5134238,8.8,5.0,5.9
6144.446,47.0286628,7.5132803,45.2,4.5,5.7
6152.447,47.0283354,7.5132866,36.4,4.7,5.6
6163.443,47.0279881,7.5130033,44.2,4.2,5.1
6164.437,47.0279314,7.5130452,7.1,4.4,5.1
6165.442,47.0278831,7.5130339,5.4,4.6,5.1
6166.451,47.0278899,7.5129706,4.9,4.7,5.1
6167.450,47.0278444,7.5129266,6.1,4.9,5.1
6169.448,47.0277622,7.5129452,9.2,5.6,5.1
6170.444,47.0277718,7.5129053,3.2,5.5,5.1
6180.446,47.0273821,7.5125536,50.9,4.9,4.9
6194.454,47.0270037,7.5120711,55.8,4.3,4.6
6203.451,47.0266085,7.5118026,48.4,5.9,4.8
6215.449,47.0261610,7.5115685,52.8,4.6,4.8
6231.456,47.0257325,7.5112544,53.3,3.3,4.3
6245.449,47.0252871,7.5109850,53.6,4.0,4.2
6251.461,47.0250085,7.5107706,35.0,5.2,4.5
6254.451,47.0248805,7.5107255,14.6,5.5,4.4
6263.462,47.0245311,7.5103367,48.8,5.3,4.3
6264.458,47.0244703,7.5103416,6.8,5.4,4.4
6267.450,47.0243607,7.5102405,14.4,5.4,4.4
6269.453,47.0243426,7.5101592,6.5,5.0,4.4
6270.451,47.0243915,7.5101932,6.0,5.3,4.4
6271.453,47.0243980,7.5101464,3.6,5.2,4.4
6281.482,47.0240818,7.5098205,43.0,4.3,4.4
6291.458,47.0238977,7.5094664,33.8,3.5,4.5
6296.457,47.0237510,7.5094643,16.3,3.7,4.5
6318.454,47.0233558,7.5097963,50.7,2.3,3.5
6339.453,47.0229414,7.5100901,51.2,2.5,2.7
6351.454,47.0225412,7.5104004,50.4,4.4,2.9
6355.458,47.0223470,7.5105715,25.2,5.6,3.0
6360.451,47.0221792,7.5108836,30.2,6.1,3.3
6362.455,47.0220543,7.5109559,14.9,6.5,3.5
6363.449,47.0220310,7.5110094,4.8,6.4,3.5
6364.449,47.0219744,7.5110340,6.6,6.4,3.6
6367.460,47.0218594,7.5112087,18.4,6.3,3.8
6368.457,47.0218000,7.5112505,7.3,6.3,3.9
6370.458,47.0217564,7.5113387,8.3,6.1,4.0
6375.454,47.0216535,7.5113603,11.6,4.0,4.0
6376.452,47.0216658,7.5112436,9.0,4.5,4.1
6391.453,47.0214413,7.5106717,50.1,3.4,4.3
6403.470,47.0213922,7.5104945,14.5,1.9,4.2
6410.458,47.0215850,7.5104448,21.8,2.8,4.1
6421.463,47.0214475,7.5100623,32.9,3.0,3.4
6433.457,47.0211051,7.5096355,50.0,4.6,3.3
6446.457,47.0207981,7.5091430,50.7,3.8,3.4
6458.456,47.0206183,7.5085574,48.8,4.2,3.6
6459.454,47.0205746,7.5084830,7.5,4.5,3.7
6460.451,47.0205583,7.5083989,6.6,4.7,3.8
6462.450,47.0204728,7.5082258,16.2,5.5,4.1
6464.450,47.0204527,7.5079754,19.2,6.6,4.3
6466.441,47.0204710,7.5077736,15.5,7.6,4.4
6469.454,47.0204414,7.5074585,24.2,8.2,4.6
6470.457,47.0204700,7.5073554,8.5,8.4,4.7
6471.449,47.0204550,7.5072586,7.5,8.3,4.8
6478.451,47.0205943,7.5065678,54.8,7.9,5.4
6479.444,47.0205678,7.5064127,12.2,8.2,5.5
6481.452,47.0204936,7.5061705,20.2,8.6,5.8
6483.457,47.0205500,7.5059251,19.7,9.2,6.0
6486.452,47.0205004,7.5056143,24.3,9.1,6.1
6488.459,47.0204052,7.5054270,17.7,9.5,6.3
6494.456,47.0202255,7.5048993,44.8,8.0,6.6
6495.457,47.0201438,7.5048025,11.7,8.3,6.7
6497.459,47.0201432,7.5046043,15.1,8.2,6.8
6498.456,47.0200787,7.5045844,7.3,8.0,6.9
6499.465,47.0201486,7.5045529,8.1,8.0,6.9
6500.460,47.0201652,7.5043815,13.2,8.6,7.1
6501.458,47.0201497,7.5043553,2.6,8.1,7.1
6503.456,47.0201663,7.5040893,20.3,8.5,7.3
6504.463,47.0201127,7.5040167,8.1,8.7,7.4
6505.462,47.0201745,7.5038976,11.4,8.4,7.6
6508.455,47.0201620,7.5038142,6.5,8.3,7.6
6509.451,47.0200806,7.5037395,10.7,8.6,7.7
6510.451,47.0200838,7.5036692,5.4,8.3,7.7
6512.459,47.0198870,7.5035224,24.6,8.8,8.0
6513.456,47.0198662,7.5034758,4.2,8.4,8.0
6514.465,47.0198858,7.5034378,3.6,7.9,8.0
6515.459,47.0198336,7.5033731,7.6,7.9,8.1
6516.465,47.0198204,7.5032803,7.2,7.3,8.1
6517.457,47.0197934,7.5032824,3.0,7.1,8.1
6518.458,47.0198181,7.5030478,18.0,8.4,8.4
6522.455,47.0198204,7.5029320,8.8,6.6,8.2
6526.456,47.0197237,7.5026338,25.1,7.5,8.2
6527.467,47.0197008,7.5024832,11.7,7.9,8.3
6529.457,47.0197360,7.5023120,13.6,7.4,8.2
6534.456,47.0197085,7.5019403,28.4,7.3,8.0
6535.454,47.0195055,7.5017554,26.6,7.3,8.0
6536.451,47.0196661,7.5018166,18.5,6.5,7.9
6539.459,47.0195447,7.5016417,18.9,5.8,7.8
6540.454,47.0196412,7.5016862,11.2,6.4,7.9
6541.456,47.0196327,7.5016310,4.3,6.2,7.7
6542.455,47.0196992,7.5016201,7.4,6.3,7.7
6544.457,47.0197254,7.5015432,6.5,5.8,7.5
6546.460,47.0197884,7.5014685,9.0,5.7,7.4
6547.460,47.0199018,7.5014806,12.6,6.4,7.4
6549.453,47.0200282,7.5014195,14.8,6.7,7.4
6556.446,47.0204050,7.5008379,60.9,8.8,7.4
6558.453,47.0203055,7.5006353,19.0,8.6,7.5
6559.453,47.0202510,7.5006157,6.2,8.5,7.5
6561.443,47.0201638,7.5005257,11.9,8.2,7.4
6564.458,47.0200843,7.5003578,15.5,7.1,7.0
6570.457,47.0199527,7.5000512,27.5,5.7,7.0
6571.458,47.0199223,7.5000513,3.4,5.5,6.9
6572.454,47.0198940,7.4999941,5.4,5.4,6.8
6573.447,47.0198101,7.4999834,9.4,5.9,6.8
6576.437,47.0197189,7.4998584,13.9,6.0,6.8
6580.446,47.0197455,7.4997247,10.6,4.4,6.4
6587.454,47.0196900,7.4994719,20.2,2.9,5.9
6592.448,47.0198543,7.4993664,20.0,3.6,5.7
6598.452,47.0201802,7.4992145,38.0,5.6,5.8
6599.449,47.0202181,7.4991481,6.6,6.0,5.8
6607.457,47.0200865,7.4986305,42.0,5.4,5.6
6611.460,47.0199792,7.4983585,23.9,5.1,5.6
6617.455,47.0196804,7.4979968,43.1,6.8,5.4
6618.448,47.0197095,7.4979758,3.6,6.5,5.2
6619.456,47.0196870,7.4979418,3.6,6.3,5.2
6620.450,47.0196853,7.4978406,7.7,6.4,5.2
6622.447,47.0196464,7.4977410,8.7,5.1,5.2
6625.457,47.0196943,7.4976277,10.1,4.5,5.1
6634.460,47.0195160,7.4970751,46.5,4.9,5.0
6636.457,47.0195246,7.4969664,8.3,5.1,4.9
6638.454,47.0194900,7.4968345,10.7,5.3,5.0
6641.455,47.0194723,7.4966925,11.0,5.1,5.1
6655.458,47.0191752,7.4961652,51.9,3.5,5.0
6661.457,47.0190387,7.4959596,21.8,3.5,4.7
6664.458,47.0190409,7.4957871,13.1,3.9,4.7
6666.469,47.0191438,7.4954951,25.0,5.7,5.0
6667.470,47.0190808,7.4954787,7.1,5.9,5.0
6671.458,47.0189924,7.4952389,20.7,6.6,5.0
6672.459,47.0189188,7.4952174,8.3,6.8,5.0
6674.457,47.0189566,7.4951138,8.9,7.0,4.8
6676.458,47.0188954,7.4949905,11.6,5.7,4.8
6677.437,47.0189211,7.4949671,3.4,5.3,4.8
6682.453,47.0188576,7.4946086,28.2,5.3,4.8
6687.453,47.0186723,7.4941553,40.2,6.6,5.2
6688.455,47.0187070,7.4941225,4.6,7.0,5.2
6692.457,47.0186575,7.4938164,23.9,6.8,5.3
6694.450,47.0185866,7.4936454,15.2,7.0,5.4
6695.458,47.0185847,7.4935752,5.3,6.6,5.3
6696.459,47.0184560,7.4935378,14.6,7.3,5.5
6697.463,47.0184388,7.4934326,8.2,7.4,5.5
6700.459,47.0185256,7.4932433,17.3,7.1,5.6
6702.451,47.0184922,7.4930825,12.8,7.4,5.7
6703.460,47.0185105,7.4930286,4.6,7.1,5.7
6708.458,47.0184329,7.4926535,29.8,5.9,5.8
6709.446,47.0184554,7.4926480,2.5,5.5,5.8
6722.461,47.0183962,7.4919504,53.4,4.3,6.0
6734.456,47.0183621,7.4912775,51.3,4.3,5.5
6736.470,47.0183340,7.4911571,9.7,4.4,5.4
6737.470,47.0182675,7.4910699,9.9,4.9,5.5
6739.470,47.0182218,7.4909498,10.4,5.2,5.6
6741.449,47.0182485,7.4908439,8.6,5.3,5.5
6743.454,47.0181538,7.4907488,12.8,5.7,5.5
6744.449,47.0181611,7.4907055,3.4,5.6,5.5
6745.456,47.0181144,7.4905999,9.6,6.1,5.5
6746.464,47.0180195,7.4905671,10.8,6.6,5.5
6748.457,47.0180439,7.4904716,7.7,5.7,5.4
6749.446,47.0180285,7.4904154,4.6,5.6,5.4
6750.449,47.0180429,7.4903822,3.0,5.4,5.3
6751.454,47.0179996,7.4903423,5.7,5.8,5.3
6764.472,47.0179654,7.4897985,41.5,3.2,4.6
6779.459,47.0177313,7.4892151,51.4,3.4,4.3
6793.466,47.0175951,7.4885505,52.8,3.7,4.2
6811.461,47.0174321,7.4879252,50.9,3.0,3.4
6825.451,47.0172824,7.4872553,53.6,4.0,3.4
6834.458,47.0171359,7.4868162,37.1,4.2,3.6
6835.460,47.0171589,7.4866821,10.5,4.8,3.7
6839.447,47.0171182,7.4863631,24.7,5.3,3.9
6841.463,47.0172872,7.4860284,31.6,7.4,4.2
6853.461,47.0171342,7.4853414,54.9,6.5,4.6
6863.461,47.0169884,7.4846924,51.9,5.2,4.9
6875.466,47.0168395,7.4840355,52.6,4.3,5.2
6887.475,47.0167094,7.4834340,48.0,4.0,5.2
6891.457,47.0168643,7.4833363,18.8,4.4,5.2
6892.458,47.0166612,7.4832139,24.4,4.4,5.2
6908.443,47.0164818,7.4826061,50.3,2.5,4.6
6925.448,47.0162500,7.4820392,50.2,3.3,3.9
6938.445,47.0159851,7.4814994,50.5,4.5,3.8
6957.454,47.0157277,7.4809488,50.7,2.3,3.0
6977.470,47.0155111,7.4803366,52.4,2.0,3.0
6989.465,47.0154566,7.4801910,12.6,3.3,2.9
6991.463,47.0150234,7.4800543,49.3,3.3,2.9
7002.458,47.0147623,7.4796907,40.1,3.8,3.7
7005.447,47.0146836,7.4794460,20.6,4.3,3.7
7012.454,47.0144540,7.4790936,37.0,5.4,4.1
7028.448,47.0143760,7.4784246,51.6,3.7,4.3
7039.443,47.0140531,7.4779367,51.6,4.7,4.7
7046.445,47.0138110,7.4776586,34.2,5.6,5.1
7049.453,47.0138745,7.4775325,11.9,5.5,5.0
7059.454,47.0142792,7.4774496,45.4,4.6,4.5
7064.457,47.0143716,7.4772246,20.0,4.1,4.6
7083.445,47.0142805,7.4765731,50.6,2.2,3.9
7106.456,47.0142506,7.4759055,50.9,2.1,3.1
7127.457,47.0143507,7.4752533,50.8,2.4,2.5
7143.446,47.0144177,7.4747696,37.5,2.2,2.4
7156.454,47.0145298,7.4748062,12.8,1.3,2.1
7300.459,47.0145097,7.4747829,2.8,0.3,0.0
7313.461,47.0145916,7.4740903,53.4,4.3,0.9
7327.455,47.0145802,7.4733986,52.6,3.6,1.8
7344.447,47.0146620,7.4727332,51.4,2.9,2.7
7361.448,47.0147394,7.4720826,50.2,2.9,3.4
7376.457,47.0149085,7.4714191,53.8,3.7,3.3
7389.447,47.0149563,7.4707465,51.4,4.0,3.3
7402.481,47.0149860,7.4700692,51.6,4.1,3.6
7414.452,47.0151314,7.4694125,52.5,4.4,3.9
7424.454,47.0150394,7.4688281,45.6,4.6,4.1
7436.452,47.0150470,7.4681525,51.4,4.2,4.3
7449.458,47.0149795,7.4674756,52.0,4.0,4.3
7461.458,47.0150696,7.4668110,51.5,4.4,4.3
7475.453,47.0151739,7.4661293,53.1,3.8,4.2
7477.453,47.0151949,7.4660326,7.7,3.7,4.2
7480.458,47.0151325,7.4658791,13.6,4.0,4.2
7490.452,47.0153572,7.4652952,50.9,5.1,4.3
7495.442,47.0154464,7.4649828,25.7,5.2,4.4
7496.434,47.0154917,7.4649073,7.6,5.4,4.4
7497.439,47.0154631,7.4647890,9.5,5.9,4.5
7506.441,47.0156868,7.4641768,52.8,6.4,4.8
7515.452,47.0159236,7.4635524,54.3,5.9,5.0
7523.468,47.0161982,7.4629376,55.8,6.6,5.4
7526.456,47.0162856,7.4627653,16.3,6.7,5.5
7527.451,47.0163484,7.4627569,7.0,6.8,5.5
7545.454,47.0166648,7.4622658,51.3,2.5,5.1
7567.470,47.0168269,7.4618813,34.3,1.5,3.6
7582.447,47.0165720,7.4616117,35.0,2.2,2.7
7595.453,47.0164505,7.4612188,32.8,2.6,2.2
7599.444,47.0163020,7.4612397,16.6,3.5,2.3
7607.462,47.0158838,7.4615663,52.7,6.1,2.8
7614.455,47.0154603,7.4616830,47.9,6.6,3.5
7622.450,47.0150179,7.4614802,51.5,6.6,4.2
7630.460,47.0145836,7.4612630,51.0,6.7,4.7
7631.452,47.0145392,7.4612536,5.0,6.5,4.7
7632.452,47.0145269,7.4612825,2.6,6.0,4.7
7641.459,47.0142170,7.4611887,35.2,3.9,5.0
7642.452,47.0141954,7.4612138,3.1,3.8,5.0
7659.452,47.0137356,7.4610807,52.1,3.1,5.1
7663.451,47.0136143,7.4610406,13.8,3.2,4.8
7676.451,47.0133106,7.4611714,35.2,2.7,4.0
7699.446,47.0128724,7.4613905,51.5,2.1,2.8
7722.453,47.0123929,7.4613837,53.3,3.0,2.5
7727.448,47.0121725,7.4614268,24.7,4.1,2.6
7735.453,47.0117043,7.4614662,52.1,6.3,3.2
7742.458,47.0113354,7.4615173,41.2,5.9,3.5
7743.444,47.0111596,7.4616592,22.3,6.8,3.8
7745.459,47.0110886,7.4617498,10.5,7.5,3.9
7746.459,47.0111075,7.4616255,9.7,8.1,4.1
7747.459,47.0110594,7.4616544,5.8,7.7,4.1
7748.451,47.0110559,7.4615494,8.0,7.8,4.2
7751.450,47.0109269,7.4616461,16.1,8.2,4.4
7757.458,47.0107869,7.4615173,18.4,4.5,4.5
7770.449,47.0104776,7.4610304,50.5,3.8,4.9
7780.457,47.0103816,7.4606650,29.8,3.0,5.0
7789.458,47.0098264,7.4606263,61.8,6.1,5.2
7798.449,47.0093760,7.4607800,51.4,6.9,5.2
7804.445,47.0090645,7.4608413,34.9,6.0,5.2
7805.452,47.0090406,7.4607971,4.3,5.9,5.0
7810.456,47.0087830,7.4608575,29.0,5.4,4.9
7811.453,47.0087503,7.4610282,13.5,6.2,5.0
7812.450,47.0086907,7.4610497,6.8,6.5,5.0
7813.456,47.0086152,7.4609174,13.1,7.1,5.2
7820.460,47.0081540,7.4611204,53.5,8.7,5.6
7826.449,47.0078057,7.4612235,39.5,7.1,5.9
7827.455,47.0077610,7.4612667,6.0,6.9,6.0
7828.460,47.0077650,7.4612923,2.0,6.2,5.9
7835.458,47.0072897,7.4615002,55.1,6.8,6.5
7836.459,47.0072395,7.4614678,6.1,7.0,6.5
7839.460,47.0070473,7.4615272,21.8,6.8,6.7
7841.457,47.0068956,7.4616404,18.9,7.4,6.9
7843.464,47.0067822,7.4616667,12.8,7.5,7.0
7848.454,47.0065286,7.4617733,29.3,6.7,7.0
7849.453,47.0065307,7.4617931,1.5,6.4,6.7
7856.448,47.0060929,7.4619901,50.9,6.1,6.9
7865.448,47.0056440,7.4621524,51.4,5.8,6.9
7871.456,47.0052976,7.4622956,40.0,6.1,6.9
7875.451,47.0051523,7.4624577,20.3,5.9,6.6
7883.454,47.0046498,7.4624905,55.9,6.3,6.6
7892.445,47.0041754,7.4626633,54.4,6.2,6.5
7894.457,47.0040839,7.4626972,10.5,5.9,6.4
7895.453,47.0040029,7.4626652,9.3,6.3,6.5
7902.453,47.0035651,7.4628532,50.7,7.1,6.4
7906.450,47.0034216,7.4629104,16.5,6.1,6.2
7908.449,47.0033744,7.4628886,5.5,5.1,6.1
7911.452,47.0034120,7.4629582,6.7,3.7,5.9
7921.453,47.0029249,7.4630174,54.3,5.2,5.8
7940.460,47.0024801,7.4628611,50.9,2.0,4.7
7952.463,47.0020307,7.4626563,52.3,4.4,4.3
7961.454,47.0015912,7.4624242,52.0,5.7,4.1
7966.458,47.0014430,7.4623449,17.5,4.3,4.2
7977.447,47.0009869,7.4621065,53.8,5.3,4.1
7986.455,47.0005175,7.4618686,55.2,6.1,4.5
7999.455,47.0000693,7.4616271,53.1,4.2,4.8
8005.454,46.9999116,7.4615417,18.7,3.5,4.8
8006.457,46.9998865,7.4614129,10.2,4.3,4.9
8012.451,46.9995817,7.4612866,35.2,5.2,5.0
8027.454,46.9991487,7.4609193,55.7,5.0,4.9
8037.460,46.9986695,7.4605275,61.0,3.9,4.7
8045.450,46.9981987,7.4601686,59.0,8.0,5.2
8052.453,46.9977755,7.4598229,53.9,8.4,5.6
8058.458,46.9973601,7.4594796,53.1,8.8,6.1
8060.459,46.9971930,7.4592833,23.8,8.1,6.3
8068.460,46.9967231,7.4589699,57.4,8.5,6.8
8074.474,46.9961973,7.4585822,65.5,8.1,7.1
8082.438,46.9957505,7.4582935,54.3,9.0,7.6
8091.441,46.9952735,7.4580290,56.7,7.8,7.8
8099.458,46.9948054,7.4577859,55.2,7.9,8.1
8105.445,46.9943309,7.4575869,54.9,8.7,8.3
8110.443,46.9938886,7.4574177,50.8,9.6,8.7
8116.455,46.9932571,7.4572099,72.0,10.4,8.6
8124.443,46.9927789,7.4570741,54.2,11.0,8.6
8126.449,46.9926721,7.4570444,12.1,8.3,8.5
8128.452,46.9925648,7.4570250,12.0,6.8,8.5
8132.443,46.9923703,7.4570186,21.6,7.8,8.6
8140.460,46.9919224,7.4568911,50.7,7.3,8.6
8147.454,46.9914576,7.4568157,52.0,5.5,8.0
8154.456,46.9909625,7.4567633,55.2,8.3,8.3
8161.467,46.9904971,7.4567627,51.7,9.3,8.3
8168.453,46.9899950,7.4567933,55.9,7.8,8.1
8173.458,46.9893327,7.4568417,73.7,9.8,8.5
8180.458,46.9888733,7.4568792,51.1,9.9,8.2
8186.462,46.9883916,7.4569226,53.6,9.5,8.3
8192.467,46.9879088,7.4569661,53.8,9.3,8.4
8198.449,46.9874116,7.4570108,55.4,9.2,8.7
8204.447,46.9869215,7.4570549,54.6,8.6,8.9
8210.458,46.9864469,7.4570951,52.9,8.8,9.2
8216.458,46.9859447,7.4571370,55.9,9.0,9.1
8223.454,46.9854176,7.4571808,58.7,9.3,9.2
8229.459,46.9849317,7.4572212,54.1,9.1,9.2
8235.453,46.9844182,7.4572639,57.2,9.0,9.1
8241.431,46.9839451,7.4573011,52.7,9.2,9.1
8243.447,46.9837630,7.4573102,20.3,9.4,9.1
8248.454,46.9833146,7.4571422,51.5,9.1,9.2
8255.462,46.9828486,7.4569061,54.8,8.7,9.0
8262.463,46.9823688,7.4567102,55.4,7.4,8.9
8266.466,46.9819061,7.4567265,51.5,8.1,8.8
8267.448,46.9817916,7.4567359,12.8,10.1,9.1
8268.447,46.9817408,7.4566670,7.7,9.9,9.1
8275.449,46.9811983,7.4567133,60.4,10.9,9.1
8280.454,46.9808259,7.4567438,41.5,8.4,9.1
8281.459,46.9807557,7.4566906,8.8,8.9,9.1
8282.455,46.9806985,7.4567292,7.0,8.7,9.1
8284.454,46.9806773,7.4566011,10.0,7.8,8.9
8285.460,46.9806457,7.4567381,11.0,7.8,8.9
8286.460,46.9805904,7.4567094,6.5,7.8,8.9
8292.463,46.9801329,7.4568789,52.5,8.1,8.9
8304.462,46.9796487,7.4569286,54.0,4.1,7.9
8314.459,46.9791621,7.4569670,54.2,5.4,7.3
8317.459,46.9789757,7.4569800,20.7,6.3,7.3
8318.451,46.9789288,7.4570256,6.3,6.6,7.2
8327.457,46.9784560,7.4570243,52.6,6.0,7.0
8337.467,46.9779600,7.4570358,55.2,5.5,6.1
8346.468,46.9774865,7.4569634,52.9,5.9,5.8
8355.455,46.9770008,7.4568268,55.0,6.2,5.6
8364.448,46.9765618,7.4566368,50.9,6.1,5.8
8375.438,46.9760983,7.4564812,52.9,4.8,5.7
8384.445,46.9756621,7.4562594,51.4,5.4,5.6
8388.441,46.9754634,7.4560450,27.5,4.7,5.4
8389.444,46.9755976,7.4562061,19.3,4.9,5.4
8405.457,46.9752743,7.4556906,53.2,2.8,4.5
8422.455,46.9749688,7.4551891,51.1,3.8,3.8
8435.437,46.9747323,7.4545781,53.4,4.7,3.8
8447.445,46.9743900,7.4540639,54.6,4.6,3.8
8451.455,46.9743432,7.4539328,11.3,4.2,3.6
8461.453,46.9741729,7.4534218,43.2,4.1,3.8
8473.455,46.9738791,7.4528944,51.7,4.6,4.3
8480.443,46.9737168,7.4523269,46.8,4.6,4.4
8486.456,46.9737313,7.4522022,9.6,4.0,4.4
8499.453,46.9734704,7.4516169,53.2,4.5,4.3
8514.457,46.9732646,7.4510041,51.9,3.8,4.2
8527.436,46.9729745,7.4504584,52.6,4.1,4.1
8542.457,46.9727491,7.4498380,53.4,3.7,3.8
8553.453,46.9724181,7.4493095,54.5,4.9,4.0
8557.443,46.9723298,7.4489564,28.6,5.6,4.2
8560.444,46.9722435,7.4487652,17.4,6.0,4.3
8563.437,46.9722590,7.4486209,11.1,5.7,4.4
8565.443,46.9721947,7.4485639,8.4,5.5,4.4
8566.446,46.9721825,7.4485021,4.9,4.8,4.4
8568.450,46.9720702,7.4483721,15.9,5.3,4.5
8580.446,46.9718582,7.4477607,52.2,4.3,4.6
8588.453,46.9717276,7.4472843,39.1,4.0,4.6
8594.446,46.9715721,7.4469559,30.4,5.6,5.0
8595.449,46.9716424,7.4467349,18.5,7.1,5.2
8596.450,46.9716021,7.4467544,4.7,7.3,5.2
8597.439,46.9716064,7.4466824,5.5,7.5,5.3
8599.451,46.9714644,7.4465619,18.2,8.1,5.4
8600.451,46.9714037,7.4465503,6.8,8.2,5.5
8601.448,46.9713770,7.4464934,5.2,8.4,5.5
8602.451,46.9712932,7.4464230,10.7,8.6,5.6
8606.443,46.9712650,7.4463248,8.1,5.5,5.4
8607.450,46.9711939,7.4462360,10.4,6.1,5.5
8608.454,46.9711757,7.4461542,6.5,6.1,5.5
8610.453,46.9710636,7.4460819,13.6,5.7,5.6
8615.448,46.9709425,7.4458878,20.0,5.5,5.5
8617.455,46.9709471,7.4458447,3.3,4.6,5.3
8621.453,46.9707560,7.4457288,23.0,4.3,5.3
8629.447,46.9705078,7.4453571,39.5,5.4,5.3
8630.440,46.9703515,7.4452262,20.0,5.9,5.4
8632.445,46.9702390,7.4451910,12.8,6.6,5.6
8633.443,46.9702034,7.4451449,5.3,6.6,5.6
8634.447,46.9701182,7.4451730,9.7,7.0,5.7
8635.450,46.9700844,7.4451383,4.6,7.0,5.7
8636.449,46.9701017,7.4450377,7.9,7.3,5.8
8638.431,46.9700363,7.4448835,13.8,7.7,5.8
8640.434,46.9698896,7.4450032,18.7,8.5,6.0
8642.439,46.9698171,7.4449211,10.2,7.6,6.0
8646.432,46.9697099,7.4448475,13.2,6.0,6.0
8647.442,46.9697073,7.4447290,9.0,6.1,6.1
8649.444,46.9697368,7.4445761,12.1,5.1,6.2
8651.452,46.9697149,7.4441408,33.2,7.1,6.5
8653.448,46.9696356,7.4441808,9.3,7.4,6.6
8654.440,46.9696080,7.4440982,7.0,8.1,6.6
8655.442,46.9695654,7.4440601,5.6,7.8,6.5
8656.442,46.9694910,7.4440718,8.3,8.7,6.3
8658.508,46.9693931,7.4439833,12.8,8.4,6.3
8660.440,46.9692440,7.4439776,16.6,8.7,6.3
8664.435,46.9691259,7.4436941,25.3,6.9,6.3
8668.433,46.9689796,7.4435515,19.6,6.3,6.4
8669.432,46.9688250,7.4436411,18.5,6.5,6.4
8672.433,46.9687436,7.4435547,11.2,6.4,6.5
8675.444,46.9685063,7.4438136,32.9,7.6,6.8
8676.447,46.9684872,7.4437696,4.0,8.0,6.8
8679.443,46.9683584,7.4437496,14.4,7.7,6.9
8680.449,46.9682942,7.4437772,7.4,7.0,6.8
8687.440,46.9680079,7.4436853,32.6,3.4,6.6
8695.446,46.9676659,7.4437421,38.3,5.1,6.5
8698.439,46.9674426,7.4437867,25.1,6.9,6.4
8701.449,46.9673718,7.4437911,7.9,7.2,6.4
8702.442,46.9673232,7.4438486,7.0,7.4,6.4
8703.448,46.9671842,7.4438008,15.9,7.3,6.6
8704.453,46.9672183,7.4437748,4.3,7.5,6.7
8706.450,46.9673573,7.4438442,16.3,7.3,6.8
8707.453,46.9673290,7.4438921,4.8,7.3,6.7
8711.450,46.9671192,7.4437659,25.2,7.4,6.7
8712.450,46.9671304,7.4437250,3.4,7.0,6.5
8713.449,46.9670771,7.4437048,6.1,6.9,6.4
8714.449,46.9670331,7.4436165,8.3,6.2,6.4
8716.451,46.9668904,7.4436458,16.0,6.4,6.4
8719.439,46.9667024,7.4434521,25.6,7.2,6.5
8720.439,46.9667036,7.4433531,7.5,7.8,6.5
8723.432,46.9664724,7.4433034,26.0,8.4,6.6
8724.431,46.9664506,7.4432159,7.1,8.3,6.6
8729.442,46.9661387,7.4434526,39.1,8.0,6.8
8730.448,46.9660659,7.4434229,8.4,8.1,6.8
8731.445,46.9660538,7.4433534,5.5,7.9,6.7
8733.446,46.9659131,7.4433084,16.0,7.5,6.8
8735.456,46.9658110,7.4433144,11.4,7.4,6.6
8736.445,46.9657784,7.4432893,4.1,7.5,6.5
8737.441,46.9657337,7.4433087,5.2,7.3,6.6
8738.453,46.9655562,7.4432601,20.1,6.5,6.6
8741.436,46.9654725,7.4432167,9.9,6.6,6.7
8742.439,46.9654514,7.4432568,3.8,6.5,6.7
8743.436,46.9653684,7.4432386,9.3,6.8,6.8
8744.438,46.9654025,7.4430339,16.0,7.4,7.0
8747.439,46.9652145,7.4429837,21.2,7.9,7.2
8748.440,46.9650863,7.4429844,14.3,8.7,7.3
8755.445,46.9646439,7.4427185,53.2,7.7,7.6
8756.452,46.9645060,7.4424819,23.6,7.7,7.6
8758.440,46.9643756,7.4423958,15.9,9.2,7.8
8759.444,46.9642567,7.4425221,16.3,9.9,8.1
8768.453,46.9638300,7.4422186,52.8,7.0,7.8
8770.481,46.9636981,7.4421458,15.7,6.5,7.9
8773.450,46.9637175,7.4419677,13.7,5.9,7.8
8774.442,46.9636361,7.4419360,9.4,5.8,7.8
8776.441,46.9635880,7.4418101,11.0,5.8,7.7
8779.452,46.9634573,7.4417737,14.8,5.4,7.6
8780.456,46.9634032,7.4417193,7.3,5.6,7.6
8782.446,46.9633207,7.4415489,15.9,6.6,7.5
8783.451,46.9632681,7.4415213,6.2,6.4,7.5
8785.442,46.9632072,7.4413815,12.6,6.1,7.5
8786.460,46.9632096,7.4412326,11.3,6.6,7.6
8787.456,46.9631431,7.4412287,7.4,7.3,7.6
8788.447,46.9631129,7.4411250,8.6,7.5,7.6
8794.449,46.9627293,7.4407683,50.6,8.3,7.6
8800.447,46.9623122,7.4404647,51.8,8.6,7.8
8809.367,46.9617682,7.4399700,71.2,8.0,7.7
8811.419,46.9612090,7.4400978,62.9,10.5,8.2
8814.439,46.9611448,7.4400448,8.2,10.3,8.2
8815.437,46.9610849,7.4399035,12.6,10.5,8.4
8816.436,46.9610657,7.4403965,37.6,10.5,8.4
8817.444,46.9608934,7.4405064,20.9,11.6,8.6
8819.441,46.9609021,7.4403328,13.2,11.7,8.6
8821.449,46.9608507,7.4402511,8.4,13.1,8.5
8825.449,46.9606139,7.4401797,26.9,9.1,8.3
8827.452,46.9605503,7.4402279,8.0,9.0,8.4
8829.459,46.9604652,7.4402122,9.5,5.4,8.3
8831.447,46.9603409,7.4402732,14.6,5.9,8.5
8835.446,46.9601945,7.4401875,17.5,5.4,8.3
8837.451,46.9601416,7.4402391,7.1,5.2,8.3
8838.449,46.9600843,7.4402410,6.4,5.0,8.2
8839.439,46.9601201,7.4402604,4.2,4.9,8.2
8840.441,46.9600907,7.4402712,3.4,4.8,8.2
8845.451,46.9598987,7.4402876,21.4,4.4,8.0
8847.448,46.9597569,7.4402254,16.5,5.3,7.9
8848.450,46.9597334,7.4400707,12.1,5.9,8.0
8849.444,46.9596527,7.4400352,9.4,6.4,8.0
8850.457,46.9596087,7.4401737,11.6,7.2,8.1
8851.444,46.9595493,7.4399896,15.5,8.4,8.2
8857.455,46.9589765,7.4397446,66.4,9.4,8.1
8867.452,46.9585463,7.4395470,50.1,6.3,7.9
8871.452,46.9583507,7.4393585,26.1,5.5,7.5
8876.454,46.9582683,7.4392697,11.4,5.2,6.9
8878.453,46.9582299,7.4391935,7.2,4.4,6.8
8880.438,46.9581357,7.4391422,11.2,5.2,6.2
8883.429,46.9581652,7.4390826,5.6,3.8,5.9
8908.450,46.9576563,7.4385113,71.4,3.5,4.4
8930.433,46.9573322,7.4383243,38.7,2.5,3.1
8934.436,46.9570085,7.4381321,38.8,3.4,2.8
8952.433,46.9569492,7.4381602,6.9,1.3,2.7
8965.434,46.9567645,7.4378546,31.0,3.3,2.6
8982.441,46.9571552,7.4374758,52.1,3.7,2.7
8995.438,46.9575662,7.4371712,51.2,3.7,3.0
9004.433,46.9578253,7.4369324,34.1,3.9,3.1
9015.438,46.9582325,7.4366205,51.1,4.5,3.7
9029.438,46.9586180,7.4362690,50.5,3.8,3.9
9035.434,46.9587905,7.4359819,29.1,4.5,4.1
9038.432,46.9587430,7.4357424,19.0,4.5,4.1
9056.438,46.9584670,7.4351890,52.1,3.3,3.9
9068.429,46.9581617,7.4346941,50.7,4.3,3.9
9078.431,46.9578524,7.4341874,51.7,5.2,4.1
9082.438,46.9576675,7.4340948,21.7,5.5,4.2
9089.437,46.9575222,7.4336895,34.8,5.2,4.4
9100.441,46.9572060,7.4331031,56.8,5.7,4.5
9118.439,46.9570491,7.4328029,28.7,0.9,4.1
9170.735,46.9570453,7.4327956,0.7,0.1,0.2
</abvio:coordinateTable>
<abvio:altitudeTable>
35.444,565.6,0.0,0.000,565.6
96.451,562.5,0.0,-0.017,563.7
102.450,561.4,0.0,-0.154,563.5
108.449,560.9,0.0,-0.116,563.2
136.448,558.1,0.0,-0.173,561.3
142.437,557.9,0.0,-0.118,560.8
158.426,556.0,0.0,-0.163,559.3
163.455,554.5,0.0,-0.278,558.8
169.453,554.7,0.0,-0.094,558.1
175.445,556.1,0.0,0.157,557.6
180.454,556.1,0.0,0.125,557.2
196.452,557.3,0.0,0.131,556.3
202.450,559.2,0.0,0.270,556.4
208.451,560.0,0.0,0.160,556.6
230.446,563.7,0.0,0.208,558.7
235.451,563.8,0.0,0.122,559.4
268.439,562.7,0.0,-0.131,562.9
279.449,551.6,0.0,-1.116,562.7
289.450,555.9,0.0,0.427,561.0
300.459,560.2,0.0,0.341,560.0
306.449,557.6,0.0,-0.030,559.4
317.446,559.6,0.0,0.251,558.4
328.450,559.5,0.0,-0.004,557.7
340.443,561.4,0.0,0.167,558.1
346.433,561.3,0.0,-0.041,559.1
367.448,564.3,0.0,0.249,560.7
372.469,564.9,0.0,0.322,561.4
378.434,565.0,0.0,0.060,561.9
394.436,561.8,0.0,-0.209,562.8
406.433,563.4,0.0,0.185,563.1
411.438,563.3,0.0,0.114,563.2
417.439,562.4,0.0,-0.164,563.3
422.440,559.5,0.0,-0.266,563.2
428.433,554.7,0.0,-0.700,562.6
439.454,536.7,0.0,-1.640,559.4
445.438,544.1,0.0,-0.443,557.2
451.495,546.5,0.0,0.783,555.3
462.452,545.5,0.0,-0.189,552.7
467.458,544.6,0.0,-0.350,551.2
472.456,544.1,0.0,-0.144,549.6
478.454,543.1,0.0,-0.095,547.7
484.457,541.4,0.0,-0.214,545.9
490.467,542.3,0.0,-0.044,544.5
495.456,543.4,0.0,0.153,543.6
506.453,545.5,0.0,0.274,544.3
512.447,546.3,0.0,0.172,544.3
517.451,545.8,0.0,0.031,544.2
584.447,542.8,0.0,-0.396,546.7
589.458,539.8,0.0,-0.694,546.2
600.465,533.3,0.0,-0.584,544.4
610.459,533.2,0.0,-0.015,541.8
621.459,531.5,0.0,-0.236,539.2
626.454,530.7,0.0,-0.107,537.8
680.446,527.2,0.0,-0.259,530.0
692.477,523.1,0.0,-0.309,528.8
697.462,522.0,0.0,-0.207,528.1
702.431,520.3,0.0,-0.288,527.4
708.445,522.2,0.0,0.018,526.4
713.443,522.5,0.0,0.189,525.9
718.452,526.1,0.0,0.393,525.3
724.459,522.0,0.0,-0.121,524.6
771.450,521.7,0.0,-0.154,523.0
776.452,521.6,0.0,-0.062,522.8
843.455,522.1,0.0,-0.138,523.1
853.451,518.6,0.0,-0.345,522.7
859.449,521.5,0.0,0.069,522.4
864.456,522.6,0.0,0.432,522.4
874.457,523.0,0.0,0.041,522.4
880.456,519.9,0.0,-0.444,522.2
891.433,521.2,0.0,0.150,521.5
896.435,522.7,0.0,0.370,521.4
907.434,528.2,0.0,0.378,522.4
918.434,524.2,0.0,-0.189,523.1
923.447,523.3,0.0,-0.422,523.2
929.448,523.8,0.0,0.071,523.3
934.453,527.8,0.0,0.412,523.5
946.445,530.0,0.0,0.200,525.1
951.445,528.5,0.0,0.058,525.7
957.448,529.7,0.0,0.245,526.5
963.451,534.8,0.0,0.628,527.3
975.449,534.5,0.0,-0.075,528.9
986.443,537.0,0.0,0.229,531.0
991.455,535.4,0.0,-0.044,531.9
996.454,534.7,0.0,-0.230,532.7
1002.461,536.0,0.0,0.054,533.4
1018.452,538.3,0.0,0.162,535.6
1024.452,538.3,0.0,0.105,536.1
1029.430,540.8,0.0,0.225,536.5
1034.444,539.6,0.0,0.127,537.0
1075.492,543.7,0.0,0.337,539.9
1081.448,542.3,0.0,-0.065,540.2
1097.454,544.6,0.0,0.197,541.2
1103.452,544.4,0.0,0.070,541.7
1126.436,539.7,0.0,-0.627,543.1
1132.454,544.0,0.0,-0.571,543.0
1137.453,544.0,0.0,0.452,543.1
1148.442,544.1,0.0,0.060,543.4
1154.444,546.7,0.0,0.252,543.7
1159.475,547.5,0.0,0.261,543.9
1165.446,546.6,0.0,-0.004,544.1
1171.452,547.7,0.0,0.152,544.4
1176.442,547.4,0.0,0.079,544.6
1188.456,549.6,0.0,0.155,546.1
1193.450,548.5,0.0,-0.031,546.7
1211.457,548.1,0.0,-0.156,548.0
1216.463,549.6,0.0,0.204,548.2
1222.448,552.1,0.0,0.361,548.6
1233.454,552.0,0.0,-0.004,549.6
1244.469,554.3,0.0,0.210,550.4
1249.443,552.6,0.0,0.066,550.8
1254.447,551.5,0.0,-0.282,551.0
1259.434,551.1,0.0,-0.151,551.2
1265.448,551.7,0.0,0.016,551.4
1289.434,554.0,0.0,0.134,552.6
1294.444,553.6,0.0,-0.057,552.7
1337.451,552.6,0.0,-0.245,553.7
1343.449,553.5,0.0,0.053,553.7
1383.042,552.3,0.0,-0.264,553.8
1388.437,552.1,0.0,-0.144,553.6
1394.440,552.3,0.0,-0.009,553.5
1416.455,554.6,0.0,0.323,553.0
1421.457,553.9,0.0,0.134,553.0
1427.451,554.5,0.0,0.080,553.1
1772.452,554.7,0.0,0.135,554.8
1778.436,553.7,0.0,-0.111,554.6
1788.438,552.1,0.0,-0.162,554.4
1794.447,550.3,0.0,-0.363,554.0
1799.447,549.2,0.0,-0.231,553.5
1805.456,549.2,0.0,-0.090,552.9
1810.454,550.7,0.0,0.169,552.5
1816.459,552.5,0.0,0.294,552.3
1822.457,553.9,0.0,0.244,552.3
1828.449,554.1,0.0,0.113,552.2
1834.461,552.5,0.0,-0.129,552.1
1839.457,553.6,0.0,-0.016,552.0
1890.445,553.2,0.0,-0.145,553.9
1896.438,554.0,0.0,0.027,554.0
1902.440,554.1,0.0,0.199,554.1
1907.452,553.4,0.0,-0.062,554.1
1935.440,552.2,0.0,-0.193,553.5
1946.450,551.9,0.0,-0.022,552.9
2018.458,555.2,0.0,0.074,553.5
2024.448,556.2,0.0,0.131,553.8
2035.458,556.8,0.0,0.056,554.5
2052.457,557.4,0.0,0.204,555.5
2058.457,558.0,0.0,0.112,555.9
2095.440,562.0,0.0,0.183,558.5
2101.439,559.1,0.0,-0.121,558.9
2112.438,560.8,0.0,0.151,559.6
2117.449,561.2,0.0,0.024,559.9
2122.459,562.1,0.0,0.134,560.2
2128.461,561.6,0.0,0.029,560.5
2140.459,564.3,0.0,0.267,561.2
2145.442,563.3,0.0,0.109,561.5
2157.457,561.2,0.0,-0.217,561.9
2162.439,562.9,0.0,-0.050,562.1
2168.448,564.2,0.0,0.190,562.5
2173.453,562.7,0.0,-0.105,562.7
2178.453,558.6,0.0,-0.557,562.6
2184.450,551.9,0.0,-0.986,562.1
2190.449,548.0,0.0,-0.884,560.8
2201.432,549.4,0.0,0.360,557.9
2207.433,549.9,0.0,0.192,556.5
2212.436,548.1,0.0,-0.122,555.1
2217.439,540.6,0.0,-0.934,553.7
2223.453,535.0,0.0,-1.188,551.2
2233.445,536.0,0.0,0.096,546.7
2250.445,536.9,0.0,0.173,541.0
2256.436,538.1,0.0,0.277,540.2
2268.437,538.0,0.0,-0.034,538.2
2273.441,538.1,0.0,-0.218,537.2
2279.446,537.4,0.0,-0.058,536.8
2284.436,539.5,0.0,0.130,536.9
2290.435,541.9,0.0,0.408,537.5
2296.434,539.6,0.0,0.021,537.8
2302.446,543.4,0.0,0.291,538.5
2313.458,543.2,0.0,0.018,540.1
2318.434,543.9,0.0,-0.157,540.7
2324.437,540.3,0.0,-0.348,540.8
2329.434,541.0,0.0,-0.045,541.0
2334.438,545.1,0.0,0.487,541.4
2345.433,563.1,0.0,0.468,543.8
2367.437,564.5,0.0,0.076,550.5
2383.437,562.4,0.0,-0.277,555.7
2389.435,561.9,0.0,-0.219,557.1
2395.449,561.0,0.0,-0.099,559.7
2421.440,558.6,0.0,-0.130,561.8
2438.447,554.6,0.0,-0.293,559.6
2444.459,548.3,0.0,-0.754,558.4
2449.458,544.7,0.0,-0.919,557.3
2461.461,542.2,0.0,-0.248,553.7
2482.452,539.0,0.0,-0.157,547.0
2494.440,538.7,0.0,-0.038,543.3
2511.437,536.9,0.0,-0.218,540.1
2517.437,535.3,0.0,-0.274,539.3
2528.438,533.6,0.0,-0.115,537.9
2545.464,531.7,0.0,-0.151,535.9
2550.452,531.4,0.0,-0.102,535.4
2568.456,529.4,0.0,-0.167,533.1
2579.455,528.4,0.0,-0.108,531.5
2603.442,529.3,0.0,0.140,529.8
2608.438,527.3,0.0,-0.206,529.4
2620.454,526.6,0.0,-0.040,528.5
2626.459,525.8,0.0,-0.133,528.1
2636.460,524.8,0.0,-0.098,527.4
2698.436,528.1,0.0,0.069,526.8
2716.448,530.0,0.0,0.169,527.7
2722.444,530.6,0.0,0.104,528.0
2744.437,528.7,0.0,-0.195,529.2
2760.432,526.6,0.0,-0.106,529.1
2777.427,528.6,0.0,0.189,528.6
2783.429,527.8,0.0,0.020,528.4
2788.433,529.4,0.0,0.136,528.2
2805.434,533.5,0.0,0.348,528.5
2811.429,534.5,0.0,0.211,529.1
2816.434,534.5,0.0,0.016,529.8
2866.432,534.7,0.0,0.136,534.2
2878.435,536.0,0.0,0.046,534.4
2883.433,536.7,0.0,0.134,534.6
2889.433,536.5,0.0,0.044,534.8
2910.452,531.0,0.0,-0.476,535.1
2915.455,531.9,0.0,-0.234,534.9
2921.458,530.9,0.0,-0.008,534.7
2942.456,530.4,0.0,-0.163,533.4
2948.455,533.2,0.0,0.144,532.9
2954.463,531.9,0.0,0.123,532.6
2960.457,531.4,0.0,-0.234,532.2
2965.455,534.3,0.0,0.240,532.0
2971.450,539.2,0.0,0.830,532.4
2978.444,535.5,0.0,0.149,532.9
2984.462,535.9,0.0,-0.267,533.6
2995.465,535.4,0.0,-0.104,534.2
3006.461,537.3,0.0,0.173,535.4
3011.458,537.0,0.0,-0.066,535.6
3028.459,535.0,0.0,-0.235,536.8
3033.453,535.1,0.0,-0.099,536.4
3755.446,532.9,0.0,-0.174,534.7
3760.454,533.2,0.0,-0.065,534.6
3766.445,534.7,0.0,0.162,534.6
3772.455,532.4,0.0,-0.277,534.5
3778.447,533.9,0.0,-0.053,534.1
3783.446,536.1,0.0,0.436,534.2
3789.445,536.5,0.0,0.232,534.3
3794.449,535.9,0.0,-0.015,534.4
3805.445,540.5,0.0,0.392,535.0
3811.444,540.6,0.0,0.251,535.6
3816.438,541.3,0.0,0.111,536.2
3822.436,545.6,0.0,0.495,537.3
3828.448,543.3,0.0,0.044,538.1
3833.457,544.4,0.0,-0.164,539.2
3839.446,545.0,0.0,0.148,540.4
3845.450,544.4,0.0,-0.062,541.3
3891.454,547.5,0.0,0.094,545.7
3976.455,551.0,0.0,0.145,549.0
3987.450,551.1,0.0,0.001,549.5
3993.451,550.2,0.0,-0.129,549.8
4005.454,546.5,0.0,-0.334,549.7
4010.444,542.3,0.0,-0.589,549.3
4022.451,538.8,0.0,-0.259,547.5
4027.450,539.3,0.0,-0.051,546.6
4095.449,540.2,0.0,0.136,538.9
4101.446,540.3,0.0,0.065,539.1
4112.441,543.7,0.0,0.309,539.6
4124.454,545.8,0.0,0.165,540.9
4141.454,547.8,0.0,0.097,543.2
4158.453,545.3,0.0,-0.215,545.3
4164.458,542.1,0.0,-0.475,545.6
4176.456,540.2,0.0,-0.136,545.2
4181.455,539.6,0.0,-0.075,544.8
4219.448,539.7,0.0,-0.156,540.9
4224.455,538.1,0.0,-0.268,540.5
4230.452,537.6,0.0,-0.191,540.1
4235.448,537.5,0.0,-0.068,539.9
4258.462,539.0,0.0,0.181,538.9
4264.459,537.9,0.0,-0.025,538.7
4302.451,534.9,0.0,-0.242,537.8
4314.454,537.0,0.0,0.184,537.5
4319.454,535.3,0.0,-0.019,537.3
4346.451,538.6,0.0,0.135,536.6
4357.458,541.6,0.0,0.281,537.1
4363.452,541.9,0.0,0.153,537.7
4369.451,541.8,0.0,0.005,538.3
4431.455,544.3,0.0,0.177,542.4
4437.445,544.2,0.0,0.087,542.7
4447.449,542.7,0.0,-0.152,543.1
4453.458,545.1,0.0,-0.075,543.3
4459.446,546.7,0.0,0.336,543.7
4465.449,547.4,0.0,0.188,544.1
4471.447,549.9,0.0,0.264,544.8
4477.452,551.2,0.0,0.203,545.6
4488.454,552.5,0.0,0.116,547.3
4505.454,549.5,0.0,-0.224,549.1
4510.451,548.2,0.0,-0.296,549.6
4516.452,546.6,0.0,-0.241,549.8
4522.455,546.4,0.0,-0.109,549.8
4528.452,544.8,0.0,-0.166,549.5
4533.458,547.4,0.0,0.070,549.3
4538.455,547.4,0.0,0.259,549.1
4544.454,547.5,0.0,-0.044,548.7
4550.444,546.0,0.0,-0.163,548.2
4556.443,546.0,0.0,-0.060,547.6
4561.437,547.4,0.0,0.162,547.2
4584.460,549.8,0.0,0.040,547.5
4604.451,547.7,0.0,-0.184,548.3
4610.453,545.3,0.0,-0.361,548.2
4616.456,544.6,0.0,-0.244,548.1
4622.460,544.0,0.0,-0.081,547.8
4645.457,544.1,0.0,-0.153,546.4
4656.460,544.0,0.0,0.019,545.3
4735.459,542.7,0.0,-0.156,544.0
4741.453,542.5,0.0,-0.056,543.8
4790.448,537.4,0.0,-0.267,541.2
4800.440,534.2,0.0,-0.319,540.0
4806.450,533.1,0.0,-0.231,539.2
4811.457,532.5,0.0,-0.127,538.5
4817.456,530.0,0.0,-0.315,537.4
4823.452,529.2,0.0,-0.244,536.2
4834.457,529.0,0.0,-0.002,533.9
4845.446,527.7,0.0,-0.128,531.8
4851.453,527.6,0.0,-0.055,530.8
4892.457,524.0,0.0,-0.108,526.6
4920.447,526.8,0.0,0.137,525.3
4931.458,527.2,0.0,0.021,525.4
4936.451,528.5,0.0,0.165,525.6
4942.447,528.6,0.0,0.105,525.9
4953.452,527.1,0.0,-0.156,526.5
4970.456,524.6,0.0,-0.114,526.8
5072.450,523.6,0.0,0.136,522.4
5078.449,523.4,0.0,0.071,522.6
5111.443,526.7,0.0,0.387,522.9
5116.457,519.7,0.0,-0.213,522.9
5122.454,520.1,0.0,-0.596,522.7
5128.457,519.4,0.0,-0.025,522.3
5134.457,521.3,0.0,0.148,522.0
5146.455,521.0,0.0,-0.050,521.6
5152.448,517.3,0.0,-0.388,521.2
5162.452,517.8,0.0,0.056,520.3
5168.456,514.4,0.0,-0.218,519.6
5173.445,514.0,0.0,-0.383,518.8
5179.458,513.7,0.0,-0.059,518.2
5184.457,515.2,0.0,0.134,517.8
5195.456,515.9,0.0,0.055,516.9
5201.454,517.7,0.0,0.212,516.4
5206.447,520.2,0.0,0.404,516.3
5211.455,520.2,0.0,0.249,516.4
5228.451,523.0,0.0,0.048,517.9
5258.451,517.1,0.0,-0.338,521.2
5269.434,515.0,0.0,-0.196,520.4
5274.450,514.5,0.0,-0.047,519.9
5280.455,513.5,0.0,-0.136,519.1
5285.455,513.4,0.0,-0.106,518.3
5291.452,512.0,0.0,-0.150,517.3
5297.444,512.4,0.0,-0.020,516.3
5303.447,513.7,0.0,0.137,515.5
5314.455,514.5,0.0,0.068,514.0
5364.453,518.2,0.0,0.118,515.8
5375.451,516.4,0.0,-0.184,516.4
5381.437,518.7,0.0,0.147,516.7
5393.449,518.4,0.0,-0.035,517.3
5405.453,520.1,0.0,0.136,518.0
5421.456,521.3,0.0,0.005,519.1
5497.450,519.5,0.0,-0.148,521.1
5508.475,517.9,0.0,-0.120,520.5
5525.458,515.9,0.0,-0.142,519.2
5531.462,515.7,0.0,-0.067,518.7
5603.442,518.3,0.0,0.133,516.7
5609.441,516.1,0.0,-0.166,516.8
5621.451,518.1,0.0,0.206,517.0
5626.455,518.4,0.0,0.091,517.2
5648.452,519.9,0.0,0.152,517.8
5653.452,519.8,0.0,0.088,518.1
5677.455,517.9,0.0,-0.131,518.8
5683.450,518.6,0.0,0.052,518.8
5688.454,520.2,0.0,0.221,519.0
5699.460,519.9,0.0,-0.035,519.3
6112.458,516.6,0.0,-0.058,518.1
6118.444,515.6,0.0,-0.163,517.8
6124.441,515.7,0.0,-0.074,517.5
6180.446,518.0,0.0,0.244,516.4
6186.456,518.3,0.0,0.068,516.7
6215.449,520.0,0.0,0.141,517.9
6227.445,521.3,0.0,0.076,518.8
6293.457,523.3,0.0,0.196,521.0
6299.457,523.4,0.0,0.084,521.2
6341.459,525.8,0.0,0.135,524.0
6347.458,526.1,0.0,0.087,524.5
6365.453,527.5,0.0,0.137,525.4
6375.454,528.7,0.0,0.117,526.0
6398.456,531.4,0.0,0.177,527.8
6404.468,531.1,0.0,0.076,528.3
6427.458,532.9,0.0,0.197,530.2
6433.457,532.9,0.0,0.098,530.7
6455.443,536.0,0.0,0.165,532.7
6466.441,534.6,0.0,-0.133,533.5
6472.463,531.5,0.0,-0.460,533.7
6483.457,532.0,0.0,0.074,533.7
6517.457,534.5,0.0,0.250,532.7
6528.465,533.0,0.0,-0.134,532.4
6538.452,533.4,0.0,0.035,532.5
6548.455,531.2,0.0,-0.215,532.5
6556.446,536.8,0.0,0.552,533.1
6562.445,529.9,0.0,-0.089,532.9
6584.443,531.6,0.0,0.171,531.6
6590.449,531.2,0.0,0.104,531.4
6601.455,529.6,0.0,-0.140,530.9
6607.457,529.4,0.0,-0.021,530.8
6613.447,528.4,0.0,-0.195,530.6
6625.457,528.9,0.0,0.070,529.5
6647.472,527.6,0.0,-0.174,529.2
6659.459,527.4,0.0,-0.003,528.6
6698.462,525.2,0.0,-0.165,527.0
6704.459,525.4,0.0,-0.039,526.7
6720.452,526.9,0.0,0.148,526.4
6726.447,527.4,0.0,0.073,526.3
6742.456,527.5,0.0,0.129,526.2
6748.457,526.7,0.0,0.029,526.3
6770.462,525.7,0.0,-0.230,527.0
6775.448,526.5,0.0,-0.097,526.9
6780.455,528.0,0.0,0.233,527.0
6785.458,527.3,0.0,0.078,527.0
6796.451,529.4,0.0,0.169,527.3
6801.445,530.9,0.0,0.308,527.6
6807.451,531.4,0.0,0.191,528.0
6813.463,531.1,0.0,0.017,528.4
6846.467,528.6,0.0,-0.155,530.5
6851.462,528.3,0.0,-0.255,530.5
6857.458,528.3,0.0,-0.020,530.5
6879.456,529.0,0.0,0.135,529.4
6885.476,529.3,0.0,0.077,529.1
6897.458,531.4,0.0,0.137,529.1
6909.451,532.7,0.0,0.100,529.5
7005.447,535.4,0.0,0.293,533.0
7011.458,535.3,0.0,0.190,533.2
7017.446,535.3,0.0,0.005,533.5
7059.454,534.6,0.0,-0.135,534.9
7065.454,535.9,0.0,0.172,535.0
7087.462,539.5,0.0,0.136,536.1
7093.459,539.7,0.0,0.072,536.7
7104.459,541.6,0.0,0.178,537.8
7122.449,545.2,0.0,0.177,540.4
7128.451,545.6,0.0,0.077,541.3
7145.441,547.2,0.0,0.127,543.6
7150.443,547.4,0.0,0.099,544.2
7316.454,548.0,0.0,-0.300,548.5
7321.462,549.2,0.0,0.070,548.6
7333.464,551.1,0.0,0.158,548.9
7343.453,551.4,0.0,0.029,549.5
7355.453,552.6,0.0,0.256,550.2
7361.448,553.4,0.0,0.077,550.6
7367.458,554.9,0.0,0.208,551.0
7372.451,554.1,0.0,0.121,551.4
7378.460,553.3,0.0,-0.147,552.0
7383.452,554.2,0.0,0.007,552.4
7400.449,555.4,0.0,0.247,553.3
7411.455,557.1,0.0,0.115,554.3
7428.452,555.7,0.0,-0.183,555.5
7434.458,557.0,0.0,0.031,555.5
7439.454,556.4,0.0,0.248,555.7
7445.451,555.8,0.0,-0.167,555.9
7451.452,556.6,0.0,0.011,556.3
7456.455,557.8,0.0,0.182,556.5
7467.452,558.7,0.0,0.118,557.0
7473.452,557.1,0.0,-0.142,557.1
7485.451,558.2,0.0,0.070,557.1
7497.439,555.6,0.0,-0.258,557.3
7502.437,554.0,0.0,-0.216,557.2
7513.471,552.8,0.0,-0.108,556.6
7529.449,553.6,0.0,0.170,555.2
7534.450,554.3,0.0,0.104,554.9
7546.458,556.3,0.0,0.182,554.3
7558.451,556.9,0.0,0.027,554.4
7570.452,559.3,0.0,0.238,555.4
7576.455,559.4,0.0,0.072,556.1
7599.444,561.0,0.0,0.248,558.2
7605.458,560.0,0.0,0.016,558.5
7616.459,557.9,0.0,-0.189,558.9
7621.460,558.4,0.0,-0.037,559.1
7690.453,561.0,0.0,0.146,559.1
7706.449,562.8,0.0,0.080,560.0
7717.457,564.0,0.0,0.128,561.0
7722.453,564.4,0.0,0.031,561.5
7733.458,561.5,0.0,-0.260,562.2
7738.452,561.3,0.0,-0.179,562.3
7743.444,560.7,0.0,-0.088,562.4
7788.464,563.5,0.0,0.142,561.5
7794.447,563.1,0.0,0.015,561.6
7805.452,561.3,0.0,-0.199,561.8
7811.453,561.1,0.0,-0.116,561.9
7874.449,557.8,0.0,0.042,558.4
7930.460,558.2,0.0,0.151,557.4
7941.452,559.2,0.0,0.086,557.6
7979.453,562.3,0.0,0.094,559.7
7984.444,562.7,0.0,0.151,560.2
7990.456,562.8,0.0,0.021,560.7
8057.458,558.9,0.0,-0.199,562.1
8063.463,559.0,0.0,-0.113,561.6
8068.460,557.4,0.0,-0.162,561.2
8085.452,555.5,0.0,-0.077,559.2
8102.442,554.0,0.0,-0.216,557.4
8113.458,551.1,0.0,-0.272,556.0
8118.456,551.2,0.0,-0.223,555.3
8134.452,548.3,0.0,-0.085,553.0
8145.448,547.0,0.0,-0.129,551.7
8151.454,545.3,0.0,-0.273,550.9
8157.448,544.1,0.0,-0.248,549.5
8162.455,544.5,0.0,-0.090,548.7
8168.453,541.9,0.0,-0.198,547.7
8173.458,540.9,0.0,-0.366,546.8
8178.453,541.5,0.0,-0.046,546.1
8196.453,538.2,0.0,-0.198,543.4
8201.445,536.7,0.0,-0.451,542.4
8207.465,535.5,0.0,-0.202,541.5
8212.455,535.9,0.0,-0.072,540.6
8222.455,533.8,0.0,-0.214,538.9
8239.441,528.4,0.0,-0.144,534.6
8261.462,525.6,0.0,-0.092,531.2
8279.442,523.0,0.0,-0.217,528.0
8284.454,521.0,0.0,-0.351,526.9
8290.466,522.7,0.0,-0.025,526.0
8295.448,522.6,0.0,0.154,525.2
8301.445,522.2,0.0,-0.047,524.5
8340.461,520.3,0.0,-0.140,522.2
8345.465,519.1,0.0,-0.285,522.1
8351.460,514.1,0.0,-0.668,521.5
8357.457,510.3,0.0,-0.744,520.1
8363.448,516.3,0.0,0.269,519.4
8375.438,521.3,0.0,0.430,518.8
8380.445,522.0,0.0,0.230,518.7
8386.442,522.7,0.0,0.125,518.7
8407.457,524.9,0.0,0.171,519.6
8423.461,528.5,0.0,0.315,523.1
8429.448,529.1,0.0,0.171,524.2
8440.436,530.3,0.0,0.103,525.8
8479.444,531.4,0.0,0.128,530.0
8485.451,531.0,0.0,0.030,530.3
8523.441,532.9,0.0,0.139,531.1
8529.442,532.1,0.0,-0.001,531.3
8552.455,530.4,0.0,-0.142,531.6
8558.441,530.8,0.0,-0.022,531.5
8569.457,528.5,0.0,-0.208,531.2
8580.446,527.8,0.0,-0.086,530.6
8596.450,532.5,0.0,0.382,529.8
8607.450,533.2,0.0,0.171,530.0
8613.451,532.4,0.0,-0.050,530.2
8624.447,534.5,0.0,0.257,530.7
8630.440,533.8,0.0,0.020,531.2
8636.449,531.8,0.0,-0.300,531.5
8642.439,532.3,0.0,-0.247,532.0
8648.440,534.2,0.0,-0.050,532.4
8653.448,540.4,0.0,0.767,533.1
8664.435,539.1,0.0,-0.113,534.6
8670.440,537.1,0.0,-0.273,535.0
8676.447,532.0,0.0,-0.774,535.3
8687.440,533.1,0.0,0.092,534.9
8692.451,533.9,0.0,0.359,534.8
8698.439,532.5,0.0,-0.070,535.0
8704.453,530.3,0.0,-0.294,534.8
8716.451,533.9,0.0,0.381,533.8
8722.442,541.3,0.0,0.959,533.7
8732.454,536.4,0.0,-0.491,533.8
8744.438,537.2,0.0,0.089,534.6
8749.431,539.2,0.0,0.322,535.3
8755.445,540.1,0.0,-0.202,535.8
8761.450,541.5,0.0,0.195,536.8
8766.438,539.2,0.0,-0.087,537.8
8772.452,538.8,0.0,-0.262,538.7
8778.459,542.1,0.0,0.235,539.4
8789.445,546.6,0.0,0.475,540.0
8801.446,538.9,0.0,-0.660,541.9
8815.437,557.3,0.0,-0.108,541.8
8821.449,541.5,0.0,0.237,543.5
8826.454,537.0,0.0,-0.124,543.4
8832.451,533.2,0.0,-0.903,543.0
8843.453,530.9,0.0,-0.211,541.3
8848.450,531.0,0.0,-0.068,540.2
8854.453,535.1,0.0,0.414,538.8
8865.456,535.5,0.0,0.107,537.6
8871.452,537.1,0.0,0.157,537.3
8883.429,543.0,0.0,0.561,535.1
8898.440,546.3,0.0,0.303,537.6
8904.451,551.2,0.0,0.491,539.4
8916.450,554.1,0.0,0.214,543.6
8921.448,554.1,0.0,0.058,545.0
8964.434,555.7,0.0,0.139,554.2
8981.431,558.4,0.0,0.090,555.4
9027.438,562.3,0.0,0.159,559.5
9038.432,563.7,0.0,0.126,560.5
9169.438,563.9,0.0,0.001,563.8
</abvio:altitudeTable>
</extensions>
</gpx>
